Wetterdaten: Mittwoch, 15.11.2017
Datum Zeit Temp. A. Pool Temp. Feuchte A. Luftdruck Regen Wind Richtung Richtung Sonnenschein ET UV Solar Taupunkt Windchill Windben Empfang
15.11.2017 00:00 0,3 C 6,7 C 95 % 1028,4 hPa 0,0 l/m 3,4 km/h (1 Bft) W 267 0 min 0,000 mm 0,0 UV-I 0 W/m -0,4 C 0,3 C 6,4 km/h (2 Bft) 95,74 %
15.11.2017 00:02 0,3 C 6,7 C 95 % 1028,4 hPa 0,0 l/m 2,7 km/h (1 Bft) W 267 0 min 0,000 mm 0,0 UV-I 0 W/m -0,4 C 0,3 C 4,8 km/h (1 Bft) 97,67 %
15.11.2017 00:04 0,3 C 6,7 C 95 % 1028,4 hPa 0,0 l/m 4,5 km/h (1 Bft) W 260 0 min 0,000 mm 0,0 UV-I 0 W/m -0,4 C 0,3 C 6,4 km/h (2 Bft) 95,74 %
15.11.2017 00:06 0,3 C 6,7 C 95 % 1028,4 hPa 0,0 l/m 5,1 km/h (1 Bft) W 273 0 min 0,000 mm 0,0 UV-I 0 W/m -0,4 C 0,3 C 9,7 km/h (2 Bft) 97,87 %
15.11.2017 00:08 0,3 C 6,7 C 95 % 1028,4 hPa 0,0 l/m 3,4 km/h (1 Bft) W 265 0 min 0,000 mm 0,0 UV-I 0 W/m -0,4 C 0,3 C 4,8 km/h (1 Bft) 97,56 %
15.11.2017 00:10 0,3 C 6,7 C 95 % 1028,4 hPa 0,0 l/m 4,9 km/h (1 Bft) W-SW 240 0 min 0,000 mm 0,0 UV-I 0 W/m -0,4 C 0,3 C 9,7 km/h (2 Bft) 98,11 %
15.11.2017 00:12 0,3 C 6,7 C 95 % 1028,3 hPa 0,0 l/m 6,5 km/h (2 Bft) W-SW 238 0 min 0,000 mm 0,0 UV-I 0 W/m -0,4 C 0,2 C 11,3 km/h (2 Bft) 96,00 %
15.11.2017 00:14 0,3 C 6,7 C 95 % 1028,3 hPa 0,0 l/m 5,4 km/h (1 Bft) W-NW 298 0 min 0,000 mm 0,0 UV-I 0 W/m -0,4 C 0,3 C 9,7 km/h (2 Bft) 100,00 %
15.11.2017 00:16 0,3 C 6,7 C 95 % 1028,3 hPa 0,0 l/m 3,8 km/h (1 Bft) W 274 0 min 0,000 mm 0,0 UV-I 0 W/m -0,4 C 0,3 C 9,7 km/h (2 Bft) 98,11 %
15.11.2017 00:18 0,3 C 6,7 C 95 % 1028,3 hPa 0,0 l/m 3,6 km/h (1 Bft) W-NW 290 0 min 0,000 mm 0,0 UV-I 0 W/m -0,4 C 0,3 C 6,4 km/h (2 Bft) 100,00 %
15.11.2017 00:20 0,3 C 6,7 C 95 % 1028,3 hPa 0,0 l/m 4,2 km/h (1 Bft) W-SW 248 0 min 0,000 mm 0,0 UV-I 0 W/m -0,4 C 0,3 C 11,3 km/h (2 Bft) 100,00 %
15.11.2017 00:22 0,2 C 6,7 C 95 % 1028,3 hPa 0,0 l/m 6,3 km/h (2 Bft) W-SW 250 0 min 0,000 mm 0,0 UV-I 0 W/m -0,5 C 0,2 C 11,3 km/h (2 Bft) 100,00 %
15.11.2017 00:24 0,2 C 6,7 C 95 % 1028,3 hPa 0,0 l/m 7,5 km/h (2 Bft) W 266 0 min 0,000 mm 0,0 UV-I 0 W/m -0,5 C -0,9 C 11,3 km/h (2 Bft) 100,00 %
15.11.2017 00:26 0,2 C 6,7 C 95 % 1028,3 hPa 0,0 l/m 7,4 km/h (2 Bft) W-SW 258 0 min 0,000 mm 0,0 UV-I 0 W/m -0,5 C -0,8 C 11,3 km/h (2 Bft) 100,00 %
15.11.2017 00:28 0,2 C 6,7 C 95 % 1028,2 hPa 0,0 l/m 6,7 km/h (2 Bft) SW 236 0 min 0,000 mm 0,0 UV-I 0 W/m -0,5 C -0,1 C 12,9 km/h (3 Bft) 100,00 %
15.11.2017 00:30 0,2 C 6,7 C 95 % 1028,3 hPa 0,0 l/m 7,0 km/h (2 Bft) SW 224 0 min 0,000 mm 0,0 UV-I 0 W/m -0,5 C -0,4 C 11,3 km/h (2 Bft) 95,74 %
15.11.2017 00:32 0,2 C 6,7 C 95 % 1028,3 hPa 0,0 l/m 9,8 km/h (2 Bft) SW 234 0 min 0,000 mm 0,0 UV-I 0 W/m -0,5 C -3,1 C 12,9 km/h (3 Bft) 97,62 %
15.11.2017 00:34 0,2 C 6,7 C 95 % 1028,2 hPa 0,0 l/m 6,5 km/h (2 Bft) W-SW 256 0 min 0,000 mm 0,0 UV-I 0 W/m -0,5 C 0,1 C 9,7 km/h (2 Bft) 98,00 %
15.11.2017 00:36 0,2 C 6,7 C 95 % 1028,2 hPa 0,0 l/m 3,6 km/h (1 Bft) W-SW 238 0 min 0,000 mm 0,0 UV-I 0 W/m -0,5 C 0,2 C 6,4 km/h (2 Bft) 96,00 %
15.11.2017 00:38 0,2 C 6,7 C 95 % 1028,2 hPa 0,0 l/m 5,4 km/h (1 Bft) SW 219 0 min 0,000 mm 0,0 UV-I 0 W/m -0,5 C 0,2 C 11,3 km/h (2 Bft) 97,14 %
15.11.2017 00:40 0,2 C 6,7 C 95 % 1028,2 hPa 0,0 l/m 5,6 km/h (1 Bft) S-SW 206 0 min 0,000 mm 0,0 UV-I 0 W/m -0,5 C 0,2 C 9,7 km/h (2 Bft) 96,00 %
15.11.2017 00:42 0,2 C 6,7 C 95 % 1028,2 hPa 0,0 l/m 6,5 km/h (2 Bft) S-SW 211 0 min 0,000 mm 0,0 UV-I 0 W/m -0,5 C 0,1 C 9,7 km/h (2 Bft) 95,74 %
15.11.2017 00:44 0,2 C 6,7 C 95 % 1028,3 hPa 0,0 l/m 5,6 km/h (1 Bft) S-SW 209 0 min 0,000 mm 0,0 UV-I 0 W/m -0,5 C 0,2 C 9,7 km/h (2 Bft) 98,00 %
15.11.2017 00:46 0,2 C 6,7 C 95 % 1028,3 hPa 0,0 l/m 5,8 km/h (2 Bft) S-SW 205 0 min 0,000 mm 0,0 UV-I 0 W/m -0,5 C 0,2 C 9,7 km/h (2 Bft) 98,00 %
15.11.2017 00:48 0,2 C 6,7 C 95 % 1028,3 hPa 0,0 l/m 4,0 km/h (1 Bft) S-SW 198 0 min 0,000 mm 0,0 UV-I 0 W/m -0,5 C 0,2 C 6,4 km/h (2 Bft) 95,74 %
15.11.2017 00:50 0,2 C 6,7 C 96 % 1028,4 hPa 0,0 l/m 2,8 km/h (1 Bft) S-SW 195 0 min 0,000 mm 0,0 UV-I 0 W/m -0,4 C 0,2 C 4,8 km/h (1 Bft) 94,74 %
15.11.2017 00:52 0,3 C 6,7 C 96 % 1028,4 hPa 0,0 l/m 3,2 km/h (1 Bft) W 272 0 min 0,000 mm 0,0 UV-I 0 W/m -0,3 C 0,3 C 4,8 km/h (1 Bft) 98,21 %
15.11.2017 00:54 0,3 C 6,7 C 96 % 1028,4 hPa 0,0 l/m 4,9 km/h (1 Bft) SW 225 0 min 0,000 mm 0,0 UV-I 0 W/m -0,3 C 0,3 C 8,0 km/h (2 Bft) 97,56 %
15.11.2017 00:56 0,3 C 6,7 C 96 % 1028,4 hPa 0,0 l/m 5,2 km/h (1 Bft) SW 227 0 min 0,000 mm 0,0 UV-I 0 W/m -0,3 C 0,3 C 8,0 km/h (2 Bft) 98,00 %
15.11.2017 00:58 0,3 C 6,7 C 96 % 1028,4 hPa 0,0 l/m 3,4 km/h (1 Bft) SW 228 0 min 0,000 mm 0,0 UV-I 0 W/m -0,3 C 0,3 C 4,8 km/h (1 Bft) 96,00 %
15.11.2017 01:00 0,3 C 6,7 C 96 % 1028,4 hPa 0,0 l/m 3,4 km/h (1 Bft) W-SW 238 0 min 0,000 mm 0,0 UV-I 0 W/m -0,3 C 0,3 C 4,8 km/h (1 Bft) 97,14 %
15.11.2017 01:02 0,3 C 6,7 C 95 % 1028,4 hPa 0,0 l/m 4,8 km/h (1 Bft) S-SW 205 0 min 0,000 mm 0,0 UV-I 0 W/m -0,4 C 0,3 C 8,0 km/h (2 Bft) 100,00 %
15.11.2017 01:04 0,3 C 6,7 C 96 % 1028,4 hPa 0,0 l/m 5,0 km/h (1 Bft) SW 234 0 min 0,000 mm 0,0 UV-I 0 W/m -0,3 C 0,3 C 8,0 km/h (2 Bft) 100,00 %
15.11.2017 01:06 0,3 C 6,7 C 96 % 1028,4 hPa 0,0 l/m 3,2 km/h (1 Bft) W-SW 245 0 min 0,000 mm 0,0 UV-I 0 W/m -0,3 C 0,3 C 6,4 km/h (2 Bft) 100,00 %
15.11.2017 01:08 0,3 C 6,7 C 95 % 1028,4 hPa 0,0 l/m 5,1 km/h (1 Bft) W-SW 251 0 min 0,000 mm 0,0 UV-I 0 W/m -0,4 C 0,3 C 9,7 km/h (2 Bft) 97,87 %
15.11.2017 01:10 0,3 C 6,7 C 96 % 1028,4 hPa 0,0 l/m 6,6 km/h (2 Bft) W-NW 284 0 min 0,000 mm 0,0 UV-I 0 W/m -0,3 C 0,1 C 11,3 km/h (2 Bft) 100,00 %
15.11.2017 01:12 0,3 C 6,7 C 95 % 1028,5 hPa 0,0 l/m 3,8 km/h (1 Bft) W-NW 283 0 min 0,000 mm 0,0 UV-I 0 W/m -0,4 C 0,3 C 6,4 km/h (2 Bft) 100,00 %
15.11.2017 01:14 0,3 C 6,7 C 95 % 1028,5 hPa 0,0 l/m 5,5 km/h (1 Bft) W 264 0 min 0,000 mm 0,0 UV-I 0 W/m -0,4 C 0,3 C 9,7 km/h (2 Bft) 96,00 %
15.11.2017 01:16 0,2 C 6,7 C 96 % 1028,5 hPa 0,0 l/m 5,4 km/h (1 Bft) W 265 0 min 0,000 mm 0,0 UV-I 0 W/m -0,4 C 0,2 C 9,7 km/h (2 Bft) 100,00 %
15.11.2017 01:18 0,2 C 6,7 C 96 % 1028,5 hPa 0,0 l/m 3,5 km/h (1 Bft) W 273 0 min 0,000 mm 0,0 UV-I 0 W/m -0,4 C 0,2 C 6,4 km/h (2 Bft) 100,00 %
15.11.2017 01:20 0,2 C 6,7 C 95 % 1028,5 hPa 0,0 l/m 2,4 km/h (1 Bft) W 273 0 min 0,000 mm 0,0 UV-I 0 W/m -0,5 C 0,2 C 4,8 km/h (1 Bft) 100,00 %
15.11.2017 01:22 0,2 C 6,7 C 95 % 1028,5 hPa 0,0 l/m 2,7 km/h (1 Bft) W 273 0 min 0,000 mm 0,0 UV-I 0 W/m -0,5 C 0,2 C 4,8 km/h (1 Bft) 98,11 %
15.11.2017 01:24 0,2 C 6,7 C 96 % 1028,4 hPa 0,0 l/m 3,4 km/h (1 Bft) W 273 0 min 0,000 mm 0,0 UV-I 0 W/m -0,4 C 0,2 C 4,8 km/h (1 Bft) 100,00 %
15.11.2017 01:26 0,2 C 6,7 C 96 % 1028,5 hPa 0,0 l/m 1,1 km/h (1 Bft) W 273 0 min 0,000 mm 0,0 UV-I 0 W/m -0,4 C 0,2 C 3,2 km/h (1 Bft) 98,00 %
15.11.2017 01:28 0,2 C 6,7 C 96 % 1028,5 hPa 0,0 l/m 4,9 km/h (1 Bft) W-SW 254 0 min 0,000 mm 0,0 UV-I 0 W/m -0,4 C 0,2 C 9,7 km/h (2 Bft) 96,00 %
15.11.2017 01:30 0,2 C 6,7 C 96 % 1028,5 hPa 0,0 l/m 4,6 km/h (1 Bft) W-SW 249 0 min 0,000 mm 0,0 UV-I 0 W/m -0,4 C 0,2 C 6,4 km/h (2 Bft) 100,00 %
15.11.2017 01:32 0,2 C 6,7 C 96 % 1028,5 hPa 0,0 l/m 3,1 km/h (1 Bft) S 189 0 min 0,000 mm 0,0 UV-I 0 W/m -0,4 C 0,2 C 4,8 km/h (1 Bft) 97,92 %
15.11.2017 01:34 0,3 C 6,7 C 96 % 1028,5 hPa 0,0 l/m 2,9 km/h (1 Bft) SW 231 0 min 0,000 mm 0,0 UV-I 0 W/m -0,3 C 0,3 C 4,8 km/h (1 Bft) 100,00 %
15.11.2017 01:36 0,3 C 6,7 C 96 % 1028,5 hPa 0,0 l/m 2,5 km/h (1 Bft) SW 231 0 min 0,000 mm 0,0 UV-I 0 W/m -0,3 C 0,3 C 4,8 km/h (1 Bft) 100,00 %
15.11.2017 01:38 0,3 C 6,7 C 96 % 1028,5 hPa 0,0 l/m 4,3 km/h (1 Bft) W 263 0 min 0,000 mm 0,0 UV-I 0 W/m -0,3 C 0,3 C 8,0 km/h (2 Bft) 100,00 %
15.11.2017 01:40 0,3 C 6,7 C 96 % 1028,5 hPa 0,0 l/m 2,9 km/h (1 Bft) W 263 0 min 0,000 mm 0,0 UV-I 0 W/m -0,3 C 0,3 C 4,8 km/h (1 Bft) 100,00 %
15.11.2017 01:42 0,3 C 6,7 C 96 % 1028,5 hPa 0,0 l/m 4,4 km/h (1 Bft) W-SW 242 0 min 0,000 mm 0,0 UV-I 0 W/m -0,3 C 0,3 C 6,4 km/h (2 Bft) 100,00 %
15.11.2017 01:44 0,3 C 6,7 C 95 % 1028,6 hPa 0,0 l/m 3,0 km/h (1 Bft) W 279 0 min 0,000 mm 0,0 UV-I 0 W/m -0,4 C 0,3 C 6,4 km/h (2 Bft) 100,00 %
15.11.2017 01:46 0,3 C 6,7 C 96 % 1028,6 hPa 0,0 l/m 3,6 km/h (1 Bft) W 279 0 min 0,000 mm 0,0 UV-I 0 W/m -0,3 C 0,3 C 4,8 km/h (1 Bft) 97,87 %
15.11.2017 01:48 0,3 C 6,7 C 96 % 1028,6 hPa 0,0 l/m 3,5 km/h (1 Bft) W-SW 246 0 min 0,000 mm 0,0 UV-I 0 W/m -0,3 C 0,3 C 8,0 km/h (2 Bft) 100,00 %
15.11.2017 01:50 0,2 C 6,7 C 96 % 1028,6 hPa 0,0 l/m 4,6 km/h (1 Bft) W-SW 254 0 min 0,000 mm 0,0 UV-I 0 W/m -0,4 C 0,2 C 6,4 km/h (2 Bft) 100,00 %
15.11.2017 01:52 0,2 C 6,7 C 96 % 1028,6 hPa 0,0 l/m 5,3 km/h (1 Bft) W 268 0 min 0,000 mm 0,0 UV-I 0 W/m -0,4 C 0,2 C 11,3 km/h (2 Bft) 100,00 %
15.11.2017 01:54 0,2 C 6,7 C 95 % 1028,6 hPa 0,0 l/m 7,6 km/h (2 Bft) W 273 0 min 0,000 mm 0,0 UV-I 0 W/m -0,5 C -1,0 C 11,3 km/h (2 Bft) 100,00 %
15.11.2017 01:56 0,1 C 6,7 C 95 % 1028,6 hPa 0,0 l/m 4,1 km/h (1 Bft) W-SW 248 0 min 0,000 mm 0,0 UV-I 0 W/m -0,6 C 0,1 C 6,4 km/h (2 Bft) 96,23 %
15.11.2017 01:58 0,1 C 6,7 C 96 % 1028,6 hPa 0,0 l/m 4,7 km/h (1 Bft) W-SW 242 0 min 0,000 mm 0,0 UV-I 0 W/m -0,5 C 0,1 C 6,4 km/h (2 Bft) 100,00 %
15.11.2017 02:00 0,2 C 6,7 C 96 % 1028,6 hPa 0,0 l/m 4,4 km/h (1 Bft) W 273 0 min 0,000 mm 0,0 UV-I 0 W/m -0,4 C 0,2 C 9,7 km/h (2 Bft) 100,00 %
15.11.2017 02:02 0,2 C 6,7 C 96 % 1028,5 hPa 0,0 l/m 6,8 km/h (2 Bft) W 269 0 min 0,000 mm 0,0 UV-I 0 W/m -0,4 C -0,2 C 9,7 km/h (2 Bft) 100,00 %
15.11.2017 02:04 0,1 C 6,7 C 95 % 1028,5 hPa 0,0 l/m 4,4 km/h (1 Bft) W 267 0 min 0,000 mm 0,0 UV-I 0 W/m -0,6 C 0,1 C 6,4 km/h (2 Bft) 100,00 %
15.11.2017 02:06 0,1 C 6,7 C 96 % 1028,5 hPa 0,0 l/m 4,7 km/h (1 Bft) W 263 0 min 0,000 mm 0,0 UV-I 0 W/m -0,5 C 0,1 C 9,7 km/h (2 Bft) 98,00 %
15.11.2017 02:08 0,1 C 6,7 C 96 % 1028,5 hPa 0,0 l/m 4,8 km/h (1 Bft) W-SW 257 0 min 0,000 mm 0,0 UV-I 0 W/m -0,5 C 0,1 C 6,4 km/h (2 Bft) 100,00 %
15.11.2017 02:10 0,1 C 6,7 C 96 % 1028,5 hPa 0,0 l/m 3,4 km/h (1 Bft) W-SW 257 0 min 0,000 mm 0,0 UV-I 0 W/m -0,5 C 0,1 C 6,4 km/h (2 Bft) 100,00 %
15.11.2017 02:12 0,1 C 6,7 C 96 % 1028,4 hPa 0,0 l/m 4,2 km/h (1 Bft) W 271 0 min 0,000 mm 0,0 UV-I 0 W/m -0,5 C 0,1 C 9,7 km/h (2 Bft) 97,87 %
15.11.2017 02:14 0,2 C 6,7 C 96 % 1028,4 hPa 0,0 l/m 3,7 km/h (1 Bft) W 269 0 min 0,000 mm 0,0 UV-I 0 W/m -0,4 C 0,2 C 6,4 km/h (2 Bft) 100,00 %
15.11.2017 02:16 0,2 C 6,7 C 96 % 1028,5 hPa 0,0 l/m 4,8 km/h (1 Bft) W 269 0 min 0,000 mm 0,0 UV-I 0 W/m -0,4 C 0,2 C 9,7 km/h (2 Bft) 100,00 %
15.11.2017 02:18 0,1 C 6,7 C 96 % 1028,5 hPa 0,0 l/m 5,6 km/h (1 Bft) W 281 0 min 0,000 mm 0,0 UV-I 0 W/m -0,5 C 0,1 C 9,7 km/h (2 Bft) 100,00 %
15.11.2017 02:20 0,1 C 6,7 C 96 % 1028,4 hPa 0,0 l/m 4,5 km/h (1 Bft) W-NW 294 0 min 0,000 mm 0,0 UV-I 0 W/m -0,5 C 0,1 C 6,4 km/h (2 Bft) 100,00 %
15.11.2017 02:22 0,1 C 6,7 C 96 % 1028,5 hPa 0,0 l/m 2,5 km/h (1 Bft) W 279 0 min 0,000 mm 0,0 UV-I 0 W/m -0,5 C 0,1 C 9,7 km/h (2 Bft) 98,00 %
15.11.2017 02:24 0,1 C 6,7 C 96 % 1028,4 hPa 0,0 l/m 3,8 km/h (1 Bft) W 270 0 min 0,000 mm 0,0 UV-I 0 W/m -0,5 C 0,1 C 6,4 km/h (2 Bft) 100,00 %
15.11.2017 02:26 0,1 C 6,7 C 96 % 1028,5 hPa 0,0 l/m 5,1 km/h (1 Bft) W 263 0 min 0,000 mm 0,0 UV-I 0 W/m -0,5 C 0,1 C 9,7 km/h (2 Bft) 100,00 %
15.11.2017 02:28 0,1 C 6,7 C 96 % 1028,4 hPa 0,0 l/m 3,4 km/h (1 Bft) W 263 0 min 0,000 mm 0,0 UV-I 0 W/m -0,5 C 0,1 C 6,4 km/h (2 Bft) 98,11 %
15.11.2017 02:30 0,1 C 6,7 C 96 % 1028,5 hPa 0,0 l/m 5,9 km/h (2 Bft) W 261 0 min 0,000 mm 0,0 UV-I 0 W/m -0,5 C 0,1 C 9,7 km/h (2 Bft) 96,30 %
15.11.2017 02:32 0,1 C 6,7 C 96 % 1028,4 hPa 0,0 l/m 4,1 km/h (1 Bft) W 266 0 min 0,000 mm 0,0 UV-I 0 W/m -0,5 C 0,1 C 6,4 km/h (2 Bft) 97,06 %
15.11.2017 02:34 0,1 C 6,7 C 96 % 1028,4 hPa 0,0 l/m 4,4 km/h (1 Bft) W-SW 252 0 min 0,000 mm 0,0 UV-I 0 W/m -0,5 C 0,1 C 6,4 km/h (2 Bft) 97,37 %
15.11.2017 02:36 0,2 C 6,7 C 96 % 1028,4 hPa 0,0 l/m 3,7 km/h (1 Bft) W-NW 285 0 min 0,000 mm 0,0 UV-I 0 W/m -0,4 C 0,2 C 6,4 km/h (2 Bft) 97,87 %
15.11.2017 02:38 0,2 C 6,7 C 96 % 1028,4 hPa 0,0 l/m 4,3 km/h (1 Bft) W 275 0 min 0,000 mm 0,0 UV-I 0 W/m -0,4 C 0,2 C 6,4 km/h (2 Bft) 98,00 %
15.11.2017 02:40 0,1 C 6,7 C 96 % 1028,5 hPa 0,0 l/m 3,7 km/h (1 Bft) W 272 0 min 0,000 mm 0,0 UV-I 0 W/m -0,5 C 0,1 C 6,4 km/h (2 Bft) 92,00 %
15.11.2017 02:42 0,1 C 6,7 C 96 % 1028,5 hPa 0,0 l/m 6,3 km/h (2 Bft) W-SW 243 0 min 0,000 mm 0,0 UV-I 0 W/m -0,5 C 0,1 C 11,3 km/h (2 Bft) 96,00 %
15.11.2017 02:44 0,1 C 6,7 C 96 % 1028,4 hPa 0,0 l/m 4,3 km/h (1 Bft) W 263 0 min 0,000 mm 0,0 UV-I 0 W/m -0,5 C 0,1 C 6,4 km/h (2 Bft) 95,12 %
15.11.2017 02:46 0,1 C 6,7 C 96 % 1028,5 hPa 0,0 l/m 5,1 km/h (1 Bft) W-NW 290 0 min 0,000 mm 0,0 UV-I 0 W/m -0,5 C 0,1 C 6,4 km/h (2 Bft) 98,15 %
15.11.2017 02:48 0,2 C 6,7 C 96 % 1028,5 hPa 0,0 l/m 5,9 km/h (2 Bft) W 280 0 min 0,000 mm 0,0 UV-I 0 W/m -0,4 C 0,2 C 12,9 km/h (3 Bft) 94,74 %
15.11.2017 02:50 0,2 C 6,7 C 96 % 1028,5 hPa 0,0 l/m 4,2 km/h (1 Bft) W 275 0 min 0,000 mm 0,0 UV-I 0 W/m -0,4 C 0,2 C 6,4 km/h (2 Bft) 95,74 %
15.11.2017 02:52 0,1 C 6,7 C 96 % 1028,4 hPa 0,0 l/m 3,0 km/h (1 Bft) W 262 0 min 0,000 mm 0,0 UV-I 0 W/m -0,5 C 0,1 C 6,4 km/h (2 Bft) 96,23 %
15.11.2017 02:54 0,1 C 6,7 C 96 % 1028,5 hPa 0,0 l/m 2,6 km/h (1 Bft) W 273 0 min 0,000 mm 0,0 UV-I 0 W/m -0,5 C 0,1 C 6,4 km/h (2 Bft) 95,74 %
15.11.2017 02:56 0,1 C 6,7 C 96 % 1028,5 hPa 0,0 l/m 2,3 km/h (1 Bft) W 264 0 min 0,000 mm 0,0 UV-I 0 W/m -0,5 C 0,1 C 6,4 km/h (2 Bft) 94,74 %
15.11.2017 02:58 0,1 C 6,7 C 96 % 1028,5 hPa 0,0 l/m 2,4 km/h (1 Bft) W 265 0 min 0,000 mm 0,0 UV-I 0 W/m -0,5 C 0,1 C 4,8 km/h (1 Bft) 93,22 %
15.11.2017 03:00 0,1 C 6,7 C 96 % 1028,5 hPa 0,0 l/m 4,0 km/h (1 Bft) W 271 0 min 0,000 mm 0,0 UV-I 0 W/m -0,5 C 0,1 C 9,7 km/h (2 Bft) 100,00 %
15.11.2017 03:02 0,1 C 6,7 C 96 % 1028,5 hPa 0,0 l/m 6,4 km/h (2 Bft) W 277 0 min 0,000 mm 0,0 UV-I 0 W/m -0,5 C 0,1 C 11,3 km/h (2 Bft) 93,75 %
15.11.2017 03:04 0,1 C 6,7 C 96 % 1028,4 hPa 0,0 l/m 2,7 km/h (1 Bft) W 277 0 min 0,000 mm 0,0 UV-I 0 W/m -0,5 C 0,1 C 4,8 km/h (1 Bft) 97,44 %
15.11.2017 03:06 0,1 C 6,7 C 96 % 1028,5 hPa 0,0 l/m 4,9 km/h (1 Bft) W-NW 292 0 min 0,000 mm 0,0 UV-I 0 W/m -0,5 C 0,1 C 6,4 km/h (2 Bft) 94,55 %
15.11.2017 03:08 0,0 C 6,7 C 96 % 1028,4 hPa 0,0 l/m 3,2 km/h (1 Bft) W-SW 254 0 min 0,000 mm 0,0 UV-I 0 W/m -0,6 C 0,0 C 4,8 km/h (1 Bft) 98,00 %
15.11.2017 03:10 0,1 C 6,7 C 96 % 1028,4 hPa 0,0 l/m 1,4 km/h (1 Bft) W 260 0 min 0,000 mm 0,0 UV-I 0 W/m -0,5 C 0,1 C 4,8 km/h (1 Bft) 97,87 %
15.11.2017 03:12 0,0 C 6,7 C 96 % 1028,4 hPa 0,0 l/m 3,3 km/h (1 Bft) W 277 0 min 0,000 mm 0,0 UV-I 0 W/m -0,6 C 0,0 C 4,8 km/h (1 Bft) 94,87 %
15.11.2017 03:14 0,1 C 6,7 C 96 % 1028,5 hPa 0,0 l/m 2,0 km/h (1 Bft) W 277 0 min 0,000 mm 0,0 UV-I 0 W/m -0,5 C 0,1 C 4,8 km/h (1 Bft) 97,87 %
15.11.2017 03:16 0,0 C 6,7 C 96 % 1028,4 hPa 0,0 l/m 1,4 km/h (1 Bft) W 277 0 min 0,000 mm 0,0 UV-I 0 W/m -0,6 C 0,0 C 3,2 km/h (1 Bft) 98,11 %
15.11.2017 03:18 0,1 C 6,7 C 96 % 1028,4 hPa 0,0 l/m 3,8 km/h (1 Bft) W 264 0 min 0,000 mm 0,0 UV-I 0 W/m -0,5 C 0,1 C 6,4 km/h (2 Bft) 97,37 %
15.11.2017 03:20 0,1 C 6,7 C 96 % 1028,3 hPa 0,0 l/m 3,3 km/h (1 Bft) W-SW 246 0 min 0,000 mm 0,0 UV-I 0 W/m -0,5 C 0,1 C 6,4 km/h (2 Bft) 98,21 %
15.11.2017 03:22 0,1 C 6,7 C 96 % 1028,4 hPa 0,0 l/m 4,1 km/h (1 Bft) W-SW 257 0 min 0,000 mm 0,0 UV-I 0 W/m -0,5 C 0,1 C 6,4 km/h (2 Bft) 97,14 %
15.11.2017 03:24 0,1 C 6,7 C 96 % 1028,2 hPa 0,0 l/m 3,6 km/h (1 Bft) W 271 0 min 0,000 mm 0,0 UV-I 0 W/m -0,5 C 0,1 C 6,4 km/h (2 Bft) 96,77 %
15.11.2017 03:26 0,1 C 6,7 C 96 % 1028,2 hPa 0,0 l/m 2,7 km/h (1 Bft) W 267 0 min 0,000 mm 0,0 UV-I 0 W/m -0,5 C 0,1 C 6,4 km/h (2 Bft) 97,14 %
15.11.2017 03:28 0,1 C 6,7 C 96 % 1028,2 hPa 0,0 l/m 3,6 km/h (1 Bft) W 281 0 min 0,000 mm 0,0 UV-I 0 W/m -0,5 C 0,1 C 6,4 km/h (2 Bft) 93,62 %
15.11.2017 03:30 0,1 C 6,7 C 96 % 1028,2 hPa 0,0 l/m 3,1 km/h (1 Bft) W-NW 293 0 min 0,000 mm 0,0 UV-I 0 W/m -0,5 C 0,1 C 9,7 km/h (2 Bft) 98,00 %
15.11.2017 03:32 0,0 C 6,7 C 96 % 1028,2 hPa 0,0 l/m 2,5 km/h (1 Bft) W 267 0 min 0,000 mm 0,0 UV-I 0 W/m -0,6 C 0,0 C 6,4 km/h (2 Bft) 98,11 %
15.11.2017 03:34 0,1 C 6,7 C 96 % 1028,3 hPa 0,0 l/m 3,9 km/h (1 Bft) W 271 0 min 0,000 mm 0,0 UV-I 0 W/m -0,5 C 0,1 C 6,4 km/h (2 Bft) 97,87 %
15.11.2017 03:36 0,1 C 6,7 C 96 % 1028,3 hPa 0,0 l/m 2,7 km/h (1 Bft) W 271 0 min 0,000 mm 0,0 UV-I 0 W/m -0,5 C 0,1 C 4,8 km/h (1 Bft) 97,87 %
15.11.2017 03:38 0,1 C 6,7 C 96 % 1028,3 hPa 0,0 l/m 2,9 km/h (1 Bft) W 271 0 min 0,000 mm 0,0 UV-I 0 W/m -0,5 C 0,1 C 4,8 km/h (1 Bft) 97,37 %
15.11.2017 03:40 0,1 C 6,7 C 96 % 1028,3 hPa 0,0 l/m 1,0 km/h (0 Bft) W 271 0 min 0,000 mm 0,0 UV-I 0 W/m -0,5 C 0,1 C 4,8 km/h (1 Bft) 98,21 %
15.11.2017 03:42 0,1 C 6,7 C 96 % 1028,4 hPa 0,0 l/m 1,5 km/h (1 Bft) W 271 0 min 0,000 mm 0,0 UV-I 0 W/m -0,5 C 0,1 C 3,2 km/h (1 Bft) 97,37 %
15.11.2017 03:44 0,1 C 6,7 C 96 % 1028,4 hPa 0,0 l/m 0,6 km/h (0 Bft) W 271 0 min 0,000 mm 0,0 UV-I 0 W/m -0,5 C 0,1 C 3,2 km/h (1 Bft) 98,00 %
15.11.2017 03:46 0,1 C 6,7 C 96 % 1028,4 hPa 0,0 l/m 2,9 km/h (1 Bft) W 271 0 min 0,000 mm 0,0 UV-I 0 W/m -0,5 C 0,1 C 6,4 km/h (2 Bft) 97,87 %
15.11.2017 03:48 0,0 C 6,7 C 96 % 1028,4 hPa 0,0 l/m 4,9 km/h (1 Bft) W-SW 250 0 min 0,000 mm 0,0 UV-I 0 W/m -0,6 C 0,0 C 9,7 km/h (2 Bft) 100,00 %
15.11.2017 03:50 0,0 C 6,7 C 96 % 1028,4 hPa 0,0 l/m 3,6 km/h (1 Bft) W-SW 250 0 min 0,000 mm 0,0 UV-I 0 W/m -0,6 C 0,0 C 6,4 km/h (2 Bft) 100,00 %
15.11.2017 03:52 -0,1 C 6,7 C 96 % 1028,4 hPa 0,0 l/m 4,3 km/h (1 Bft) W 269 0 min 0,000 mm 0,0 UV-I 0 W/m -0,7 C -0,1 C 4,8 km/h (1 Bft) 100,00 %
15.11.2017 03:54 -0,1 C 6,7 C 96 % 1028,3 hPa 0,0 l/m 1,5 km/h (1 Bft) W 269 0 min 0,000 mm 0,0 UV-I 0 W/m -0,7 C -0,1 C 4,8 km/h (1 Bft) 100,00 %
15.11.2017 03:56 -0,1 C 6,7 C 96 % 1028,3 hPa 0,0 l/m 2,5 km/h (1 Bft) W 269 0 min 0,000 mm 0,0 UV-I 0 W/m -0,7 C -0,1 C 3,2 km/h (1 Bft) 100,00 %
15.11.2017 03:58 0,0 C 6,7 C 96 % 1028,3 hPa 0,0 l/m 2,9 km/h (1 Bft) W-NW 290 0 min 0,000 mm 0,0 UV-I 0 W/m -0,6 C 0,0 C 6,4 km/h (2 Bft) 100,00 %
15.11.2017 04:00 -0,1 C 6,7 C 96 % 1028,3 hPa 0,0 l/m 3,0 km/h (1 Bft) W-NW 296 0 min 0,000 mm 0,0 UV-I 0 W/m -0,7 C -0,1 C 4,8 km/h (1 Bft) 100,00 %
15.11.2017 04:02 -0,1 C 6,7 C 96 % 1028,4 hPa 0,0 l/m 2,0 km/h (1 Bft) W-NW 296 0 min 0,000 mm 0,0 UV-I 0 W/m -0,7 C -0,1 C 3,2 km/h (1 Bft) 100,00 %
15.11.2017 04:04 -0,1 C 6,7 C 96 % 1028,4 hPa 0,0 l/m 2,4 km/h (1 Bft) W-NW 296 0 min 0,000 mm 0,0 UV-I 0 W/m -0,7 C -0,1 C 4,8 km/h (1 Bft) 100,00 %
15.11.2017 04:06 -0,1 C 6,7 C 96 % 1028,4 hPa 0,0 l/m 0,6 km/h (0 Bft) W-NW 296 0 min 0,000 mm 0,0 UV-I 0 W/m -0,7 C -0,1 C 3,2 km/h (1 Bft) 97,37 %
15.11.2017 04:08 0,0 C 6,7 C 96 % 1028,3 hPa 0,0 l/m 1,8 km/h (1 Bft) W-NW 296 0 min 0,000 mm 0,0 UV-I 0 W/m -0,6 C 0,0 C 4,8 km/h (1 Bft) 100,00 %
15.11.2017 04:10 -0,1 C 6,7 C 96 % 1028,3 hPa 0,0 l/m 2,9 km/h (1 Bft) W 279 0 min 0,000 mm 0,0 UV-I 0 W/m -0,7 C -0,1 C 6,4 km/h (2 Bft) 97,87 %
15.11.2017 04:12 -0,2 C 6,7 C 96 % 1028,3 hPa 0,0 l/m 1,1 km/h (1 Bft) W 279 0 min 0,000 mm 0,0 UV-I 0 W/m -0,8 C -0,2 C 3,2 km/h (1 Bft) 100,00 %
15.11.2017 04:14 -0,1 C 6,7 C 96 % 1028,3 hPa 0,0 l/m 1,1 km/h (1 Bft) W 279 0 min 0,000 mm 0,0 UV-I 0 W/m -0,7 C -0,1 C 3,2 km/h (1 Bft) 98,00 %
15.11.2017 04:16 -0,1 C 6,7 C 96 % 1028,3 hPa 0,0 l/m 0,4 km/h (0 Bft) W 279 0 min 0,000 mm 0,0 UV-I 0 W/m -0,7 C -0,1 C 3,2 km/h (1 Bft) 100,00 %
15.11.2017 04:18 -0,1 C 6,7 C 96 % 1028,3 hPa 0,0 l/m 0,3 km/h (0 Bft) W 279 0 min 0,000 mm 0,0 UV-I 0 W/m -0,7 C -0,1 C 1,6 km/h (1 Bft) 100,00 %
15.11.2017 04:20 -0,1 C 6,7 C 96 % 1028,2 hPa 0,0 l/m 0,4 km/h (0 Bft) W 279 0 min 0,000 mm 0,0 UV-I 0 W/m -0,7 C -0,1 C 3,2 km/h (1 Bft) 100,00 %
15.11.2017 04:22 -0,1 C 6,7 C 96 % 1028,2 hPa 0,0 l/m 2,7 km/h (1 Bft) W 279 0 min 0,000 mm 0,0 UV-I 0 W/m -0,7 C -0,1 C 4,8 km/h (1 Bft) 100,00 %
15.11.2017 04:24 -0,1 C 6,7 C 96 % 1028,3 hPa 0,0 l/m 0,2 km/h (0 Bft) W 279 0 min 0,000 mm 0,0 UV-I 0 W/m -0,7 C -0,1 C 1,6 km/h (1 Bft) 98,00 %
15.11.2017 04:26 -0,1 C 6,7 C 96 % 1028,3 hPa 0,0 l/m 1,1 km/h (1 Bft) W 279 0 min 0,000 mm 0,0 UV-I 0 W/m -0,7 C -0,1 C 3,2 km/h (1 Bft) 100,00 %
15.11.2017 04:28 -0,1 C 6,7 C 96 % 1028,3 hPa 0,0 l/m 0,7 km/h (0 Bft) W 279 0 min 0,000 mm 0,0 UV-I 0 W/m -0,7 C -0,1 C 3,2 km/h (1 Bft) 100,00 %
15.11.2017 04:30 -0,1 C 6,7 C 96 % 1028,3 hPa 0,0 l/m 0,7 km/h (0 Bft) W 279 0 min 0,000 mm 0,0 UV-I 0 W/m -0,7 C -0,1 C 1,6 km/h (1 Bft) 98,00 %
15.11.2017 04:32 -0,1 C 6,7 C 96 % 1028,3 hPa 0,0 l/m 0,1 km/h (0 Bft) W 279 0 min 0,000 mm 0,0 UV-I 0 W/m -0,7 C -0,1 C 1,6 km/h (1 Bft) 97,22 %
15.11.2017 04:34 0,0 C 6,7 C 96 % 1028,3 hPa 0,0 l/m 1,0 km/h (0 Bft) W 279 0 min 0,000 mm 0,0 UV-I 0 W/m -0,6 C 0,0 C 3,2 km/h (1 Bft) 97,87 %
15.11.2017 04:36 -0,1 C 6,7 C 96 % 1028,3 hPa 0,0 l/m 3,1 km/h (1 Bft) W 280 0 min 0,000 mm 0,0 UV-I 0 W/m -0,7 C -0,1 C 4,8 km/h (1 Bft) 98,11 %
15.11.2017 04:38 -0,1 C 6,7 C 96 % 1028,3 hPa 0,0 l/m 1,4 km/h (1 Bft) W 280 0 min 0,000 mm 0,0 UV-I 0 W/m -0,7 C -0,1 C 3,2 km/h (1 Bft) 96,00 %
15.11.2017 04:40 -0,1 C 6,7 C 96 % 1028,3 hPa 0,0 l/m 2,3 km/h (1 Bft) W 280 0 min 0,000 mm 0,0 UV-I 0 W/m -0,7 C -0,1 C 4,8 km/h (1 Bft) 97,37 %
15.11.2017 04:42 -0,1 C 6,7 C 96 % 1028,3 hPa 0,0 l/m 3,6 km/h (1 Bft) W-NW 283 0 min 0,000 mm 0,0 UV-I 0 W/m -0,7 C -0,1 C 6,4 km/h (2 Bft) 97,87 %
15.11.2017 04:44 -0,1 C 6,7 C 96 % 1028,3 hPa 0,0 l/m 4,1 km/h (1 Bft) W-NW 291 0 min 0,000 mm 0,0 UV-I 0 W/m -0,7 C -0,1 C 6,4 km/h (2 Bft) 96,23 %
15.11.2017 04:46 -0,1 C 6,7 C 96 % 1028,3 hPa 0,0 l/m 2,9 km/h (1 Bft) W-NW 293 0 min 0,000 mm 0,0 UV-I 0 W/m -0,7 C -0,1 C 4,8 km/h (1 Bft) 97,87 %
15.11.2017 04:48 -0,1 C 6,7 C 96 % 1028,3 hPa 0,0 l/m 1,6 km/h (1 Bft) W-NW 293 0 min 0,000 mm 0,0 UV-I 0 W/m -0,7 C -0,1 C 3,2 km/h (1 Bft) 97,56 %
15.11.2017 04:50 -0,1 C 6,7 C 96 % 1028,3 hPa 0,0 l/m 1,1 km/h (1 Bft) W-NW 293 0 min 0,000 mm 0,0 UV-I 0 W/m -0,7 C -0,1 C 3,2 km/h (1 Bft) 97,87 %
15.11.2017 04:52 -0,1 C 6,7 C 96 % 1028,3 hPa 0,0 l/m 0,3 km/h (0 Bft) W-NW 293 0 min 0,000 mm 0,0 UV-I 0 W/m -0,7 C -0,1 C 3,2 km/h (1 Bft) 94,64 %
15.11.2017 04:54 -0,1 C 6,7 C 96 % 1028,3 hPa 0,0 l/m 0,7 km/h (0 Bft) W-NW 293 0 min 0,000 mm 0,0 UV-I 0 W/m -0,7 C -0,1 C 1,6 km/h (1 Bft) 97,56 %
15.11.2017 04:56 -0,1 C 6,7 C 96 % 1028,3 hPa 0,0 l/m 0,0 km/h (0 Bft) W-NW 293 0 min 0,000 mm 0,0 UV-I 0 W/m -0,7 C -0,1 C 0,0 km/h (0 Bft) 98,00 %
15.11.2017 04:58 -0,1 C 6,7 C 96 % 1028,3 hPa 0,0 l/m 1,1 km/h (1 Bft) W-NW 293 0 min 0,000 mm 0,0 UV-I 0 W/m -0,7 C -0,1 C 3,2 km/h (1 Bft) 97,37 %
15.11.2017 05:00 -0,1 C 6,7 C 96 % 1028,3 hPa 0,0 l/m 1,4 km/h (1 Bft) W-NW 293 0 min 0,000 mm 0,0 UV-I 0 W/m -0,7 C -0,1 C 3,2 km/h (1 Bft) 98,21 %
15.11.2017 05:02 -0,1 C 6,7 C 96 % 1028,3 hPa 0,0 l/m 0,0 km/h (0 Bft) W-NW 293 0 min 0,000 mm 0,0 UV-I 0 W/m -0,7 C -0,1 C 1,6 km/h (1 Bft) 97,73 %
15.11.2017 05:04 0,0 C 6,7 C 96 % 1028,3 hPa 0,0 l/m 0,0 km/h (0 Bft) W-NW 293 0 min 0,000 mm 0,0 UV-I 0 W/m -0,6 C 0,0 C 0,0 km/h (0 Bft) 97,87 %
15.11.2017 05:06 0,0 C 6,7 C 96 % 1028,3 hPa 0,0 l/m 0,3 km/h (0 Bft) W-NW 294 0 min 0,000 mm 0,0 UV-I 0 W/m -0,6 C 0,0 C 1,6 km/h (1 Bft) 96,97 %
15.11.2017 05:08 0,0 C 6,7 C 96 % 1028,3 hPa 0,0 l/m 2,4 km/h (1 Bft) W-NW 293 0 min 0,000 mm 0,0 UV-I 0 W/m -0,6 C 0,0 C 4,8 km/h (1 Bft) 98,11 %
15.11.2017 05:10 0,0 C 6,7 C 96 % 1028,3 hPa 0,0 l/m 0,6 km/h (0 Bft) W-NW 293 0 min 0,000 mm 0,0 UV-I 0 W/m -0,6 C 0,0 C 3,2 km/h (1 Bft) 100,00 %
15.11.2017 05:12 0,0 C 6,7 C 96 % 1028,3 hPa 0,0 l/m 0,7 km/h (0 Bft) W-NW 293 0 min 0,000 mm 0,0 UV-I 0 W/m -0,6 C 0,0 C 3,2 km/h (1 Bft) 95,65 %
15.11.2017 05:14 0,0 C 6,7 C 96 % 1028,3 hPa 0,0 l/m 0,8 km/h (0 Bft) W-NW 294 0 min 0,000 mm 0,0 UV-I 0 W/m -0,6 C 0,0 C 3,2 km/h (1 Bft) 98,53 %
15.11.2017 05:16 0,0 C 6,7 C 96 % 1028,3 hPa 0,0 l/m 0,2 km/h (0 Bft) W-NW 294 0 min 0,000 mm 0,0 UV-I 0 W/m -0,6 C 0,0 C 1,6 km/h (1 Bft) 100,00 %
15.11.2017 05:18 0,0 C 6,7 C 96 % 1028,3 hPa 0,0 l/m 2,5 km/h (1 Bft) W-NW 294 0 min 0,000 mm 0,0 UV-I 0 W/m -0,6 C 0,0 C 4,8 km/h (1 Bft) 95,12 %
15.11.2017 05:20 0,0 C 6,7 C 96 % 1028,3 hPa 0,0 l/m 1,1 km/h (1 Bft) W-NW 293 0 min 0,000 mm 0,0 UV-I 0 W/m -0,6 C 0,0 C 3,2 km/h (1 Bft) 100,00 %
15.11.2017 05:22 -0,1 C 6,7 C 96 % 1028,3 hPa 0,0 l/m 4,7 km/h (1 Bft) W 269 0 min 0,000 mm 0,0 UV-I 0 W/m -0,7 C -0,1 C 4,8 km/h (1 Bft) 100,00 %
15.11.2017 05:24 -0,1 C 6,7 C 96 % 1028,3 hPa 0,0 l/m 3,4 km/h (1 Bft) W 269 0 min 0,000 mm 0,0 UV-I 0 W/m -0,7 C -0,1 C 4,8 km/h (1 Bft) 98,11 %
15.11.2017 05:26 -0,1 C 6,7 C 95 % 1028,3 hPa 0,0 l/m 1,4 km/h (1 Bft) W 269 0 min 0,000 mm 0,0 UV-I 0 W/m -0,8 C -0,1 C 3,2 km/h (1 Bft) 100,00 %
15.11.2017 05:28 -0,1 C 6,7 C 95 % 1028,3 hPa 0,0 l/m 2,3 km/h (1 Bft) W 269 0 min 0,000 mm 0,0 UV-I 0 W/m -0,8 C -0,1 C 3,2 km/h (1 Bft) 100,00 %
15.11.2017 05:30 -0,1 C 6,7 C 95 % 1028,3 hPa 0,0 l/m 0,4 km/h (0 Bft) W 269 0 min 0,000 mm 0,0 UV-I 0 W/m -0,8 C -0,1 C 1,6 km/h (1 Bft) 98,00 %
15.11.2017 05:32 -0,1 C 6,7 C 95 % 1028,3 hPa 0,0 l/m 0,6 km/h (0 Bft) W 269 0 min 0,000 mm 0,0 UV-I 0 W/m -0,8 C -0,1 C 1,6 km/h (1 Bft) 97,87 %
15.11.2017 05:34 -0,1 C 6,7 C 95 % 1028,3 hPa 0,0 l/m 0,3 km/h (0 Bft) W 269 0 min 0,000 mm 0,0 UV-I 0 W/m -0,8 C -0,1 C 1,6 km/h (1 Bft) 95,74 %
15.11.2017 05:36 0,0 C 6,7 C 95 % 1028,3 hPa 0,0 l/m 0,0 km/h (0 Bft) W 269 0 min 0,000 mm 0,0 UV-I 0 W/m -0,7 C 0,0 C 0,0 km/h (0 Bft) 100,00 %
15.11.2017 05:38 -0,1 C 6,7 C 95 % 1028,3 hPa 0,0 l/m 0,8 km/h (0 Bft) W 269 0 min 0,000 mm 0,0 UV-I 0 W/m -0,8 C -0,1 C 3,2 km/h (1 Bft) 100,00 %
15.11.2017 05:40 -0,1 C 6,7 C 95 % 1028,3 hPa 0,0 l/m 0,8 km/h (0 Bft) W 269 0 min 0,000 mm 0,0 UV-I 0 W/m -0,8 C -0,1 C 3,2 km/h (1 Bft) 100,00 %
15.11.2017 05:42 0,0 C 6,7 C 95 % 1028,3 hPa 0,0 l/m 0,6 km/h (0 Bft) W 269 0 min 0,000 mm 0,0 UV-I 0 W/m -0,7 C 0,0 C 1,6 km/h (1 Bft) 100,00 %
15.11.2017 05:44 0,1 C 6,7 C 95 % 1028,3 hPa 0,0 l/m 0,5 km/h (0 Bft) W 269 0 min 0,000 mm 0,0 UV-I 0 W/m -0,6 C 0,1 C 1,6 km/h (1 Bft) 98,00 %
15.11.2017 05:46 0,0 C 6,7 C 95 % 1028,3 hPa 0,0 l/m 0,8 km/h (0 Bft) W 269 0 min 0,000 mm 0,0 UV-I 0 W/m -0,7 C 0,0 C 3,2 km/h (1 Bft) 100,00 %
15.11.2017 05:48 0,0 C 6,7 C 95 % 1028,3 hPa 0,0 l/m 0,1 km/h (0 Bft) W 269 0 min 0,000 mm 0,0 UV-I 0 W/m -0,7 C 0,0 C 1,6 km/h (1 Bft) 97,44 %
15.11.2017 05:50 0,0 C 6,7 C 95 % 1028,4 hPa 0,0 l/m 0,1 km/h (0 Bft) W 269 0 min 0,000 mm 0,0 UV-I 0 W/m -0,7 C 0,0 C 1,6 km/h (1 Bft) 100,00 %
15.11.2017 05:52 0,1 C 6,7 C 95 % 1028,4 hPa 0,0 l/m 0,3 km/h (0 Bft) W 269 0 min 0,000 mm 0,0 UV-I 0 W/m -0,6 C 0,1 C 1,6 km/h (1 Bft) 100,00 %
15.11.2017 05:54 0,1 C 6,7 C 95 % 1028,5 hPa 0,0 l/m 0,3 km/h (0 Bft) W 269 0 min 0,000 mm 0,0 UV-I 0 W/m -0,6 C 0,1 C 3,2 km/h (1 Bft) 97,56 %
15.11.2017 05:56 0,1 C 6,7 C 95 % 1028,4 hPa 0,0 l/m 2,9 km/h (1 Bft) W 269 0 min 0,000 mm 0,0 UV-I 0 W/m -0,6 C 0,1 C 4,8 km/h (1 Bft) 97,73 %
15.11.2017 05:58 0,1 C 6,7 C 95 % 1028,4 hPa 0,0 l/m 1,1 km/h (1 Bft) W 269 0 min 0,000 mm 0,0 UV-I 0 W/m -0,6 C 0,1 C 3,2 km/h (1 Bft) 98,11 %
15.11.2017 06:00 0,0 C 6,7 C 95 % 1028,5 hPa 0,0 l/m 0,1 km/h (0 Bft) W 269 0 min 0,000 mm 0,0 UV-I 0 W/m -0,7 C 0,0 C 1,6 km/h (1 Bft) 100,00 %
15.11.2017 06:02 0,0 C 6,7 C 95 % 1028,4 hPa 0,0 l/m 1,1 km/h (1 Bft) W 269 0 min 0,000 mm 0,0 UV-I 0 W/m -0,7 C 0,0 C 3,2 km/h (1 Bft) 98,00 %
15.11.2017 06:04 0,0 C 6,7 C 95 % 1028,4 hPa 0,0 l/m 0,0 km/h (0 Bft) W 269 0 min 0,000 mm 0,0 UV-I 0 W/m -0,7 C 0,0 C 0,0 km/h (0 Bft) 100,00 %
15.11.2017 06:06 0,0 C 6,7 C 95 % 1028,4 hPa 0,0 l/m 1,8 km/h (1 Bft) W 269 0 min 0,000 mm 0,0 UV-I 0 W/m -0,7 C 0,0 C 4,8 km/h (1 Bft) 96,00 %
15.11.2017 06:08 0,0 C 6,7 C 95 % 1028,5 hPa 0,0 l/m 4,0 km/h (1 Bft) N-NO 25 0 min 0,000 mm 0,0 UV-I 0 W/m -0,7 C 0,0 C 4,8 km/h (1 Bft) 97,56 %
15.11.2017 06:10 0,0 C 6,7 C 95 % 1028,5 hPa 0,0 l/m 0,4 km/h (0 Bft) N-NO 25 0 min 0,000 mm 0,0 UV-I 0 W/m -0,7 C 0,0 C 1,6 km/h (1 Bft) 98,00 %
15.11.2017 06:12 0,0 C 6,7 C 95 % 1028,5 hPa 0,0 l/m 0,2 km/h (0 Bft) N-NO 25 0 min 0,000 mm 0,0 UV-I 0 W/m -0,7 C 0,0 C 1,6 km/h (1 Bft) 97,87 %
15.11.2017 06:14 0,0 C 6,7 C 95 % 1028,5 hPa 0,0 l/m 0,0 km/h (0 Bft) N-NO 25 0 min 0,000 mm 0,0 UV-I 0 W/m -0,7 C 0,0 C 0,0 km/h (0 Bft) 93,62 %
15.11.2017 06:16 0,0 C 6,7 C 95 % 1028,5 hPa 0,0 l/m 1,0 km/h (0 Bft) N-NO 25 0 min 0,000 mm 0,0 UV-I 0 W/m -0,7 C 0,0 C 3,2 km/h (1 Bft) 98,00 %
15.11.2017 06:18 0,0 C 6,7 C 95 % 1028,5 hPa 0,0 l/m 1,6 km/h (1 Bft) N-NO 25 0 min 0,000 mm 0,0 UV-I 0 W/m -0,7 C 0,0 C 3,2 km/h (1 Bft) 97,87 %
15.11.2017 06:20 0,0 C 6,7 C 95 % 1028,4 hPa 0,0 l/m 1,9 km/h (1 Bft) N-NO 25 0 min 0,000 mm 0,0 UV-I 0 W/m -0,7 C 0,0 C 4,8 km/h (1 Bft) 97,56 %
15.11.2017 06:22 0,0 C 6,7 C 95 % 1028,5 hPa 0,0 l/m 1,3 km/h (1 Bft) N-NO 25 0 min 0,000 mm 0,0 UV-I 0 W/m -0,7 C 0,0 C 3,2 km/h (1 Bft) 95,74 %
15.11.2017 06:24 -0,1 C 6,7 C 95 % 1028,4 hPa 0,0 l/m 0,2 km/h (0 Bft) N-NO 25 0 min 0,000 mm 0,0 UV-I 0 W/m -0,8 C -0,1 C 3,2 km/h (1 Bft) 94,87 %
15.11.2017 06:26 0,0 C 6,7 C 95 % 1028,5 hPa 0,0 l/m 2,6 km/h (1 Bft) N-NO 25 0 min 0,000 mm 0,0 UV-I 0 W/m -0,7 C 0,0 C 3,2 km/h (1 Bft) 97,73 %
15.11.2017 06:28 0,0 C 6,7 C 95 % 1028,5 hPa 0,0 l/m 2,7 km/h (1 Bft) N-NO 25 0 min 0,000 mm 0,0 UV-I 0 W/m -0,7 C 0,0 C 3,2 km/h (1 Bft) 96,88 %
15.11.2017 06:30 0,0 C 6,7 C 95 % 1028,4 hPa 0,0 l/m 1,9 km/h (1 Bft) N-NO 25 0 min 0,000 mm 0,0 UV-I 0 W/m -0,7 C 0,0 C 3,2 km/h (1 Bft) 97,44 %
15.11.2017 06:32 -0,1 C 6,7 C 95 % 1028,5 hPa 0,0 l/m 0,5 km/h (0 Bft) N-NO 25 0 min 0,000 mm 0,0 UV-I 0 W/m -0,8 C -0,1 C 1,6 km/h (1 Bft) 98,00 %
15.11.2017 06:34 -0,1 C 6,7 C 95 % 1028,5 hPa 0,0 l/m 1,3 km/h (1 Bft) N-NO 25 0 min 0,000 mm 0,0 UV-I 0 W/m -0,8 C -0,1 C 3,2 km/h (1 Bft) 91,49 %
15.11.2017 06:36 -0,1 C 6,7 C 95 % 1028,5 hPa 0,0 l/m 1,4 km/h (1 Bft) N-NO 25 0 min 0,000 mm 0,0 UV-I 0 W/m -0,8 C -0,1 C 3,2 km/h (1 Bft) 91,49 %
15.11.2017 06:38 -0,1 C 6,7 C 95 % 1028,5 hPa 0,0 l/m 3,4 km/h (1 Bft) N-NO 25 0 min 0,000 mm 0,0 UV-I 0 W/m -0,8 C -0,1 C 6,4 km/h (2 Bft) 95,74 %
15.11.2017 06:40 0,0 C 6,1 C 95 % 1028,4 hPa 0,0 l/m 1,4 km/h (1 Bft) N-NO 25 0 min 0,000 mm 0,0 UV-I 0 W/m -0,7 C 0,0 C 4,8 km/h (1 Bft) 96,00 %
15.11.2017 06:42 0,1 C 6,7 C 95 % 1028,6 hPa 0,0 l/m 0,3 km/h (0 Bft) N-NO 25 0 min 0,000 mm 0,0 UV-I 0 W/m -0,6 C 0,1 C 1,6 km/h (1 Bft) 95,74 %
15.11.2017 06:44 0,0 C 6,1 C 95 % 1028,6 hPa 0,0 l/m 0,0 km/h (0 Bft) N-NO 25 0 min 0,000 mm 0,0 UV-I 0 W/m -0,7 C 0,0 C 0,0 km/h (0 Bft) 95,12 %
15.11.2017 06:46 0,0 C 6,1 C 95 % 1028,6 hPa 0,0 l/m 1,4 km/h (1 Bft) N-NO 25 0 min 0,000 mm 0,0 UV-I 0 W/m -0,7 C 0,0 C 3,2 km/h (1 Bft) 92,00 %
15.11.2017 06:48 0,0 C 6,1 C 95 % 1028,7 hPa 0,0 l/m 0,1 km/h (0 Bft) N-NO 25 0 min 0,000 mm 0,0 UV-I 0 W/m -0,7 C 0,0 C 1,6 km/h (1 Bft) 95,74 %
15.11.2017 06:50 0,0 C 6,1 C 95 % 1028,6 hPa 0,0 l/m 0,0 km/h (0 Bft) N-NO 25 0 min 0,000 mm 0,0 UV-I 0 W/m -0,7 C 0,0 C 0,0 km/h (0 Bft) 96,00 %
15.11.2017 06:52 0,0 C 6,1 C 95 % 1028,7 hPa 0,0 l/m 0,7 km/h (0 Bft) N-NO 25 0 min 0,000 mm 0,0 UV-I 0 W/m -0,7 C 0,0 C 3,2 km/h (1 Bft) 95,74 %
15.11.2017 06:54 0,0 C 6,1 C 95 % 1028,8 hPa 0,0 l/m 1,0 km/h (0 Bft) N-NO 25 0 min 0,000 mm 0,0 UV-I 0 W/m -0,7 C 0,0 C 3,2 km/h (1 Bft) 92,11 %
15.11.2017 06:56 0,0 C 6,1 C 95 % 1028,8 hPa 0,0 l/m 0,3 km/h (0 Bft) N-NO 25 0 min 0,000 mm 0,0 UV-I 0 W/m -0,7 C 0,0 C 1,6 km/h (1 Bft) 94,00 %
15.11.2017 06:58 0,0 C 6,1 C 95 % 1028,8 hPa 0,0 l/m 0,2 km/h (0 Bft) N-NO 25 0 min 0,000 mm 0,0 UV-I 0 W/m -0,7 C 0,0 C 1,6 km/h (1 Bft) 94,34 %
15.11.2017 07:00 0,0 C 6,1 C 95 % 1028,8 hPa 0,0 l/m 2,1 km/h (1 Bft) N 360 0 min 0,000 mm 0,0 UV-I 0 W/m -0,7 C 0,0 C 4,8 km/h (1 Bft) 97,37 %
15.11.2017 07:02 -0,1 C 6,1 C 95 % 1028,8 hPa 0,0 l/m 1,4 km/h (1 Bft) N 360 0 min 0,000 mm 0,0 UV-I 0 W/m -0,8 C -0,1 C 4,8 km/h (1 Bft) 89,36 %
15.11.2017 07:04 -0,1 C 6,1 C 95 % 1028,8 hPa 0,0 l/m 1,8 km/h (1 Bft) N 355 0 min 0,000 mm 0,0 UV-I 0 W/m -0,8 C -0,1 C 3,2 km/h (1 Bft) 94,00 %
15.11.2017 07:06 -0,1 C 6,1 C 95 % 1028,8 hPa 0,0 l/m 2,9 km/h (1 Bft) W-NW 302 0 min 0,000 mm 0,0 UV-I 0 W/m -0,8 C -0,1 C 4,8 km/h (1 Bft) 98,11 %
15.11.2017 07:08 -0,1 C 6,1 C 95 % 1028,8 hPa 0,0 l/m 0,9 km/h (0 Bft) W-NW 302 0 min 0,000 mm 0,0 UV-I 0 W/m -0,8 C -0,1 C 1,6 km/h (1 Bft) 100,00 %
15.11.2017 07:10 -0,1 C 6,1 C 95 % 1028,8 hPa 0,0 l/m 0,1 km/h (0 Bft) W-NW 302 0 min 0,000 mm 0,0 UV-I 3 W/m -0,8 C -0,1 C 1,6 km/h (1 Bft) 97,87 %
15.11.2017 07:12 0,0 C 6,1 C 95 % 1028,8 hPa 0,0 l/m 0,6 km/h (0 Bft) W-NW 302 0 min 0,000 mm 0,0 UV-I 5 W/m -0,7 C 0,0 C 1,6 km/h (1 Bft) 100,00 %
15.11.2017 07:14 -0,1 C 6,1 C 95 % 1028,8 hPa 0,0 l/m 0,0 km/h (0 Bft) W-NW 302 0 min 0,000 mm 0,0 UV-I 5 W/m -0,8 C -0,1 C 0,0 km/h (0 Bft) 98,11 %
15.11.2017 07:16 0,0 C 6,1 C 95 % 1028,8 hPa 0,0 l/m 0,3 km/h (0 Bft) W-NW 302 0 min 0,000 mm 0,0 UV-I 5 W/m -0,7 C 0,0 C 1,6 km/h (1 Bft) 91,67 %
15.11.2017 07:18 0,0 C 6,1 C 95 % 1028,9 hPa 0,0 l/m 0,2 km/h (0 Bft) W-NW 302 0 min 0,000 mm 0,0 UV-I 5 W/m -0,7 C 0,0 C 1,6 km/h (1 Bft) 100,00 %
15.11.2017 07:20 -0,1 C 6,1 C 95 % 1028,9 hPa 0,0 l/m 0,7 km/h (0 Bft) W-NW 302 0 min 0,000 mm 0,0 UV-I 5 W/m -0,8 C -0,1 C 3,2 km/h (1 Bft) 100,00 %
15.11.2017 07:22 -0,1 C 6,1 C 95 % 1028,9 hPa 0,0 l/m 0,1 km/h (0 Bft) W-NW 302 0 min 0,000 mm 0,0 UV-I 5 W/m -0,8 C -0,1 C 1,6 km/h (1 Bft) 100,00 %
15.11.2017 07:24 -0,1 C 6,1 C 95 % 1029,0 hPa 0,0 l/m 0,9 km/h (0 Bft) W-NW 302 0 min 0,000 mm 0,0 UV-I 7 W/m -0,8 C -0,1 C 3,2 km/h (1 Bft) 100,00 %
15.11.2017 07:26 -0,1 C 6,1 C 95 % 1028,9 hPa 0,0 l/m 0,3 km/h (0 Bft) W-NW 302 0 min 0,000 mm 0,0 UV-I 7 W/m -0,8 C -0,1 C 1,6 km/h (1 Bft) 100,00 %
15.11.2017 07:28 -0,1 C 6,1 C 95 % 1028,9 hPa 0,0 l/m 1,5 km/h (1 Bft) W-NW 302 0 min 0,000 mm 0,0 UV-I 7 W/m -0,8 C -0,1 C 3,2 km/h (1 Bft) 100,00 %
15.11.2017 07:30 -0,1 C 6,1 C 95 % 1028,9 hPa 0,0 l/m 0,2 km/h (0 Bft) W-NW 302 0 min 0,000 mm 0,0 UV-I 7 W/m -0,8 C -0,1 C 1,6 km/h (1 Bft) 100,00 %
15.11.2017 07:32 -0,1 C 6,1 C 95 % 1028,9 hPa 0,0 l/m 0,3 km/h (0 Bft) W-NW 302 0 min 0,000 mm 0,0 UV-I 7 W/m -0,8 C -0,1 C 1,6 km/h (1 Bft) 100,00 %
15.11.2017 07:34 -0,1 C 6,1 C 95 % 1029,0 hPa 0,0 l/m 0,0 km/h (0 Bft) W-NW 302 0 min 0,000 mm 0,0 UV-I 7 W/m -0,8 C -0,1 C 0,0 km/h (0 Bft) 95,74 %
15.11.2017 07:36 -0,1 C 6,1 C 95 % 1029,0 hPa 0,0 l/m 0,0 km/h (0 Bft) W-NW 302 0 min 0,000 mm 0,0 UV-I 7 W/m -0,8 C -0,1 C 0,0 km/h (0 Bft) 100,00 %
15.11.2017 07:38 0,0 C 6,1 C 95 % 1029,0 hPa 0,0 l/m 0,0 km/h (0 Bft) W-NW 302 0 min 0,000 mm 0,0 UV-I 9 W/m -0,7 C 0,0 C 0,0 km/h (0 Bft) 97,87 %
15.11.2017 07:40 0,0 C 6,1 C 95 % 1029,0 hPa 0,0 l/m 0,0 km/h (0 Bft) W-NW 302 0 min 0,000 mm 0,0 UV-I 9 W/m -0,7 C 0,0 C 0,0 km/h (0 Bft) 100,00 %
15.11.2017 07:42 0,0 C 6,1 C 95 % 1029,1 hPa 0,0 l/m 0,4 km/h (0 Bft) W-NW 302 0 min 0,000 mm 0,0 UV-I 11 W/m -0,7 C 0,0 C 3,2 km/h (1 Bft) 100,00 %
15.11.2017 07:44 0,0 C 6,1 C 95 % 1029,1 hPa 0,0 l/m 0,2 km/h (0 Bft) W-NW 302 0 min 0,000 mm 0,0 UV-I 11 W/m -0,7 C 0,0 C 1,6 km/h (1 Bft) 100,00 %
15.11.2017 07:46 0,0 C 6,1 C 95 % 1029,1 hPa 0,0 l/m 0,3 km/h (0 Bft) W-NW 302 0 min 0,000 mm 0,0 UV-I 11 W/m -0,7 C 0,0 C 1,6 km/h (1 Bft) 100,00 %
15.11.2017 07:48 0,0 C 6,1 C 95 % 1029,1 hPa 0,0 l/m 0,0 km/h (0 Bft) W-NW 302 0 min 0,000 mm 0,0 UV-I 12 W/m -0,7 C 0,0 C 0,0 km/h (0 Bft) 100,00 %
15.11.2017 07:50 0,0 C 6,1 C 95 % 1029,1 hPa 0,0 l/m 0,9 km/h (0 Bft) N 350 0 min 0,000 mm 0,0 UV-I 12 W/m -0,7 C 0,0 C 3,2 km/h (1 Bft) 100,00 %
15.11.2017 07:52 -0,1 C 6,1 C 95 % 1029,1 hPa 0,0 l/m 1,6 km/h (1 Bft) N 350 0 min 0,000 mm 0,0 UV-I 12 W/m -0,8 C -0,1 C 3,2 km/h (1 Bft) 100,00 %
15.11.2017 07:54 -0,1 C 6,1 C 95 % 1029,1 hPa 0,0 l/m 0,8 km/h (0 Bft) N 350 0 min 0,000 mm 0,0 UV-I 14 W/m -0,8 C -0,1 C 3,2 km/h (1 Bft) 98,00 %
15.11.2017 07:56 -0,1 C 6,1 C 95 % 1029,1 hPa 0,0 l/m 1,0 km/h (0 Bft) N 350 0 min 0,000 mm 0,0 UV-I 13 W/m -0,8 C -0,1 C 3,2 km/h (1 Bft) 98,11 %
15.11.2017 07:58 -0,1 C 6,1 C 95 % 1029,1 hPa 0,0 l/m 3,9 km/h (1 Bft) N 350 0 min 0,000 mm 0,0 UV-I 12 W/m -0,8 C -0,1 C 6,4 km/h (2 Bft) 97,87 %
15.11.2017 08:00 -0,1 C 6,1 C 95 % 1029,1 hPa 0,0 l/m 3,2 km/h (1 Bft) N 350 0 min 0,000 mm 0,0 UV-I 13 W/m -0,8 C -0,1 C 4,8 km/h (1 Bft) 100,00 %
15.11.2017 08:02 -0,1 C 6,1 C 95 % 1029,1 hPa 0,0 l/m 2,1 km/h (1 Bft) N 350 0 min 0,000 mm 0,0 UV-I 13 W/m -0,8 C -0,1 C 3,2 km/h (1 Bft) 100,00 %
15.11.2017 08:04 -0,1 C 6,1 C 95 % 1029,2 hPa 0,0 l/m 2,0 km/h (1 Bft) N 350 0 min 0,000 mm 0,0 UV-I 12 W/m -0,8 C -0,1 C 3,2 km/h (1 Bft) 98,00 %
15.11.2017 08:06 0,0 C 6,1 C 95 % 1029,1 hPa 0,0 l/m 2,1 km/h (1 Bft) N 350 0 min 0,000 mm 0,0 UV-I 14 W/m -0,7 C 0,0 C 4,8 km/h (1 Bft) 100,00 %
15.11.2017 08:08 -0,1 C 6,1 C 95 % 1029,1 hPa 0,0 l/m 2,3 km/h (1 Bft) N 350 0 min 0,000 mm 0,0 UV-I 14 W/m -0,8 C -0,1 C 4,8 km/h (1 Bft) 100,00 %
15.11.2017 08:10 0,0 C 6,1 C 95 % 1029,1 hPa 0,0 l/m 2,0 km/h (1 Bft) N 350 0 min 0,000 mm 0,0 UV-I 16 W/m -0,7 C 0,0 C 3,2 km/h (1 Bft) 100,00 %
15.11.2017 08:12 -0,1 C 6,1 C 95 % 1029,2 hPa 0,0 l/m 0,4 km/h (0 Bft) N 350 0 min 0,000 mm 0,0 UV-I 16 W/m -0,8 C -0,1 C 3,2 km/h (1 Bft) 98,00 %
15.11.2017 08:14 -0,1 C 6,1 C 95 % 1029,2 hPa 0,0 l/m 0,6 km/h (0 Bft) N 350 0 min 0,000 mm 0,0 UV-I 18 W/m -0,8 C -0,1 C 3,2 km/h (1 Bft) 100,00 %
15.11.2017 08:16 -0,1 C 6,1 C 95 % 1029,2 hPa 0,0 l/m 2,9 km/h (1 Bft) N 350 0 min 0,000 mm 0,0 UV-I 18 W/m -0,8 C -0,1 C 4,8 km/h (1 Bft) 100,00 %
15.11.2017 08:18 -0,2 C 6,1 C 95 % 1029,2 hPa 0,0 l/m 1,4 km/h (1 Bft) N 350 0 min 0,000 mm 0,0 UV-I 19 W/m -0,9 C -0,2 C 3,2 km/h (1 Bft) 100,00 %
15.11.2017 08:20 -0,2 C 6,1 C 95 % 1029,2 hPa 0,0 l/m 0,5 km/h (0 Bft) N 350 0 min 0,000 mm 0,0 UV-I 19 W/m -0,9 C -0,2 C 3,2 km/h (1 Bft) 100,00 %
15.11.2017 08:22 -0,2 C 6,1 C 95 % 1029,3 hPa 0,0 l/m 0,1 km/h (0 Bft) N 350 0 min 0,000 mm 0,0 UV-I 21 W/m -0,9 C -0,2 C 1,6 km/h (1 Bft) 96,00 %
15.11.2017 08:24 -0,2 C 6,1 C 95 % 1029,3 hPa 0,0 l/m 0,3 km/h (0 Bft) N 350 0 min 0,000 mm 0,0 UV-I 22 W/m -0,9 C -0,2 C 1,6 km/h (1 Bft) 100,00 %
15.11.2017 08:26 -0,2 C 6,1 C 94 % 1029,3 hPa 0,0 l/m 0,3 km/h (0 Bft) N 350 0 min 0,000 mm 0,0 UV-I 24 W/m -1,0 C -0,2 C 1,6 km/h (1 Bft) 100,00 %
15.11.2017 08:28 -0,1 C 6,1 C 95 % 1029,3 hPa 0,0 l/m 0,0 km/h (0 Bft) N 350 0 min 0,000 mm 0,0 UV-I 26 W/m -0,8 C -0,1 C 0,0 km/h (0 Bft) 98,00 %
15.11.2017 08:30 -0,1 C 6,1 C 95 % 1029,3 hPa 0,0 l/m 0,0 km/h (0 Bft) N 350 0 min 0,000 mm 0,0 UV-I 26 W/m -0,8 C -0,1 C 0,0 km/h (0 Bft) 100,00 %
15.11.2017 08:32 0,1 C 6,1 C 95 % 1029,3 hPa 0,0 l/m 0,9 km/h (0 Bft) N 350 0 min 0,000 mm 0,0 UV-I 27 W/m -0,6 C 0,1 C 3,2 km/h (1 Bft) 100,00 %
15.11.2017 08:34 0,0 C 6,1 C 94 % 1029,3 hPa 0,0 l/m 0,5 km/h (0 Bft) N 350 0 min 0,000 mm 0,0 UV-I 29 W/m -0,8 C 0,0 C 3,2 km/h (1 Bft) 100,00 %
15.11.2017 08:36 0,0 C 6,1 C 94 % 1029,3 hPa 0,0 l/m 2,0 km/h (1 Bft) N 350 0 min 0,000 mm 0,0 UV-I 30 W/m -0,8 C 0,0 C 3,2 km/h (1 Bft) 98,11 %
15.11.2017 08:38 0,1 C 6,1 C 95 % 1029,4 hPa 0,0 l/m 0,9 km/h (0 Bft) N 350 0 min 0,000 mm 0,0 UV-I 30 W/m -0,6 C 0,1 C 3,2 km/h (1 Bft) 97,73 %
15.11.2017 08:40 0,0 C 6,1 C 94 % 1029,4 hPa 0,0 l/m 0,6 km/h (0 Bft) N 350 0 min 0,000 mm 0,0 UV-I 32 W/m -0,8 C 0,0 C 3,2 km/h (1 Bft) 98,00 %
15.11.2017 08:42 0,0 C 6,1 C 94 % 1029,3 hPa 0,0 l/m 1,6 km/h (1 Bft) N 350 0 min 0,000 mm 0,0 UV-I 32 W/m -0,8 C 0,0 C 3,2 km/h (1 Bft) 97,73 %
15.11.2017 08:44 0,0 C 6,1 C 94 % 1029,3 hPa 0,0 l/m 2,5 km/h (1 Bft) O 98 0 min 0,000 mm 0,0 UV-I 33 W/m -0,8 C 0,0 C 4,8 km/h (1 Bft) 97,56 %
15.11.2017 08:46 0,1 C 6,1 C 94 % 1029,3 hPa 0,0 l/m 1,9 km/h (1 Bft) O 98 0 min 0,000 mm 0,0 UV-I 34 W/m -0,7 C 0,1 C 4,8 km/h (1 Bft) 96,23 %
15.11.2017 08:48 0,1 C 6,1 C 94 % 1029,3 hPa 0,0 l/m 1,2 km/h (1 Bft) SO 140 0 min 0,000 mm 0,0 UV-I 35 W/m -0,7 C 0,1 C 4,8 km/h (1 Bft) 97,56 %
15.11.2017 08:50 0,1 C 6,1 C 94 % 1029,2 hPa 0,0 l/m 1,4 km/h (1 Bft) SO 140 0 min 0,000 mm 0,0 UV-I 38 W/m -0,7 C 0,1 C 4,8 km/h (1 Bft) 98,00 %
15.11.2017 08:52 0,0 C 6,1 C 94 % 1029,2 hPa 0,0 l/m 3,7 km/h (1 Bft) S 186 0 min 0,000 mm 0,0 UV-I 42 W/m -0,8 C 0,0 C 6,4 km/h (2 Bft) 97,87 %
15.11.2017 08:54 0,1 C 6,1 C 94 % 1029,2 hPa 0,0 l/m 5,0 km/h (1 Bft) S-SW 207 0 min 0,000 mm 0,0 UV-I 46 W/m -0,7 C 0,1 C 9,7 km/h (2 Bft) 97,73 %
15.11.2017 08:56 0,0 C 6,1 C 93 % 1029,2 hPa 0,0 l/m 1,1 km/h (1 Bft) S-SW 207 0 min 0,000 mm 0,0 UV-I 46 W/m -1,0 C 0,0 C 4,8 km/h (1 Bft) 98,11 %
15.11.2017 08:58 -0,1 C 6,1 C 93 % 1029,2 hPa 0,0 l/m 0,1 km/h (0 Bft) S-SW 207 0 min 0,000 mm 0,0 UV-I 46 W/m -1,1 C -0,1 C 1,6 km/h (1 Bft) 97,87 %
15.11.2017 09:00 -0,1 C 6,1 C 93 % 1029,2 hPa 0,0 l/m 0,7 km/h (0 Bft) S-SW 207 0 min 0,000 mm 0,0 UV-I 46 W/m -1,1 C -0,1 C 1,6 km/h (1 Bft) 94,74 %
15.11.2017 09:02 -0,1 C 6,1 C 93 % 1029,2 hPa 0,0 l/m 2,4 km/h (1 Bft) S-SW 207 0 min 0,000 mm 0,0 UV-I 47 W/m -1,1 C -0,1 C 3,2 km/h (1 Bft) 96,23 %
15.11.2017 09:04 0,1 C 6,1 C 94 % 1029,2 hPa 0,0 l/m 1,9 km/h (1 Bft) S-SW 207 0 min 0,000 mm 0,0 UV-I 47 W/m -0,7 C 0,1 C 3,2 km/h (1 Bft) 98,00 %
15.11.2017 09:06 -0,1 C 6,1 C 93 % 1029,3 hPa 0,0 l/m 1,0 km/h (0 Bft) S-SW 207 0 min 0,000 mm 0,0 UV-I 47 W/m -1,1 C -0,1 C 3,2 km/h (1 Bft) 97,44 %
15.11.2017 09:08 -0,1 C 6,1 C 93 % 1029,3 hPa 0,0 l/m 0,1 km/h (0 Bft) S-SW 207 0 min 0,000 mm 0,0 UV-I 48 W/m -1,1 C -0,1 C 1,6 km/h (1 Bft) 98,18 %
15.11.2017 09:10 -0,1 C 6,1 C 93 % 1029,4 hPa 0,0 l/m 3,2 km/h (1 Bft) SO 124 0 min 0,000 mm 0,0 UV-I 49 W/m -1,1 C -0,1 C 6,4 km/h (2 Bft) 97,87 %
15.11.2017 09:12 0,0 C 6,1 C 93 % 1029,4 hPa 0,0 l/m 3,3 km/h (1 Bft) SO 124 0 min 0,000 mm 0,0 UV-I 50 W/m -1,0 C 0,0 C 6,4 km/h (2 Bft) 100,00 %
15.11.2017 09:14 0,1 C 6,1 C 93 % 1029,4 hPa 0,0 l/m 3,3 km/h (1 Bft) SO 124 0 min 0,000 mm 0,0 UV-I 53 W/m -0,9 C 0,1 C 4,8 km/h (1 Bft) 98,00 %
15.11.2017 09:16 0,1 C 6,1 C 93 % 1029,4 hPa 0,0 l/m 1,9 km/h (1 Bft) SO 124 0 min 0,000 mm 0,0 UV-I 54 W/m -0,9 C 0,1 C 4,8 km/h (1 Bft) 100,00 %
15.11.2017 09:18 0,0 C 6,1 C 93 % 1029,4 hPa 0,0 l/m 1,6 km/h (1 Bft) SO 124 0 min 0,000 mm 0,0 UV-I 56 W/m -1,0 C 0,0 C 4,8 km/h (1 Bft) 100,00 %
15.11.2017 09:20 0,1 C 6,1 C 93 % 1029,4 hPa 0,0 l/m 2,7 km/h (1 Bft) O-SO 123 0 min 0,000 mm 0,0 UV-I 56 W/m -0,9 C 0,1 C 4,8 km/h (1 Bft) 100,00 %
15.11.2017 09:22 0,1 C 6,1 C 93 % 1029,4 hPa 0,0 l/m 2,9 km/h (1 Bft) O-SO 123 0 min 0,000 mm 0,0 UV-I 58 W/m -0,9 C 0,1 C 6,4 km/h (2 Bft) 100,00 %
15.11.2017 09:24 0,2 C 6,1 C 93 % 1029,4 hPa 0,0 l/m 2,2 km/h (1 Bft) O-SO 123 0 min 0,000 mm 0,0 UV-I 62 W/m -0,8 C 0,2 C 4,8 km/h (1 Bft) 96,00 %
15.11.2017 09:26 0,2 C 6,1 C 93 % 1029,5 hPa 0,0 l/m 2,2 km/h (1 Bft) O-SO 123 0 min 0,000 mm 0,0 UV-I 66 W/m -0,8 C 0,2 C 3,2 km/h (1 Bft) 97,73 %
15.11.2017 09:28 0,2 C 6,1 C 93 % 1029,5 hPa 0,0 l/m 2,6 km/h (1 Bft) O 81 0 min 0,000 mm 0,0 UV-I 66 W/m -0,8 C 0,2 C 6,4 km/h (2 Bft) 98,00 %
15.11.2017 09:30 0,2 C 6,1 C 92 % 1029,5 hPa 0,0 l/m 0,1 km/h (0 Bft) O 81 0 min 0,000 mm 0,0 UV-I 67 W/m -0,9 C 0,2 C 1,6 km/h (1 Bft) 98,00 %
15.11.2017 09:32 0,2 C 6,1 C 93 % 1029,4 hPa 0,0 l/m 4,8 km/h (1 Bft) O 94 0 min 0,000 mm 0,0 UV-I 68 W/m -0,8 C 0,2 C 9,7 km/h (2 Bft) 97,56 %
15.11.2017 09:34 0,3 C 6,1 C 92 % 1029,4 hPa 0,0 l/m 5,5 km/h (1 Bft) O 91 0 min 0,000 mm 0,0 UV-I 68 W/m -0,8 C 0,3 C 9,7 km/h (2 Bft) 98,00 %
15.11.2017 09:36 0,2 C 6,1 C 92 % 1029,4 hPa 0,0 l/m 4,4 km/h (1 Bft) O 92 0 min 0,000 mm 0,0 UV-I 67 W/m -0,9 C 0,2 C 6,4 km/h (2 Bft) 97,37 %
15.11.2017 09:38 0,2 C 6,1 C 92 % 1029,4 hPa 0,0 l/m 3,7 km/h (1 Bft) O-SO 108 0 min 0,000 mm 0,0 UV-I 68 W/m -0,9 C 0,2 C 9,7 km/h (2 Bft) 98,00 %
15.11.2017 09:40 0,2 C 6,1 C 92 % 1029,3 hPa 0,0 l/m 1,8 km/h (1 Bft) O-SO 108 0 min 0,000 mm 0,0 UV-I 69 W/m -0,9 C 0,2 C 4,8 km/h (1 Bft) 98,00 %
15.11.2017 09:42 0,2 C 6,1 C 92 % 1029,3 hPa 0,0 l/m 2,2 km/h (1 Bft) O-SO 108 0 min 0,000 mm 0,0 UV-I 74 W/m -0,9 C 0,2 C 4,8 km/h (1 Bft) 97,56 %
15.11.2017 09:44 0,3 C 6,1 C 92 % 1029,3 hPa 0,0 l/m 0,4 km/h (0 Bft) O-SO 108 0 min 0,000 mm 0,0 UV-I 76 W/m -0,8 C 0,3 C 1,6 km/h (1 Bft) 98,11 %
15.11.2017 09:46 0,3 C 6,1 C 92 % 1029,3 hPa 0,0 l/m 0,0 km/h (0 Bft) O-SO 108 0 min 0,000 mm 0,0 UV-I 73 W/m -0,8 C 0,3 C 1,6 km/h (1 Bft) 93,62 %
15.11.2017 09:48 0,3 C 6,1 C 92 % 1029,3 hPa 0,0 l/m 0,0 km/h (0 Bft) O-SO 108 0 min 0,000 mm 0,0 UV-I 71 W/m -0,8 C 0,3 C 0,0 km/h (0 Bft) 97,92 %
15.11.2017 09:50 0,3 C 6,1 C 92 % 1029,3 hPa 0,0 l/m 3,6 km/h (1 Bft) SW 229 0 min 0,000 mm 0,0 UV-I 71 W/m -0,8 C 0,3 C 6,4 km/h (2 Bft) 95,12 %
15.11.2017 09:52 0,3 C 6,1 C 92 % 1029,4 hPa 0,0 l/m 4,7 km/h (1 Bft) SW 231 0 min 0,000 mm 0,0 UV-I 73 W/m -0,8 C 0,3 C 6,4 km/h (2 Bft) 95,74 %
15.11.2017 09:54 0,3 C 6,1 C 92 % 1029,4 hPa 0,0 l/m 4,3 km/h (1 Bft) SW 230 0 min 0,000 mm 0,0 UV-I 74 W/m -0,8 C 0,3 C 6,4 km/h (2 Bft) 94,00 %
15.11.2017 09:56 0,2 C 6,1 C 92 % 1029,3 hPa 0,0 l/m 2,1 km/h (1 Bft) SW 232 0 min 0,000 mm 0,0 UV-I 72 W/m -0,9 C 0,2 C 4,8 km/h (1 Bft) 95,45 %
15.11.2017 09:58 0,2 C 6,1 C 92 % 1029,3 hPa 0,0 l/m 1,1 km/h (1 Bft) SW 232 0 min 0,000 mm 0,0 UV-I 70 W/m -0,9 C 0,2 C 3,2 km/h (1 Bft) 98,00 %
15.11.2017 10:00 0,2 C 6,1 C 92 % 1029,3 hPa 0,0 l/m 2,5 km/h (1 Bft) SW 232 0 min 0,025 mm 0,0 UV-I 72 W/m -0,9 C 0,2 C 4,8 km/h (1 Bft) 97,87 %
15.11.2017 10:02 0,3 C 6,1 C 92 % 1029,4 hPa 0,0 l/m 3,6 km/h (1 Bft) SW 232 0 min 0,000 mm 0,0 UV-I 77 W/m -0,8 C 0,3 C 4,8 km/h (1 Bft) 97,87 %
15.11.2017 10:04 0,4 C 6,1 C 92 % 1029,4 hPa 0,0 l/m 5,5 km/h (1 Bft) NO 51 0 min 0,000 mm 0,0 UV-I 78 W/m -0,7 C 0,4 C 8,0 km/h (2 Bft) 97,87 %
15.11.2017 10:06 0,3 C 6,1 C 92 % 1029,4 hPa 0,0 l/m 4,0 km/h (1 Bft) NO 51 0 min 0,000 mm 0,0 UV-I 77 W/m -0,8 C 0,3 C 6,4 km/h (2 Bft) 95,74 %
15.11.2017 10:08 0,4 C 6,1 C 92 % 1029,4 hPa 0,0 l/m 5,0 km/h (1 Bft) NO 50 0 min 0,000 mm 0,0 UV-I 80 W/m -0,7 C 0,4 C 8,0 km/h (2 Bft) 94,74 %
15.11.2017 10:10 0,4 C 6,1 C 92 % 1029,4 hPa 0,0 l/m 3,4 km/h (1 Bft) NO 50 0 min 0,000 mm 0,0 UV-I 84 W/m -0,7 C 0,4 C 4,8 km/h (1 Bft) 98,00 %
15.11.2017 10:12 0,3 C 6,1 C 92 % 1029,4 hPa 0,0 l/m 3,8 km/h (1 Bft) NO 50 0 min 0,000 mm 0,0 UV-I 91 W/m -0,8 C 0,3 C 4,8 km/h (1 Bft) 94,34 %
15.11.2017 10:14 0,4 C 6,1 C 92 % 1029,4 hPa 0,0 l/m 4,6 km/h (1 Bft) NO 50 0 min 0,000 mm 0,0 UV-I 93 W/m -0,7 C 0,4 C 6,4 km/h (2 Bft) 98,00 %
15.11.2017 10:16 0,3 C 6,1 C 92 % 1029,5 hPa 0,0 l/m 3,3 km/h (1 Bft) NO 50 0 min 0,000 mm 0,0 UV-I 88 W/m -0,8 C 0,3 C 4,8 km/h (1 Bft) 97,87 %
15.11.2017 10:18 0,3 C 6,1 C 92 % 1029,5 hPa 0,0 l/m 2,9 km/h (1 Bft) NO 50 0 min 0,000 mm 0,0 UV-I 89 W/m -0,8 C 0,3 C 4,8 km/h (1 Bft) 97,56 %
15.11.2017 10:20 0,3 C 6,1 C 92 % 1029,5 hPa 0,0 l/m 0,1 km/h (0 Bft) NO 50 0 min 0,000 mm 0,0 UV-I 87 W/m -0,8 C 0,3 C 1,6 km/h (1 Bft) 97,87 %
15.11.2017 10:22 0,3 C 6,1 C 92 % 1029,5 hPa 0,0 l/m 0,7 km/h (0 Bft) NO 50 0 min 0,000 mm 0,0 UV-I 85 W/m -0,8 C 0,3 C 1,6 km/h (1 Bft) 94,44 %
15.11.2017 10:24 0,4 C 6,1 C 92 % 1029,4 hPa 0,0 l/m 1,6 km/h (1 Bft) NO 50 0 min 0,000 mm 0,0 UV-I 85 W/m -0,7 C 0,4 C 4,8 km/h (1 Bft) 98,28 %
15.11.2017 10:26 0,4 C 6,1 C 92 % 1029,4 hPa 0,0 l/m 5,4 km/h (1 Bft) NO 39 0 min 0,000 mm 0,0 UV-I 88 W/m -0,7 C 0,4 C 9,7 km/h (2 Bft) 98,00 %
15.11.2017 10:28 0,5 C 6,1 C 92 % 1029,3 hPa 0,0 l/m 4,0 km/h (1 Bft) NO 39 0 min 0,000 mm 0,0 UV-I 91 W/m -0,6 C 0,5 C 8,0 km/h (2 Bft) 95,74 %
15.11.2017 10:30 0,5 C 6,1 C 92 % 1029,3 hPa 0,0 l/m 4,5 km/h (1 Bft) NO 36 0 min 0,000 mm 0,0 UV-I 94 W/m -0,6 C 0,5 C 6,4 km/h (2 Bft) 94,87 %
15.11.2017 10:32 0,4 C 6,1 C 92 % 1029,3 hPa 0,0 l/m 1,5 km/h (1 Bft) NO 36 0 min 0,000 mm 0,0 UV-I 97 W/m -0,7 C 0,4 C 3,2 km/h (1 Bft) 98,00 %
15.11.2017 10:34 0,4 C 6,1 C 91 % 1029,3 hPa 0,0 l/m 1,6 km/h (1 Bft) NO 36 0 min 0,000 mm 0,0 UV-I 99 W/m -0,9 C 0,4 C 3,2 km/h (1 Bft) 98,00 %
15.11.2017 10:36 0,3 C 6,1 C 91 % 1029,3 hPa 0,0 l/m 0,2 km/h (0 Bft) NO 36 0 min 0,000 mm 0,0 UV-I 105 W/m -1,0 C 0,3 C 1,6 km/h (1 Bft) 97,87 %
15.11.2017 10:38 0,3 C 6,1 C 91 % 1029,3 hPa 0,0 l/m 0,4 km/h (0 Bft) NO 36 0 min 0,000 mm 0,0 UV-I 111 W/m -1,0 C 0,3 C 1,6 km/h (1 Bft) 98,00 %
15.11.2017 10:40 0,3 C 6,1 C 92 % 1029,3 hPa 0,0 l/m 0,7 km/h (0 Bft) NO 36 0 min 0,000 mm 0,0 UV-I 111 W/m -0,8 C 0,3 C 1,6 km/h (1 Bft) 97,87 %
15.11.2017 10:42 0,4 C 6,1 C 91 % 1029,3 hPa 0,0 l/m 0,4 km/h (0 Bft) NO 36 0 min 0,000 mm 0,0 UV-I 113 W/m -0,9 C 0,4 C 1,6 km/h (1 Bft) 97,87 %
15.11.2017 10:44 0,5 C 6,1 C 92 % 1029,3 hPa 0,0 l/m 3,3 km/h (1 Bft) NO 36 0 min 0,000 mm 0,0 UV-I 109 W/m -0,6 C 0,5 C 4,8 km/h (1 Bft) 97,37 %
15.11.2017 10:46 0,7 C 6,1 C 93 % 1029,3 hPa 0,0 l/m 2,9 km/h (1 Bft) NO 36 0 min 0,000 mm 0,0 UV-I 110 W/m -0,3 C 0,7 C 4,8 km/h (1 Bft) 96,23 %
15.11.2017 10:48 0,6 C 6,1 C 92 % 1029,3 hPa 0,0 l/m 4,1 km/h (1 Bft) NO 36 0 min 0,000 mm 0,0 UV-I 106 W/m -0,5 C 0,6 C 6,4 km/h (2 Bft) 98,00 %
15.11.2017 10:50 0,6 C 6,1 C 92 % 1029,3 hPa 0,0 l/m 3,8 km/h (1 Bft) NO 36 0 min 0,000 mm 0,0 UV-I 106 W/m -0,5 C 0,6 C 4,8 km/h (1 Bft) 97,87 %
15.11.2017 10:52 0,6 C 6,1 C 91 % 1029,3 hPa 0,0 l/m 2,3 km/h (1 Bft) NO 36 0 min 0,000 mm 0,0 UV-I 112 W/m -0,7 C 0,6 C 3,2 km/h (1 Bft) 97,37 %
15.11.2017 10:54 0,7 C 6,1 C 92 % 1029,3 hPa 0,0 l/m 0,7 km/h (0 Bft) NO 36 0 min 0,000 mm 0,0 UV-I 110 W/m -0,4 C 0,7 C 3,2 km/h (1 Bft) 98,00 %
15.11.2017 10:56 0,7 C 6,1 C 92 % 1029,3 hPa 0,0 l/m 0,4 km/h (0 Bft) NO 36 0 min 0,000 mm 0,0 UV-I 112 W/m -0,4 C 0,7 C 1,6 km/h (1 Bft) 97,87 %
15.11.2017 10:58 0,7 C 6,1 C 92 % 1029,2 hPa 0,0 l/m 1,8 km/h (1 Bft) NO 36 0 min 0,000 mm 0,0 UV-I 116 W/m -0,4 C 0,7 C 4,8 km/h (1 Bft) 93,62 %
15.11.2017 11:00 0,7 C 6,1 C 92 % 1029,2 hPa 0,0 l/m 1,6 km/h (1 Bft) NO 36 0 min 0,026 mm 0,0 UV-I 109 W/m -0,4 C 0,7 C 4,8 km/h (1 Bft) 98,00 %
15.11.2017 11:02 0,7 C 6,1 C 92 % 1029,2 hPa 0,0 l/m 1,5 km/h (1 Bft) N-NW 344 0 min 0,000 mm 0,0 UV-I 104 W/m -0,4 C 0,7 C 3,2 km/h (1 Bft) 92,59 %
15.11.2017 11:04 0,6 C 6,1 C 92 % 1029,2 hPa 0,0 l/m 1,0 km/h (0 Bft) N-NW 345 0 min 0,000 mm 0,0 UV-I 102 W/m -0,5 C 0,6 C 4,8 km/h (1 Bft) 95,31 %
15.11.2017 11:06 0,7 C 6,1 C 92 % 1029,2 hPa 0,0 l/m 1,9 km/h (1 Bft) N 11 0 min 0,000 mm 0,0 UV-I 98 W/m -0,4 C 0,7 C 4,8 km/h (1 Bft) 96,00 %
15.11.2017 11:08 0,6 C 6,1 C 91 % 1029,1 hPa 0,0 l/m 3,7 km/h (1 Bft) N-NO 24 0 min 0,000 mm 0,0 UV-I 97 W/m -0,7 C 0,6 C 4,8 km/h (1 Bft) 97,44 %
15.11.2017 11:10 0,6 C 6,1 C 92 % 1029,1 hPa 0,0 l/m 2,3 km/h (1 Bft) N-NO 24 0 min 0,000 mm 0,0 UV-I 101 W/m -0,5 C 0,6 C 3,2 km/h (1 Bft) 100,00 %
15.11.2017 11:12 0,6 C 6,1 C 92 % 1029,1 hPa 0,0 l/m 1,8 km/h (1 Bft) N-NO 19 0 min 0,000 mm 0,0 UV-I 105 W/m -0,5 C 0,6 C 4,8 km/h (1 Bft) 100,00 %
15.11.2017 11:14 0,7 C 6,1 C 92 % 1029,0 hPa 0,0 l/m 4,0 km/h (1 Bft) NO 49 0 min 0,000 mm 0,0 UV-I 112 W/m -0,4 C 0,7 C 8,0 km/h (2 Bft) 100,00 %
15.11.2017 11:16 0,7 C 6,1 C 91 % 1029,0 hPa 0,0 l/m 3,5 km/h (1 Bft) NO 49 0 min 0,000 mm 0,0 UV-I 116 W/m -0,6 C 0,7 C 4,8 km/h (1 Bft) 100,00 %
15.11.2017 11:18 0,7 C 6,1 C 92 % 1029,0 hPa 0,0 l/m 4,5 km/h (1 Bft) N-NO 31 0 min 0,000 mm 0,0 UV-I 112 W/m -0,4 C 0,7 C 6,4 km/h (2 Bft) 100,00 %
15.11.2017 11:20 0,8 C 6,1 C 92 % 1028,9 hPa 0,0 l/m 5,5 km/h (1 Bft) O-NO 59 0 min 0,000 mm 0,0 UV-I 117 W/m -0,3 C 0,8 C 8,0 km/h (2 Bft) 97,56 %
15.11.2017 11:22 0,7 C 6,1 C 91 % 1028,9 hPa 0,0 l/m 6,2 km/h (2 Bft) NO 49 0 min 0,000 mm 0,5 UV-I 126 W/m -0,6 C 0,7 C 8,0 km/h (2 Bft) 100,00 %
15.11.2017 11:24 0,6 C 6,1 C 91 % 1028,8 hPa 0,0 l/m 3,3 km/h (1 Bft) NO 49 0 min 0,000 mm 0,5 UV-I 134 W/m -0,7 C 0,6 C 6,4 km/h (2 Bft) 100,00 %
15.11.2017 11:26 0,5 C 6,1 C 91 % 1028,8 hPa 0,0 l/m 1,9 km/h (1 Bft) NO 49 0 min 0,000 mm 0,5 UV-I 134 W/m -0,8 C 0,5 C 4,8 km/h (1 Bft) 100,00 %
15.11.2017 11:28 0,6 C 6,1 C 91 % 1028,8 hPa 0,0 l/m 4,6 km/h (1 Bft) O-NO 57 0 min 0,000 mm 0,5 UV-I 137 W/m -0,7 C 0,6 C 8,0 km/h (2 Bft) 97,87 %
15.11.2017 11:30 0,4 C 6,1 C 91 % 1028,8 hPa 0,0 l/m 2,8 km/h (1 Bft) O-NO 57 0 min 0,000 mm 0,5 UV-I 140 W/m -0,9 C 0,4 C 4,8 km/h (1 Bft) 100,00 %
15.11.2017 11:32 0,5 C 6,1 C 92 % 1028,8 hPa 0,0 l/m 2,1 km/h (1 Bft) O-NO 57 0 min 0,000 mm 0,5 UV-I 137 W/m -0,6 C 0,5 C 4,8 km/h (1 Bft) 97,56 %
15.11.2017 11:34 0,6 C 6,1 C 92 % 1028,7 hPa 0,0 l/m 3,2 km/h (1 Bft) O-NO 57 0 min 0,000 mm 0,5 UV-I 137 W/m -0,5 C 0,6 C 4,8 km/h (1 Bft) 100,00 %
15.11.2017 11:36 0,7 C 6,1 C 92 % 1028,7 hPa 0,0 l/m 1,4 km/h (1 Bft) O-NO 57 0 min 0,000 mm 0,5 UV-I 135 W/m -0,4 C 0,7 C 3,2 km/h (1 Bft) 100,00 %
15.11.2017 11:38 0,7 C 6,1 C 92 % 1028,7 hPa 0,0 l/m 3,3 km/h (1 Bft) O 81 0 min 0,000 mm 0,1 UV-I 129 W/m -0,4 C 0,7 C 4,8 km/h (1 Bft) 100,00 %
15.11.2017 11:40 0,6 C 6,1 C 91 % 1028,7 hPa 0,0 l/m 2,5 km/h (1 Bft) O 81 0 min 0,000 mm 0,0 UV-I 127 W/m -0,7 C 0,6 C 4,8 km/h (1 Bft) 100,00 %
15.11.2017 11:42 0,4 C 6,1 C 91 % 1028,6 hPa 0,0 l/m 1,9 km/h (1 Bft) O 81 0 min 0,000 mm 0,0 UV-I 130 W/m -0,9 C 0,4 C 3,2 km/h (1 Bft) 100,00 %
15.11.2017 11:44 0,4 C 6,1 C 92 % 1028,6 hPa 0,0 l/m 0,8 km/h (0 Bft) O-NO 67 0 min 0,000 mm 0,0 UV-I 128 W/m -0,7 C 0,4 C 3,2 km/h (1 Bft) 100,00 %
15.11.2017 11:46 0,6 C 6,1 C 92 % 1028,6 hPa 0,0 l/m 1,4 km/h (1 Bft) O-NO 67 0 min 0,000 mm 0,0 UV-I 121 W/m -0,5 C 0,6 C 3,2 km/h (1 Bft) 97,22 %
15.11.2017 11:48 0,6 C 6,1 C 92 % 1028,5 hPa 0,0 l/m 0,9 km/h (0 Bft) O-NO 66 0 min 0,000 mm 0,0 UV-I 115 W/m -0,5 C 0,6 C 3,2 km/h (1 Bft) 100,00 %
15.11.2017 11:50 0,7 C 6,1 C 92 % 1028,5 hPa 0,0 l/m 3,5 km/h (1 Bft) N-NW 327 0 min 0,000 mm 0,0 UV-I 113 W/m -0,4 C 0,7 C 8,0 km/h (2 Bft) 97,37 %
15.11.2017 11:52 0,7 C 6,1 C 92 % 1028,5 hPa 0,0 l/m 2,2 km/h (1 Bft) N-NW 347 0 min 0,000 mm 0,0 UV-I 107 W/m -0,4 C 0,7 C 6,4 km/h (2 Bft) 98,00 %
15.11.2017 11:54 0,8 C 6,1 C 92 % 1028,5 hPa 0,0 l/m 2,6 km/h (1 Bft) N-NO 14 0 min 0,000 mm 0,0 UV-I 105 W/m -0,3 C 0,8 C 4,8 km/h (1 Bft) 100,00 %
15.11.2017 11:56 0,7 C 6,1 C 92 % 1028,5 hPa 0,0 l/m 2,2 km/h (1 Bft) N-NO 21 0 min 0,000 mm 0,0 UV-I 98 W/m -0,4 C 0,7 C 6,4 km/h (2 Bft) 100,00 %
15.11.2017 11:58 0,7 C 6,1 C 92 % 1028,5 hPa 0,0 l/m 1,6 km/h (1 Bft) N-NO 18 0 min 0,000 mm 0,0 UV-I 94 W/m -0,4 C 0,7 C 3,2 km/h (1 Bft) 100,00 %
15.11.2017 12:00 0,7 C 6,1 C 92 % 1028,5 hPa 0,0 l/m 1,5 km/h (1 Bft) N-NO 18 0 min 0,051 mm 0,0 UV-I 93 W/m -0,4 C 0,7 C 4,8 km/h (1 Bft) 100,00 %
15.11.2017 12:02 0,6 C 6,1 C 92 % 1028,5 hPa 0,0 l/m 2,5 km/h (1 Bft) N 5 0 min 0,000 mm 0,0 UV-I 91 W/m -0,5 C 0,6 C 6,4 km/h (2 Bft) 100,00 %
15.11.2017 12:04 0,7 C 6,1 C 93 % 1028,5 hPa 0,0 l/m 2,5 km/h (1 Bft) N-NW 329 0 min 0,000 mm 0,0 UV-I 90 W/m -0,3 C 0,7 C 3,2 km/h (1 Bft) 98,00 %
15.11.2017 12:06 0,7 C 6,1 C 93 % 1028,5 hPa 0,0 l/m 1,8 km/h (1 Bft) N 11 0 min 0,000 mm 0,0 UV-I 88 W/m -0,3 C 0,7 C 4,8 km/h (1 Bft) 100,00 %
15.11.2017 12:08 0,7 C 6,1 C 93 % 1028,5 hPa 0,0 l/m 1,5 km/h (1 Bft) N-NW 333 0 min 0,000 mm 0,0 UV-I 89 W/m -0,3 C 0,7 C 4,8 km/h (1 Bft) 98,21 %
15.11.2017 12:10 0,6 C 6,1 C 92 % 1028,5 hPa 0,0 l/m 2,4 km/h (1 Bft) W-NW 303 0 min 0,000 mm 0,0 UV-I 95 W/m -0,5 C 0,6 C 6,4 km/h (2 Bft) 100,00 %
15.11.2017 12:12 0,6 C 6,1 C 93 % 1028,4 hPa 0,0 l/m 1,9 km/h (1 Bft) N 355 0 min 0,000 mm 0,0 UV-I 97 W/m -0,4 C 0,6 C 4,8 km/h (1 Bft) 97,37 %
15.11.2017 12:14 0,7 C 6,1 C 93 % 1028,4 hPa 0,0 l/m 1,6 km/h (1 Bft) NW 304 0 min 0,000 mm 0,0 UV-I 98 W/m -0,3 C 0,7 C 4,8 km/h (1 Bft) 97,87 %
15.11.2017 12:16 0,6 C 6,1 C 93 % 1028,4 hPa 0,0 l/m 2,2 km/h (1 Bft) N-NO 28 0 min 0,000 mm 0,0 UV-I 98 W/m -0,4 C 0,6 C 3,2 km/h (1 Bft) 100,00 %
15.11.2017 12:18 0,7 C 6,1 C 93 % 1028,4 hPa 0,0 l/m 1,4 km/h (1 Bft) N-NW 335 0 min 0,000 mm 0,0 UV-I 98 W/m -0,3 C 0,7 C 3,2 km/h (1 Bft) 100,00 %
15.11.2017 12:20 0,6 C 6,1 C 93 % 1028,4 hPa 0,0 l/m 2,0 km/h (1 Bft) NW 323 0 min 0,000 mm 0,0 UV-I 99 W/m -0,4 C 0,6 C 3,2 km/h (1 Bft) 97,56 %
15.11.2017 12:22 0,7 C 6,1 C 93 % 1028,4 hPa 0,0 l/m 1,6 km/h (1 Bft) N-NW 348 0 min 0,000 mm 0,0 UV-I 102 W/m -0,3 C 0,7 C 3,2 km/h (1 Bft) 98,11 %
15.11.2017 12:24 0,6 C 6,1 C 92 % 1028,4 hPa 0,0 l/m 2,8 km/h (1 Bft) NW 313 0 min 0,000 mm 0,0 UV-I 103 W/m -0,5 C 0,6 C 4,8 km/h (1 Bft) 100,00 %
15.11.2017 12:26 0,7 C 6,1 C 93 % 1028,4 hPa 0,0 l/m 0,9 km/h (0 Bft) NW 325 0 min 0,000 mm 0,0 UV-I 105 W/m -0,3 C 0,7 C 3,2 km/h (1 Bft) 98,00 %
15.11.2017 12:28 0,7 C 6,1 C 93 % 1028,4 hPa 0,0 l/m 2,1 km/h (1 Bft) NW 316 0 min 0,000 mm 0,0 UV-I 107 W/m -0,3 C 0,7 C 4,8 km/h (1 Bft) 100,00 %
15.11.2017 12:30 0,6 C 6,1 C 92 % 1028,4 hPa 0,0 l/m 0,9 km/h (0 Bft) NW 316 0 min 0,000 mm 0,0 UV-I 110 W/m -0,5 C 0,6 C 3,2 km/h (1 Bft) 96,00 %
15.11.2017 12:32 0,6 C 6,1 C 92 % 1028,3 hPa 0,0 l/m 2,1 km/h (1 Bft) NW 316 0 min 0,000 mm 0,0 UV-I 111 W/m -0,5 C 0,6 C 4,8 km/h (1 Bft) 100,00 %
15.11.2017 12:34 0,7 C 6,1 C 92 % 1028,3 hPa 0,0 l/m 1,2 km/h (1 Bft) N 355 0 min 0,000 mm 0,0 UV-I 109 W/m -0,4 C 0,7 C 3,2 km/h (1 Bft) 100,00 %
15.11.2017 12:36 0,7 C 6,1 C 92 % 1028,3 hPa 0,0 l/m 1,5 km/h (1 Bft) N-NO 16 0 min 0,000 mm 0,0 UV-I 109 W/m -0,4 C 0,7 C 4,8 km/h (1 Bft) 100,00 %
15.11.2017 12:38 0,7 C 6,1 C 92 % 1028,3 hPa 0,0 l/m 3,7 km/h (1 Bft) NO 49 0 min 0,000 mm 0,0 UV-I 106 W/m -0,4 C 0,7 C 6,4 km/h (2 Bft) 100,00 %
15.11.2017 12:40 0,7 C 6,1 C 92 % 1028,3 hPa 0,0 l/m 6,7 km/h (2 Bft) N-NO 21 0 min 0,000 mm 0,0 UV-I 107 W/m -0,4 C 0,4 C 11,3 km/h (2 Bft) 100,00 %
15.11.2017 12:42 0,7 C 6,1 C 92 % 1028,3 hPa 0,0 l/m 7,4 km/h (2 Bft) N-NO 26 0 min 0,000 mm 0,0 UV-I 111 W/m -0,4 C -0,3 C 9,7 km/h (2 Bft) 97,87 %
15.11.2017 12:44 0,7 C 6,1 C 92 % 1028,3 hPa 0,0 l/m 4,9 km/h (1 Bft) N-NO 19 0 min 0,000 mm 0,0 UV-I 111 W/m -0,4 C 0,7 C 12,9 km/h (3 Bft) 98,00 %
15.11.2017 12:46 0,6 C 6,1 C 92 % 1028,3 hPa 0,0 l/m 2,3 km/h (1 Bft) N 11 0 min 0,000 mm 0,0 UV-I 111 W/m -0,5 C 0,6 C 4,8 km/h (1 Bft) 96,00 %
15.11.2017 12:48 0,5 C 6,1 C 92 % 1028,3 hPa 0,0 l/m 0,3 km/h (0 Bft) N 11 0 min 0,000 mm 0,0 UV-I 109 W/m -0,6 C 0,5 C 3,2 km/h (1 Bft) 92,11 %
15.11.2017 12:50 0,5 C 6,1 C 92 % 1028,3 hPa 0,0 l/m 0,6 km/h (0 Bft) N 11 0 min 0,000 mm 0,0 UV-I 110 W/m -0,6 C 0,5 C 4,8 km/h (1 Bft) 96,23 %
15.11.2017 12:52 0,6 C 6,1 C 92 % 1028,2 hPa 0,0 l/m 2,7 km/h (1 Bft) N 11 0 min 0,000 mm 0,0 UV-I 105 W/m -0,5 C 0,6 C 4,8 km/h (1 Bft) 98,00 %
15.11.2017 12:54 0,6 C 6,1 C 93 % 1028,2 hPa 0,0 l/m 3,5 km/h (1 Bft) N-NO 22 0 min 0,000 mm 0,0 UV-I 98 W/m -0,4 C 0,6 C 6,4 km/h (2 Bft) 94,29 %
15.11.2017 12:56 0,5 C 6,1 C 92 % 1028,1 hPa 0,0 l/m 1,0 km/h (0 Bft) N-NO 22 0 min 0,000 mm 0,0 UV-I 97 W/m -0,6 C 0,5 C 3,2 km/h (1 Bft) 98,00 %
15.11.2017 12:58 0,6 C 6,1 C 93 % 1028,1 hPa 0,0 l/m 3,6 km/h (1 Bft) NO 49 0 min 0,000 mm 0,0 UV-I 91 W/m -0,4 C 0,6 C 6,4 km/h (2 Bft) 98,08 %
15.11.2017 13:00 0,7 C 6,1 C 93 % 1028,1 hPa 0,0 l/m 5,6 km/h (1 Bft) NO 35 0 min 0,025 mm 0,0 UV-I 92 W/m -0,3 C 0,7 C 9,7 km/h (2 Bft) 97,56 %
15.11.2017 13:02 0,7 C 6,1 C 93 % 1028,0 hPa 0,0 l/m 4,1 km/h (1 Bft) N-NO 28 0 min 0,000 mm 0,0 UV-I 95 W/m -0,3 C 0,7 C 6,4 km/h (2 Bft) 95,83 %
15.11.2017 13:04 0,7 C 6,1 C 93 % 1027,9 hPa 0,0 l/m 1,2 km/h (1 Bft) N-NO 27 0 min 0,000 mm 0,0 UV-I 94 W/m -0,3 C 0,7 C 3,2 km/h (1 Bft) 94,55 %
15.11.2017 13:06 0,7 C 6,1 C 93 % 1028,0 hPa 0,0 l/m 1,4 km/h (1 Bft) N-NW 331 0 min 0,000 mm 0,0 UV-I 97 W/m -0,3 C 0,7 C 3,2 km/h (1 Bft) 100,00 %
15.11.2017 13:08 0,6 C 6,1 C 92 % 1027,9 hPa 0,0 l/m 1,7 km/h (1 Bft) NW 320 0 min 0,000 mm 0,0 UV-I 97 W/m -0,5 C 0,6 C 4,8 km/h (1 Bft) 96,00 %
15.11.2017 13:10 0,6 C 6,1 C 93 % 1027,9 hPa 0,0 l/m 1,2 km/h (1 Bft) N-NW 344 0 min 0,000 mm 0,0 UV-I 94 W/m -0,4 C 0,6 C 3,2 km/h (1 Bft) 97,87 %
15.11.2017 13:12 0,7 C 6,1 C 93 % 1027,9 hPa 0,0 l/m 5,4 km/h (1 Bft) N-NO 32 0 min 0,000 mm 0,0 UV-I 91 W/m -0,3 C 0,7 C 6,4 km/h (2 Bft) 98,11 %
15.11.2017 13:14 0,7 C 6,1 C 93 % 1027,9 hPa 0,0 l/m 3,7 km/h (1 Bft) N-NO 29 0 min 0,000 mm 0,0 UV-I 87 W/m -0,3 C 0,7 C 6,4 km/h (2 Bft) 95,12 %
15.11.2017 13:16 0,7 C 6,1 C 93 % 1027,9 hPa 0,0 l/m 5,2 km/h (1 Bft) NO 44 0 min 0,000 mm 0,0 UV-I 86 W/m -0,3 C 0,7 C 9,7 km/h (2 Bft) 95,74 %
15.11.2017 13:18 0,7 C 6,1 C 93 % 1027,9 hPa 0,0 l/m 4,3 km/h (1 Bft) N-NO 29 0 min 0,000 mm 0,0 UV-I 85 W/m -0,3 C 0,7 C 8,0 km/h (2 Bft) 97,56 %
15.11.2017 13:20 0,7 C 6,1 C 93 % 1027,8 hPa 0,0 l/m 6,9 km/h (2 Bft) N-NO 28 0 min 0,000 mm 0,0 UV-I 86 W/m -0,3 C 0,2 C 9,7 km/h (2 Bft) 98,11 %
15.11.2017 13:22 0,7 C 6,1 C 93 % 1027,8 hPa 0,0 l/m 5,9 km/h (2 Bft) NO 40 0 min 0,000 mm 0,0 UV-I 88 W/m -0,3 C 0,7 C 8,0 km/h (2 Bft) 100,00 %
15.11.2017 13:24 0,8 C 6,1 C 93 % 1027,7 hPa 0,0 l/m 2,5 km/h (1 Bft) N-NO 28 0 min 0,000 mm 0,0 UV-I 89 W/m -0,2 C 0,8 C 6,4 km/h (2 Bft) 100,00 %
15.11.2017 13:26 0,7 C 6,1 C 93 % 1027,8 hPa 0,0 l/m 2,3 km/h (1 Bft) N 355 0 min 0,000 mm 0,0 UV-I 86 W/m -0,3 C 0,7 C 4,8 km/h (1 Bft) 97,87 %
15.11.2017 13:28 0,7 C 6,1 C 93 % 1027,7 hPa 0,0 l/m 2,9 km/h (1 Bft) NO 51 0 min 0,000 mm 0,0 UV-I 85 W/m -0,3 C 0,7 C 6,4 km/h (2 Bft) 98,00 %
15.11.2017 13:30 0,6 C 6,1 C 92 % 1027,7 hPa 0,0 l/m 5,9 km/h (2 Bft) NO 42 0 min 0,000 mm 0,0 UV-I 91 W/m -0,5 C 0,6 C 8,0 km/h (2 Bft) 97,56 %
15.11.2017 13:32 0,5 C 6,1 C 92 % 1027,8 hPa 0,0 l/m 4,2 km/h (1 Bft) NO 38 0 min 0,000 mm 0,0 UV-I 99 W/m -0,6 C 0,5 C 8,0 km/h (2 Bft) 98,00 %
15.11.2017 13:34 0,6 C 6,1 C 93 % 1027,7 hPa 0,0 l/m 3,1 km/h (1 Bft) NO 38 0 min 0,000 mm 0,0 UV-I 96 W/m -0,4 C 0,6 C 4,8 km/h (1 Bft) 97,37 %
15.11.2017 13:36 0,5 C 6,1 C 92 % 1027,8 hPa 0,0 l/m 1,2 km/h (1 Bft) NO 38 0 min 0,000 mm 0,0 UV-I 89 W/m -0,6 C 0,5 C 3,2 km/h (1 Bft) 98,31 %
15.11.2017 13:38 0,4 C 6,1 C 92 % 1027,8 hPa 0,0 l/m 0,7 km/h (0 Bft) NO 38 0 min 0,000 mm 0,0 UV-I 85 W/m -0,7 C 0,4 C 3,2 km/h (1 Bft) 97,37 %
15.11.2017 13:40 0,4 C 6,1 C 92 % 1027,8 hPa 0,0 l/m 1,1 km/h (1 Bft) NO 38 0 min 0,000 mm 0,0 UV-I 83 W/m -0,7 C 0,4 C 1,6 km/h (1 Bft) 98,00 %
15.11.2017 13:42 0,4 C 6,1 C 92 % 1027,8 hPa 0,0 l/m 1,6 km/h (1 Bft) NO 38 0 min 0,000 mm 0,0 UV-I 79 W/m -0,7 C 0,4 C 3,2 km/h (1 Bft) 94,00 %
15.11.2017 13:44 0,5 C 6,1 C 93 % 1027,8 hPa 0,0 l/m 1,4 km/h (1 Bft) NO 38 0 min 0,000 mm 0,0 UV-I 77 W/m -0,5 C 0,5 C 3,2 km/h (1 Bft) 93,62 %
15.11.2017 13:46 0,4 C 6,1 C 92 % 1027,8 hPa 0,0 l/m 1,0 km/h (0 Bft) NO 38 0 min 0,000 mm 0,0 UV-I 77 W/m -0,7 C 0,4 C 3,2 km/h (1 Bft) 100,00 %
15.11.2017 13:48 0,4 C 6,1 C 92 % 1027,8 hPa 0,0 l/m 0,8 km/h (0 Bft) NO 38 0 min 0,000 mm 0,0 UV-I 76 W/m -0,7 C 0,4 C 3,2 km/h (1 Bft) 95,24 %
15.11.2017 13:50 0,6 C 6,1 C 93 % 1027,7 hPa 0,0 l/m 0,0 km/h (0 Bft) NO 38 0 min 0,000 mm 0,0 UV-I 76 W/m -0,4 C 0,6 C 0,0 km/h (0 Bft) 98,00 %
15.11.2017 13:52 0,6 C 6,1 C 93 % 1027,6 hPa 0,0 l/m 1,3 km/h (1 Bft) NO 38 0 min 0,000 mm 0,0 UV-I 73 W/m -0,4 C 0,6 C 3,2 km/h (1 Bft) 97,73 %
15.11.2017 13:54 0,7 C 6,1 C 93 % 1027,6 hPa 0,0 l/m 3,6 km/h (1 Bft) NO 47 0 min 0,000 mm 0,0 UV-I 73 W/m -0,3 C 0,7 C 6,4 km/h (2 Bft) 98,00 %
15.11.2017 13:56 0,8 C 6,1 C 93 % 1027,6 hPa 0,0 l/m 2,0 km/h (1 Bft) NO 46 0 min 0,000 mm 0,0 UV-I 74 W/m -0,2 C 0,8 C 4,8 km/h (1 Bft) 97,56 %
15.11.2017 13:58 0,8 C 6,1 C 93 % 1027,6 hPa 0,0 l/m 2,2 km/h (1 Bft) N-NO 32 0 min 0,000 mm 0,0 UV-I 71 W/m -0,2 C 0,8 C 6,4 km/h (2 Bft) 98,00 %
15.11.2017 14:00 0,7 C 6,1 C 93 % 1027,6 hPa 0,0 l/m 2,1 km/h (1 Bft) NO 44 0 min 0,000 mm 0,0 UV-I 67 W/m -0,3 C 0,7 C 4,8 km/h (1 Bft) 94,00 %
15.11.2017 14:02 0,7 C 6,1 C 93 % 1027,6 hPa 0,0 l/m 4,0 km/h (1 Bft) NO 56 0 min 0,025 mm 0,0 UV-I 69 W/m -0,3 C 0,7 C 6,4 km/h (2 Bft) 97,56 %
15.11.2017 14:04 0,6 C 6,1 C 93 % 1027,5 hPa 0,0 l/m 3,5 km/h (1 Bft) NO 55 0 min 0,000 mm 0,0 UV-I 70 W/m -0,4 C 0,6 C 6,4 km/h (2 Bft) 96,43 %
15.11.2017 14:06 0,7 C 6,1 C 93 % 1027,5 hPa 0,0 l/m 1,7 km/h (1 Bft) N-NO 33 0 min 0,000 mm 0,0 UV-I 71 W/m -0,3 C 0,7 C 4,8 km/h (1 Bft) 97,87 %
15.11.2017 14:08 0,7 C 6,1 C 93 % 1027,5 hPa 0,0 l/m 2,4 km/h (1 Bft) N-NO 28 0 min 0,000 mm 0,0 UV-I 73 W/m -0,3 C 0,7 C 6,4 km/h (2 Bft) 97,87 %
15.11.2017 14:10 0,7 C 6,1 C 93 % 1027,5 hPa 0,0 l/m 2,0 km/h (1 Bft) N-NO 28 0 min 0,000 mm 0,0 UV-I 70 W/m -0,3 C 0,7 C 4,8 km/h (1 Bft) 97,37 %
15.11.2017 14:12 0,8 C 6,1 C 93 % 1027,5 hPa 0,0 l/m 1,4 km/h (1 Bft) N-NO 28 0 min 0,000 mm 0,0 UV-I 70 W/m -0,2 C 0,8 C 3,2 km/h (1 Bft) 97,73 %
15.11.2017 14:14 0,8 C 6,1 C 93 % 1027,4 hPa 0,0 l/m 1,1 km/h (1 Bft) N-NO 28 0 min 0,000 mm 0,0 UV-I 70 W/m -0,2 C 0,8 C 3,2 km/h (1 Bft) 98,11 %
15.11.2017 14:16 0,7 C 6,1 C 93 % 1027,4 hPa 0,0 l/m 2,7 km/h (1 Bft) NO 56 0 min 0,000 mm 0,0 UV-I 72 W/m -0,3 C 0,7 C 6,4 km/h (2 Bft) 100,00 %
15.11.2017 14:18 0,7 C 6,1 C 93 % 1027,3 hPa 0,0 l/m 2,6 km/h (1 Bft) NO 56 0 min 0,000 mm 0,0 UV-I 72 W/m -0,3 C 0,7 C 4,8 km/h (1 Bft) 97,14 %
15.11.2017 14:20 0,7 C 6,1 C 93 % 1027,3 hPa 0,0 l/m 3,3 km/h (1 Bft) O-NO 66 0 min 0,000 mm 0,0 UV-I 70 W/m -0,3 C 0,7 C 4,8 km/h (1 Bft) 97,87 %
15.11.2017 14:22 0,7 C 6,1 C 93 % 1027,3 hPa 0,0 l/m 2,4 km/h (1 Bft) O-NO 66 0 min 0,000 mm 0,0 UV-I 67 W/m -0,3 C 0,7 C 3,2 km/h (1 Bft) 98,00 %
15.11.2017 14:24 0,7 C 6,1 C 93 % 1027,3 hPa 0,0 l/m 3,0 km/h (1 Bft) O-NO 66 0 min 0,000 mm 0,0 UV-I 67 W/m -0,3 C 0,7 C 4,8 km/h (1 Bft) 97,22 %
15.11.2017 14:26 0,6 C 6,1 C 93 % 1027,3 hPa 0,0 l/m 2,2 km/h (1 Bft) O-NO 65 0 min 0,000 mm 0,0 UV-I 65 W/m -0,4 C 0,6 C 4,8 km/h (1 Bft) 98,21 %
15.11.2017 14:28 0,7 C 6,1 C 93 % 1027,3 hPa 0,0 l/m 3,6 km/h (1 Bft) O-NO 65 0 min 0,000 mm 0,0 UV-I 66 W/m -0,3 C 0,7 C 4,8 km/h (1 Bft) 95,74 %
15.11.2017 14:30 0,6 C 6,1 C 93 % 1027,3 hPa 0,0 l/m 1,9 km/h (1 Bft) O-NO 65 0 min 0,000 mm 0,0 UV-I 66 W/m -0,4 C 0,6 C 4,8 km/h (1 Bft) 97,56 %
15.11.2017 14:32 0,6 C 6,1 C 93 % 1027,3 hPa 0,0 l/m 4,1 km/h (1 Bft) NO 40 0 min 0,000 mm 0,0 UV-I 68 W/m -0,4 C 0,6 C 6,4 km/h (2 Bft) 98,00 %
15.11.2017 14:34 0,7 C 6,1 C 93 % 1027,2 hPa 0,0 l/m 3,7 km/h (1 Bft) N-NO 29 0 min 0,000 mm 0,0 UV-I 68 W/m -0,3 C 0,7 C 8,0 km/h (2 Bft) 96,23 %
15.11.2017 14:36 0,7 C 6,1 C 93 % 1027,3 hPa 0,0 l/m 6,9 km/h (2 Bft) N-NO 24 0 min 0,000 mm 0,0 UV-I 66 W/m -0,3 C 0,2 C 9,7 km/h (2 Bft) 100,00 %
15.11.2017 14:38 0,7 C 6,1 C 93 % 1027,2 hPa 0,0 l/m 4,2 km/h (1 Bft) N-NO 24 0 min 0,000 mm 0,0 UV-I 63 W/m -0,3 C 0,7 C 6,4 km/h (2 Bft) 100,00 %
15.11.2017 14:40 0,7 C 6,1 C 93 % 1027,2 hPa 0,0 l/m 3,8 km/h (1 Bft) N-NO 26 0 min 0,000 mm 0,0 UV-I 63 W/m -0,3 C 0,7 C 4,8 km/h (1 Bft) 100,00 %
15.11.2017 14:42 0,7 C 6,1 C 93 % 1027,2 hPa 0,0 l/m 3,5 km/h (1 Bft) NO 34 0 min 0,000 mm 0,0 UV-I 65 W/m -0,3 C 0,7 C 4,8 km/h (1 Bft) 95,38 %
15.11.2017 14:44 0,7 C 6,1 C 93 % 1027,2 hPa 0,0 l/m 2,6 km/h (1 Bft) NO 34 0 min 0,000 mm 0,0 UV-I 65 W/m -0,3 C 0,7 C 4,8 km/h (1 Bft) 100,00 %
15.11.2017 14:46 0,7 C 6,1 C 93 % 1027,2 hPa 0,0 l/m 3,1 km/h (1 Bft) NO 34 0 min 0,000 mm 0,0 UV-I 64 W/m -0,3 C 0,7 C 4,8 km/h (1 Bft) 100,00 %
15.11.2017 14:48 0,6 C 6,1 C 93 % 1027,2 hPa 0,0 l/m 1,3 km/h (1 Bft) NO 34 0 min 0,000 mm 0,0 UV-I 57 W/m -0,4 C 0,6 C 3,2 km/h (1 Bft) 100,00 %
15.11.2017 14:50 0,7 C 6,1 C 93 % 1027,3 hPa 0,0 l/m 2,5 km/h (1 Bft) NO 34 0 min 0,000 mm 0,0 UV-I 57 W/m -0,3 C 0,7 C 4,8 km/h (1 Bft) 98,11 %
15.11.2017 14:52 0,7 C 6,1 C 93 % 1027,2 hPa 0,0 l/m 3,0 km/h (1 Bft) NO 34 0 min 0,000 mm 0,0 UV-I 60 W/m -0,3 C 0,7 C 4,8 km/h (1 Bft) 98,00 %
15.11.2017 14:54 0,6 C 6,1 C 93 % 1027,3 hPa 0,0 l/m 3,5 km/h (1 Bft) NO 40 0 min 0,000 mm 0,0 UV-I 55 W/m -0,4 C 0,6 C 6,4 km/h (2 Bft) 95,83 %
15.11.2017 14:56 0,5 C 6,1 C 93 % 1027,2 hPa 0,0 l/m 3,0 km/h (1 Bft) NO 40 0 min 0,000 mm 0,0 UV-I 53 W/m -0,5 C 0,5 C 4,8 km/h (1 Bft) 96,88 %
15.11.2017 14:58 0,5 C 6,1 C 93 % 1027,3 hPa 0,0 l/m 2,0 km/h (1 Bft) NO 40 0 min 0,000 mm 0,0 UV-I 50 W/m -0,5 C 0,5 C 3,2 km/h (1 Bft) 97,73 %
15.11.2017 15:00 0,5 C 6,1 C 93 % 1027,3 hPa 0,0 l/m 2,1 km/h (1 Bft) NO 40 0 min 0,026 mm 0,0 UV-I 47 W/m -0,5 C 0,5 C 3,2 km/h (1 Bft) 94,34 %
15.11.2017 15:02 0,4 C 6,1 C 93 % 1027,3 hPa 0,0 l/m 2,1 km/h (1 Bft) O-NO 69 0 min 0,000 mm 0,0 UV-I 49 W/m -0,6 C 0,4 C 6,4 km/h (2 Bft) 96,00 %
15.11.2017 15:04 0,4 C 6,1 C 93 % 1027,3 hPa 0,0 l/m 4,2 km/h (1 Bft) O-NO 66 0 min 0,000 mm 0,0 UV-I 48 W/m -0,6 C 0,4 C 6,4 km/h (2 Bft) 97,44 %
15.11.2017 15:06 0,4 C 6,1 C 93 % 1027,2 hPa 0,0 l/m 2,8 km/h (1 Bft) O-NO 66 0 min 0,000 mm 0,0 UV-I 46 W/m -0,6 C 0,4 C 4,8 km/h (1 Bft) 96,00 %
15.11.2017 15:08 0,4 C 6,1 C 93 % 1027,2 hPa 0,0 l/m 2,7 km/h (1 Bft) O-NO 66 0 min 0,000 mm 0,0 UV-I 42 W/m -0,6 C 0,4 C 4,8 km/h (1 Bft) 98,00 %
15.11.2017 15:10 0,4 C 6,1 C 93 % 1027,2 hPa 0,0 l/m 3,9 km/h (1 Bft) O-NO 67 0 min 0,000 mm 0,0 UV-I 49 W/m -0,6 C 0,4 C 6,4 km/h (2 Bft) 97,37 %
15.11.2017 15:12 0,4 C 6,1 C 93 % 1027,2 hPa 0,0 l/m 5,0 km/h (1 Bft) O-NO 78 0 min 0,000 mm 0,0 UV-I 51 W/m -0,6 C 0,4 C 6,4 km/h (2 Bft) 93,62 %
15.11.2017 15:14 0,3 C 6,1 C 93 % 1027,2 hPa 0,0 l/m 3,9 km/h (1 Bft) O 94 0 min 0,000 mm 0,0 UV-I 49 W/m -0,7 C 0,3 C 6,4 km/h (2 Bft) 98,00 %
15.11.2017 15:16 0,3 C 6,1 C 93 % 1027,2 hPa 0,0 l/m 2,1 km/h (1 Bft) O 94 0 min 0,000 mm 0,0 UV-I 49 W/m -0,7 C 0,3 C 4,8 km/h (1 Bft) 98,11 %
15.11.2017 15:18 0,4 C 6,1 C 93 % 1027,2 hPa 0,0 l/m 4,3 km/h (1 Bft) O-NO 61 0 min 0,000 mm 0,0 UV-I 49 W/m -0,6 C 0,4 C 6,4 km/h (2 Bft) 94,74 %
15.11.2017 15:20 0,3 C 6,1 C 93 % 1027,2 hPa 0,0 l/m 1,1 km/h (1 Bft) O-NO 61 0 min 0,000 mm 0,0 UV-I 51 W/m -0,7 C 0,3 C 3,2 km/h (1 Bft) 98,00 %
15.11.2017 15:22 0,4 C 6,1 C 93 % 1027,2 hPa 0,0 l/m 0,0 km/h (0 Bft) O-NO 61 0 min 0,000 mm 0,0 UV-I 49 W/m -0,6 C 0,4 C 1,6 km/h (1 Bft) 97,87 %
15.11.2017 15:24 0,4 C 6,1 C 93 % 1027,3 hPa 0,0 l/m 0,9 km/h (0 Bft) O-NO 61 0 min 0,000 mm 0,0 UV-I 47 W/m -0,6 C 0,4 C 3,2 km/h (1 Bft) 98,11 %
15.11.2017 15:26 0,4 C 6,1 C 93 % 1027,3 hPa 0,0 l/m 0,7 km/h (0 Bft) O-NO 61 0 min 0,000 mm 0,0 UV-I 43 W/m -0,6 C 0,4 C 3,2 km/h (1 Bft) 100,00 %
15.11.2017 15:28 0,4 C 6,1 C 93 % 1027,3 hPa 0,0 l/m 0,2 km/h (0 Bft) O-NO 61 0 min 0,000 mm 0,0 UV-I 38 W/m -0,6 C 0,4 C 1,6 km/h (1 Bft) 98,00 %
15.11.2017 15:30 0,4 C 6,1 C 93 % 1027,3 hPa 0,0 l/m 0,2 km/h (0 Bft) O-NO 61 0 min 0,000 mm 0,0 UV-I 35 W/m -0,6 C 0,4 C 3,2 km/h (1 Bft) 98,00 %
15.11.2017 15:32 0,4 C 6,1 C 93 % 1027,3 hPa 0,0 l/m 2,0 km/h (1 Bft) O-NO 61 0 min 0,000 mm 0,0 UV-I 33 W/m -0,6 C 0,4 C 3,2 km/h (1 Bft) 97,87 %
15.11.2017 15:34 0,3 C 6,1 C 92 % 1027,3 hPa 0,0 l/m 1,2 km/h (1 Bft) O-NO 61 0 min 0,000 mm 0,0 UV-I 33 W/m -0,8 C 0,3 C 1,6 km/h (1 Bft) 100,00 %
15.11.2017 15:36 0,3 C 6,1 C 93 % 1027,2 hPa 0,0 l/m 2,9 km/h (1 Bft) O-NO 61 0 min 0,000 mm 0,0 UV-I 30 W/m -0,7 C 0,3 C 4,8 km/h (1 Bft) 100,00 %
15.11.2017 15:38 0,4 C 6,1 C 93 % 1027,2 hPa 0,0 l/m 1,0 km/h (0 Bft) NO 38 0 min 0,000 mm 0,0 UV-I 25 W/m -0,6 C 0,4 C 3,2 km/h (1 Bft) 100,00 %
15.11.2017 15:40 0,4 C 6,1 C 93 % 1027,2 hPa 0,0 l/m 0,9 km/h (0 Bft) NO 38 0 min 0,000 mm 0,0 UV-I 23 W/m -0,6 C 0,4 C 1,6 km/h (1 Bft) 100,00 %
15.11.2017 15:42 0,4 C 6,1 C 93 % 1027,2 hPa 0,0 l/m 0,1 km/h (0 Bft) NO 38 0 min 0,000 mm 0,0 UV-I 21 W/m -0,6 C 0,4 C 1,6 km/h (1 Bft) 94,87 %
15.11.2017 15:44 0,4 C 6,1 C 93 % 1027,2 hPa 0,0 l/m 0,7 km/h (0 Bft) NO 38 0 min 0,000 mm 0,0 UV-I 21 W/m -0,6 C 0,4 C 3,2 km/h (1 Bft) 100,00 %
15.11.2017 15:46 0,3 C 6,1 C 93 % 1027,2 hPa 0,0 l/m 2,9 km/h (1 Bft) NO 38 0 min 0,000 mm 0,0 UV-I 21 W/m -0,7 C 0,3 C 4,8 km/h (1 Bft) 98,11 %
15.11.2017 15:48 0,3 C 6,1 C 93 % 1027,2 hPa 0,0 l/m 2,2 km/h (1 Bft) N-NO 17 0 min 0,000 mm 0,0 UV-I 21 W/m -0,7 C 0,3 C 3,2 km/h (1 Bft) 95,74 %
15.11.2017 15:50 0,2 C 6,1 C 93 % 1027,2 hPa 0,0 l/m 1,5 km/h (1 Bft) N-NO 17 0 min 0,000 mm 0,0 UV-I 22 W/m -0,8 C 0,2 C 3,2 km/h (1 Bft) 100,00 %
15.11.2017 15:52 0,2 C 6,1 C 93 % 1027,2 hPa 0,0 l/m 1,9 km/h (1 Bft) N-NO 17 0 min 0,000 mm 0,0 UV-I 23 W/m -0,8 C 0,2 C 3,2 km/h (1 Bft) 97,37 %
15.11.2017 15:54 0,2 C 6,1 C 93 % 1027,1 hPa 0,0 l/m 3,1 km/h (1 Bft) N-NO 19 0 min 0,000 mm 0,0 UV-I 24 W/m -0,8 C 0,2 C 4,8 km/h (1 Bft) 100,00 %
15.11.2017 15:56 0,2 C 6,1 C 94 % 1027,1 hPa 0,0 l/m 1,9 km/h (1 Bft) N-NO 19 0 min 0,000 mm 0,0 UV-I 22 W/m -0,6 C 0,2 C 4,8 km/h (1 Bft) 98,00 %
15.11.2017 15:58 0,2 C 6,1 C 93 % 1027,1 hPa 0,0 l/m 2,3 km/h (1 Bft) N-NO 19 0 min 0,000 mm 0,0 UV-I 20 W/m -0,8 C 0,2 C 4,8 km/h (1 Bft) 100,00 %
15.11.2017 16:00 0,2 C 6,1 C 93 % 1027,1 hPa 0,0 l/m 1,9 km/h (1 Bft) N-NO 19 0 min 0,000 mm 0,0 UV-I 19 W/m -0,8 C 0,2 C 3,2 km/h (1 Bft) 100,00 %
15.11.2017 16:02 0,3 C 6,1 C 94 % 1027,1 hPa 0,0 l/m 2,7 km/h (1 Bft) N-NO 19 0 min 0,025 mm 0,0 UV-I 17 W/m -0,5 C 0,3 C 3,2 km/h (1 Bft) 98,21 %
15.11.2017 16:04 0,3 C 6,1 C 94 % 1027,1 hPa 0,0 l/m 2,6 km/h (1 Bft) N-NO 19 0 min 0,000 mm 0,0 UV-I 14 W/m -0,5 C 0,3 C 4,8 km/h (1 Bft) 97,37 %
15.11.2017 16:06 0,3 C 6,1 C 93 % 1027,0 hPa 0,0 l/m 0,5 km/h (0 Bft) N-NO 19 0 min 0,000 mm 0,0 UV-I 12 W/m -0,7 C 0,3 C 3,2 km/h (1 Bft) 97,87 %
15.11.2017 16:08 0,2 C 6,1 C 93 % 1027,0 hPa 0,0 l/m 0,0 km/h (0 Bft) N-NO 19 0 min 0,000 mm 0,0 UV-I 12 W/m -0,8 C 0,2 C 0,0 km/h (0 Bft) 100,00 %
15.11.2017 16:10 0,2 C 6,1 C 93 % 1027,0 hPa 0,0 l/m 1,1 km/h (1 Bft) N-NO 19 0 min 0,000 mm 0,0 UV-I 11 W/m -0,8 C 0,2 C 3,2 km/h (1 Bft) 100,00 %
15.11.2017 16:12 0,2 C 6,1 C 94 % 1027,0 hPa 0,0 l/m 0,0 km/h (0 Bft) N-NO 19 0 min 0,000 mm 0,0 UV-I 11 W/m -0,6 C 0,2 C 0,0 km/h (0 Bft) 100,00 %
15.11.2017 16:14 0,3 C 6,1 C 94 % 1027,0 hPa 0,0 l/m 0,1 km/h (0 Bft) N-NO 19 2 min 0,000 mm 0,0 UV-I 9 W/m -0,5 C 0,3 C 1,6 km/h (1 Bft) 100,00 %
15.11.2017 16:16 0,3 C 6,1 C 94 % 1027,0 hPa 0,0 l/m 2,3 km/h (1 Bft) N-NO 19 0 min 0,000 mm 0,0 UV-I 9 W/m -0,5 C 0,3 C 3,2 km/h (1 Bft) 100,00 %
15.11.2017 16:18 0,3 C 6,1 C 94 % 1027,0 hPa 0,0 l/m 1,7 km/h (1 Bft) N-NO 19 0 min 0,000 mm 0,0 UV-I 7 W/m -0,5 C 0,3 C 3,2 km/h (1 Bft) 98,00 %
15.11.2017 16:20 0,3 C 6,1 C 94 % 1027,0 hPa 0,0 l/m 2,2 km/h (1 Bft) N-NO 19 0 min 0,000 mm 0,0 UV-I 7 W/m -0,5 C 0,3 C 4,8 km/h (1 Bft) 100,00 %
15.11.2017 16:22 0,3 C 6,1 C 94 % 1027,0 hPa 0,0 l/m 0,8 km/h (0 Bft) N-NO 19 0 min 0,000 mm 0,0 UV-I 7 W/m -0,5 C 0,3 C 3,2 km/h (1 Bft) 100,00 %
15.11.2017 16:25 0,3 C 6,1 C 94 % 1027,1 hPa 0,0 l/m 1,0 km/h (0 Bft) N-NO 19 0 min 0,000 mm 0,0 UV-I 5 W/m -0,5 C 0,3 C 3,2 km/h (1 Bft) 100,00 %
15.11.2017 16:26 0,3 C 6,1 C 94 % 1027,1 hPa 0,0 l/m 1,4 km/h (1 Bft) N-NO 19 0 min 0,000 mm 0,0 UV-I 5 W/m -0,5 C 0,3 C 3,2 km/h (1 Bft) 93,33 %
15.11.2017 16:28 0,3 C 6,1 C 94 % 1027,0 hPa 0,0 l/m 0,8 km/h (0 Bft) N-NO 18 0 min 0,000 mm 0,0 UV-I 5 W/m -0,5 C 0,3 C 3,2 km/h (1 Bft) 98,00 %
15.11.2017 16:30 0,2 C 6,1 C 93 % 1027,0 hPa 0,0 l/m 0,2 km/h (0 Bft) N-NO 19 0 min 0,000 mm 0,0 UV-I 5 W/m -0,8 C 0,2 C 1,6 km/h (1 Bft) 100,00 %
15.11.2017 16:32 0,2 C 6,1 C 93 % 1027,1 hPa 0,0 l/m 0,5 km/h (0 Bft) N-NO 19 0 min 0,000 mm 0,0 UV-I 5 W/m -0,8 C 0,2 C 1,6 km/h (1 Bft) 98,00 %
15.11.2017 16:34 0,3 C 6,1 C 94 % 1027,1 hPa 0,0 l/m 1,2 km/h (1 Bft) N-NO 19 0 min 0,000 mm 0,0 UV-I 5 W/m -0,5 C 0,3 C 3,2 km/h (1 Bft) 100,00 %
15.11.2017 16:36 0,3 C 6,1 C 94 % 1027,0 hPa 0,0 l/m 0,1 km/h (0 Bft) N-NO 19 0 min 0,000 mm 0,0 UV-I 5 W/m -0,5 C 0,3 C 1,6 km/h (1 Bft) 100,00 %
15.11.2017 16:38 0,3 C 6,1 C 94 % 1027,1 hPa 0,0 l/m 0,0 km/h (0 Bft) N-NO 19 0 min 0,000 mm 0,0 UV-I 2 W/m -0,5 C 0,3 C 1,6 km/h (1 Bft) 100,00 %
15.11.2017 16:40 0,3 C 6,1 C 94 % 1027,1 hPa 0,0 l/m 0,7 km/h (0 Bft) N-NO 19 0 min 0,000 mm 0,0 UV-I 0 W/m -0,5 C 0,3 C 3,2 km/h (1 Bft) 100,00 %
15.11.2017 16:42 0,3 C 6,1 C 94 % 1027,1 hPa 0,0 l/m 1,0 km/h (0 Bft) N-NO 19 0 min 0,000 mm 0,0 UV-I 0 W/m -0,5 C 0,3 C 3,2 km/h (1 Bft) 100,00 %
15.11.2017 16:44 0,3 C 6,1 C 94 % 1027,0 hPa 0,0 l/m 0,6 km/h (0 Bft) N-NO 19 0 min 0,000 mm 0,0 UV-I 0 W/m -0,5 C 0,3 C 1,6 km/h (1 Bft) 97,37 %
15.11.2017 16:46 0,3 C 6,1 C 94 % 1027,1 hPa 0,0 l/m 0,7 km/h (0 Bft) N-NO 19 0 min 0,000 mm 0,0 UV-I 0 W/m -0,5 C 0,3 C 4,8 km/h (1 Bft) 98,21 %
15.11.2017 16:48 0,3 C 6,1 C 94 % 1027,1 hPa 0,0 l/m 2,6 km/h (1 Bft) N-NO 19 0 min 0,000 mm 0,0 UV-I 0 W/m -0,5 C 0,3 C 4,8 km/h (1 Bft) 100,00 %
15.11.2017 16:50 0,3 C 6,1 C 94 % 1027,1 hPa 0,0 l/m 3,7 km/h (1 Bft) N-NO 19 0 min 0,000 mm 0,0 UV-I 0 W/m -0,5 C 0,3 C 6,4 km/h (2 Bft) 100,00 %
15.11.2017 16:52 0,3 C 6,1 C 94 % 1027,1 hPa 0,0 l/m 4,5 km/h (1 Bft) N-NO 19 0 min 0,000 mm 0,0 UV-I 0 W/m -0,5 C 0,3 C 4,8 km/h (1 Bft) 100,00 %
15.11.2017 16:54 0,2 C 6,1 C 94 % 1027,1 hPa 0,0 l/m 4,1 km/h (1 Bft) N-NO 19 0 min 0,000 mm 0,0 UV-I 0 W/m -0,6 C 0,2 C 4,8 km/h (1 Bft) 100,00 %
15.11.2017 16:56 0,2 C 6,1 C 94 % 1027,1 hPa 0,0 l/m 1,4 km/h (1 Bft) N-NO 19 0 min 0,000 mm 0,0 UV-I 0 W/m -0,6 C 0,2 C 3,2 km/h (1 Bft) 96,00 %
15.11.2017 16:58 0,2 C 6,1 C 94 % 1027,1 hPa 0,0 l/m 2,9 km/h (1 Bft) N-NO 19 0 min 0,000 mm 0,0 UV-I 0 W/m -0,6 C 0,2 C 4,8 km/h (1 Bft) 97,56 %
15.11.2017 17:00 0,2 C 6,1 C 94 % 1027,1 hPa 0,0 l/m 0,8 km/h (0 Bft) N-NO 19 0 min 0,000 mm 0,0 UV-I 0 W/m -0,6 C 0,2 C 3,2 km/h (1 Bft) 98,11 %
15.11.2017 17:02 0,2 C 6,1 C 94 % 1027,1 hPa 0,0 l/m 0,0 km/h (0 Bft) N-NO 19 0 min 0,000 mm 0,0 UV-I 0 W/m -0,6 C 0,2 C 0,0 km/h (0 Bft) 93,10 %
15.11.2017 17:04 0,2 C 6,1 C 94 % 1027,1 hPa 0,0 l/m 0,0 km/h (0 Bft) N-NO 19 0 min 0,000 mm 0,0 UV-I 0 W/m -0,6 C 0,2 C 0,0 km/h (0 Bft) 98,39 %
15.11.2017 17:06 0,2 C 6,1 C 94 % 1027,1 hPa 0,0 l/m 0,0 km/h (0 Bft) N-NO 19 0 min 0,000 mm 0,0 UV-I 0 W/m -0,6 C 0,2 C 0,0 km/h (0 Bft) 95,74 %
15.11.2017 17:08 0,1 C 6,1 C 94 % 1027,1 hPa 0,0 l/m 1,4 km/h (1 Bft) N-NO 19 0 min 0,000 mm 0,0 UV-I 0 W/m -0,7 C 0,1 C 3,2 km/h (1 Bft) 94,00 %
15.11.2017 17:10 0,1 C 6,1 C 94 % 1027,2 hPa 0,0 l/m 1,2 km/h (1 Bft) N-NO 19 0 min 0,000 mm 0,0 UV-I 0 W/m -0,7 C 0,1 C 3,2 km/h (1 Bft) 95,12 %
15.11.2017 17:12 0,0 C 6,1 C 94 % 1027,1 hPa 0,0 l/m 0,2 km/h (0 Bft) N-NO 19 0 min 0,000 mm 0,0 UV-I 0 W/m -0,8 C 0,0 C 3,2 km/h (1 Bft) 94,74 %
15.11.2017 17:14 0,0 C 6,1 C 94 % 1027,1 hPa 0,0 l/m 0,3 km/h (0 Bft) N-NO 19 0 min 0,000 mm 0,0 UV-I 0 W/m -0,8 C 0,0 C 1,6 km/h (1 Bft) 96,23 %
15.11.2017 17:16 -0,1 C 6,1 C 94 % 1027,1 hPa 0,0 l/m 0,5 km/h (0 Bft) N-NO 19 0 min 0,000 mm 0,0 UV-I 0 W/m -0,9 C -0,1 C 1,6 km/h (1 Bft) 94,64 %
15.11.2017 17:18 -0,1 C 6,1 C 94 % 1027,1 hPa 0,0 l/m 1,3 km/h (1 Bft) N-NO 19 0 min 0,000 mm 0,0 UV-I 0 W/m -0,9 C -0,1 C 3,2 km/h (1 Bft) 95,74 %
15.11.2017 17:20 -0,1 C 6,1 C 94 % 1027,1 hPa 0,0 l/m 0,0 km/h (0 Bft) N-NO 19 0 min 0,000 mm 0,0 UV-I 0 W/m -0,9 C -0,1 C 0,0 km/h (0 Bft) 94,74 %
15.11.2017 17:22 -0,1 C 6,1 C 94 % 1027,1 hPa 0,0 l/m 0,2 km/h (0 Bft) N-NO 19 0 min 0,000 mm 0,0 UV-I 0 W/m -0,9 C -0,1 C 1,6 km/h (1 Bft) 94,34 %
15.11.2017 17:24 -0,1 C 6,1 C 94 % 1027,2 hPa 0,0 l/m 0,4 km/h (0 Bft) N-NO 19 0 min 0,000 mm 0,0 UV-I 0 W/m -0,9 C -0,1 C 3,2 km/h (1 Bft) 92,00 %
15.11.2017 17:26 -0,1 C 6,1 C 94 % 1027,2 hPa 0,0 l/m 1,9 km/h (1 Bft) N-NO 19 0 min 0,000 mm 0,0 UV-I 0 W/m -0,9 C -0,1 C 3,2 km/h (1 Bft) 97,37 %
15.11.2017 17:28 -0,2 C 6,1 C 94 % 1027,1 hPa 0,0 l/m 2,1 km/h (1 Bft) N-NO 19 0 min 0,000 mm 0,0 UV-I 0 W/m -1,0 C -0,2 C 3,2 km/h (1 Bft) 94,00 %
15.11.2017 17:30 -0,2 C 6,1 C 94 % 1027,1 hPa 0,0 l/m 0,0 km/h (0 Bft) N-NO 19 0 min 0,000 mm 0,0 UV-I 0 W/m -1,0 C -0,2 C 0,0 km/h (0 Bft) 96,00 %
15.11.2017 17:32 -0,2 C 6,1 C 94 % 1027,1 hPa 0,0 l/m 0,3 km/h (0 Bft) N-NO 19 0 min 0,000 mm 0,0 UV-I 0 W/m -1,0 C -0,2 C 1,6 km/h (1 Bft) 94,74 %
15.11.2017 17:34 -0,2 C 6,1 C 94 % 1027,1 hPa 0,0 l/m 0,8 km/h (0 Bft) N-NO 19 0 min 0,000 mm 0,0 UV-I 0 W/m -1,0 C -0,2 C 4,8 km/h (1 Bft) 97,87 %
15.11.2017 17:36 -0,1 C 6,1 C 94 % 1027,1 hPa 0,0 l/m 2,5 km/h (1 Bft) N-NO 19 0 min 0,000 mm 0,0 UV-I 0 W/m -0,9 C -0,1 C 3,2 km/h (1 Bft) 93,62 %
15.11.2017 17:38 -0,1 C 6,1 C 94 % 1027,1 hPa 0,0 l/m 1,8 km/h (1 Bft) N-NO 19 0 min 0,000 mm 0,0 UV-I 0 W/m -0,9 C -0,1 C 3,2 km/h (1 Bft) 98,00 %
15.11.2017 17:40 -0,1 C 6,1 C 94 % 1027,1 hPa 0,0 l/m 1,4 km/h (1 Bft) N-NO 19 0 min 0,000 mm 0,0 UV-I 0 W/m -0,9 C -0,1 C 3,2 km/h (1 Bft) 97,44 %
15.11.2017 17:42 -0,1 C 6,1 C 94 % 1027,0 hPa 0,0 l/m 2,1 km/h (1 Bft) N-NO 19 0 min 0,000 mm 0,0 UV-I 0 W/m -0,9 C -0,1 C 3,2 km/h (1 Bft) 92,45 %
15.11.2017 17:44 -0,1 C 6,1 C 94 % 1027,0 hPa 0,0 l/m 0,0 km/h (0 Bft) N-NO 19 0 min 0,000 mm 0,0 UV-I 0 W/m -0,9 C -0,1 C 0,0 km/h (0 Bft) 97,87 %
15.11.2017 17:46 -0,1 C 6,1 C 94 % 1027,0 hPa 0,0 l/m 2,0 km/h (1 Bft) N-NO 19 0 min 0,000 mm 0,0 UV-I 0 W/m -0,9 C -0,1 C 4,8 km/h (1 Bft) 98,11 %
15.11.2017 17:48 -0,1 C 6,1 C 94 % 1027,0 hPa 0,0 l/m 0,6 km/h (0 Bft) N-NO 19 0 min 0,000 mm 0,0 UV-I 0 W/m -0,9 C -0,1 C 3,2 km/h (1 Bft) 98,00 %
15.11.2017 17:50 -0,1 C 6,1 C 94 % 1027,0 hPa 0,0 l/m 1,5 km/h (1 Bft) N-NO 19 0 min 0,000 mm 0,0 UV-I 0 W/m -0,9 C -0,1 C 3,2 km/h (1 Bft) 97,37 %
15.11.2017 17:52 -0,1 C 6,1 C 94 % 1027,0 hPa 0,0 l/m 0,8 km/h (0 Bft) N-NO 19 0 min 0,000 mm 0,0 UV-I 0 W/m -0,9 C -0,1 C 1,6 km/h (1 Bft) 95,74 %
15.11.2017 17:54 -0,1 C 6,1 C 94 % 1027,1 hPa 0,0 l/m 0,1 km/h (0 Bft) N-NO 19 0 min 0,000 mm 0,0 UV-I 0 W/m -0,9 C -0,1 C 1,6 km/h (1 Bft) 98,11 %
15.11.2017 17:56 -0,1 C 6,1 C 94 % 1027,1 hPa 0,0 l/m 2,2 km/h (1 Bft) N-NO 19 0 min 0,000 mm 0,0 UV-I 0 W/m -0,9 C -0,1 C 3,2 km/h (1 Bft) 97,87 %
15.11.2017 17:58 -0,1 C 6,1 C 94 % 1027,0 hPa 0,0 l/m 1,0 km/h (0 Bft) N-NO 19 0 min 0,000 mm 0,0 UV-I 0 W/m -0,9 C -0,1 C 3,2 km/h (1 Bft) 100,00 %
15.11.2017 18:00 -0,1 C 6,1 C 94 % 1027,0 hPa 0,0 l/m 0,1 km/h (0 Bft) N-NO 19 0 min 0,000 mm 0,0 UV-I 0 W/m -0,9 C -0,1 C 1,6 km/h (1 Bft) 100,00 %
15.11.2017 18:02 -0,1 C 6,1 C 94 % 1027,0 hPa 0,0 l/m 1,0 km/h (0 Bft) N-NO 19 0 min 0,000 mm 0,0 UV-I 0 W/m -0,9 C -0,1 C 3,2 km/h (1 Bft) 100,00 %
15.11.2017 18:04 -0,1 C 6,1 C 94 % 1027,0 hPa 0,0 l/m 0,1 km/h (0 Bft) N-NO 19 0 min 0,000 mm 0,0 UV-I 0 W/m -0,9 C -0,1 C 1,6 km/h (1 Bft) 97,87 %
15.11.2017 18:05 -0,1 C 6,1 C 94 % 1027,1 hPa 0,0 l/m 0,0 km/h (0 Bft) N-NO 22 0 min 0,000 mm 0,0 UV-I 0 W/m -0,9 C -0,1 C 3,2 km/h (1 Bft) 98,25 %
15.11.2017 18:10 -0,1 C 6,1 C 94 % 1027,0 hPa 0,0 l/m 1,6 km/h (1 Bft) N-NO 22 0 min 0,000 mm 0,0 UV-I 0 W/m -0,9 C -0,1 C 3,2 km/h (1 Bft) 97,37 %
15.11.2017 18:15 -0,1 C 6,1 C 94 % 1027,1 hPa 0,0 l/m 0,0 km/h (0 Bft) N-NO 22 0 min 0,000 mm 0,0 UV-I 0 W/m -0,9 C -0,1 C 1,6 km/h (1 Bft) 100,00 %
15.11.2017 18:20 -0,1 C 6,1 C 94 % 1027,1 hPa 0,0 l/m 0,0 km/h (0 Bft) N-NO 22 0 min 0,000 mm 0,0 UV-I 0 W/m -0,9 C -0,1 C 3,2 km/h (1 Bft) 99,12 %
15.11.2017 18:25 -0,1 C 6,1 C 94 % 1027,2 hPa 0,0 l/m 3,2 km/h (1 Bft) N-NO 22 0 min 0,000 mm 0,0 UV-I 0 W/m -0,9 C -0,1 C 4,8 km/h (1 Bft) 99,12 %
15.11.2017 18:30 -0,2 C 6,1 C 94 % 1027,1 hPa 0,0 l/m 1,6 km/h (1 Bft) SO 135 0 min 0,000 mm 0,0 UV-I 0 W/m -1,0 C -0,2 C 4,8 km/h (1 Bft) 100,00 %
15.11.2017 18:34 -0,1 C 6,1 C 94 % 1027,1 hPa 0,0 l/m 1,6 km/h (1 Bft) SO 133 0 min 0,000 mm 0,0 UV-I 0 W/m -0,9 C -0,1 C 3,2 km/h (1 Bft) 99,72 %
15.11.2017 18:36 -0,1 C 6,1 C 94 % 1027,1 hPa 0,0 l/m 3,4 km/h (1 Bft) SO 131 0 min 0,000 mm 0,0 UV-I 0 W/m -0,9 C -0,1 C 4,8 km/h (1 Bft) 100,00 %
15.11.2017 18:38 -0,2 C 6,1 C 94 % 1027,1 hPa 0,0 l/m 0,9 km/h (0 Bft) SO 131 0 min 0,000 mm 0,0 UV-I 0 W/m -1,0 C -0,2 C 1,6 km/h (1 Bft) 100,00 %
15.11.2017 18:40 -0,2 C 6,1 C 94 % 1027,1 hPa 0,0 l/m 4,2 km/h (1 Bft) SO 131 0 min 0,000 mm 0,0 UV-I 0 W/m -1,0 C -0,2 C 6,4 km/h (2 Bft) 100,00 %
15.11.2017 18:42 -0,2 C 6,1 C 94 % 1027,1 hPa 0,0 l/m 1,3 km/h (1 Bft) SO 131 0 min 0,000 mm 0,0 UV-I 0 W/m -1,0 C -0,2 C 4,8 km/h (1 Bft) 98,33 %
15.11.2017 18:44 -0,2 C 6,1 C 94 % 1027,1 hPa 0,0 l/m 0,3 km/h (0 Bft) SO 131 0 min 0,000 mm 0,0 UV-I 0 W/m -1,0 C -0,2 C 1,6 km/h (1 Bft) 94,00 %
15.11.2017 18:46 -0,2 C 6,1 C 94 % 1027,1 hPa 0,0 l/m 2,8 km/h (1 Bft) S 183 0 min 0,000 mm 0,0 UV-I 0 W/m -1,0 C -0,2 C 4,8 km/h (1 Bft) 97,56 %
15.11.2017 18:48 -0,2 C 6,1 C 94 % 1027,1 hPa 0,0 l/m 0,9 km/h (0 Bft) S 183 0 min 0,000 mm 0,0 UV-I 0 W/m -1,0 C -0,2 C 3,2 km/h (1 Bft) 100,00 %
15.11.2017 18:50 -0,2 C 6,1 C 94 % 1027,1 hPa 0,0 l/m 0,8 km/h (0 Bft) S 183 0 min 0,000 mm 0,0 UV-I 0 W/m -1,0 C -0,2 C 3,2 km/h (1 Bft) 100,00 %
15.11.2017 18:52 -0,2 C 6,1 C 94 % 1027,1 hPa 0,0 l/m 3,0 km/h (1 Bft) S 183 0 min 0,000 mm 0,0 UV-I 0 W/m -1,0 C -0,2 C 4,8 km/h (1 Bft) 97,87 %
15.11.2017 18:54 -0,2 C 6,1 C 94 % 1027,1 hPa 0,0 l/m 2,5 km/h (1 Bft) S 183 0 min 0,000 mm 0,0 UV-I 0 W/m -1,0 C -0,2 C 4,8 km/h (1 Bft) 100,00 %
15.11.2017 18:56 -0,2 C 6,1 C 94 % 1027,1 hPa 0,0 l/m 2,2 km/h (1 Bft) S 183 0 min 0,000 mm 0,0 UV-I 0 W/m -1,0 C -0,2 C 3,2 km/h (1 Bft) 100,00 %
15.11.2017 18:58 -0,2 C 6,1 C 94 % 1027,1 hPa 0,0 l/m 1,0 km/h (0 Bft) S 183 0 min 0,000 mm 0,0 UV-I 0 W/m -1,0 C -0,2 C 3,2 km/h (1 Bft) 100,00 %
15.11.2017 19:00 -0,2 C 6,1 C 94 % 1027,1 hPa 0,0 l/m 1,8 km/h (1 Bft) S 183 0 min 0,000 mm 0,0 UV-I 0 W/m -1,0 C -0,2 C 3,2 km/h (1 Bft) 98,18 %
15.11.2017 19:02 -0,2 C 6,1 C 94 % 1027,1 hPa 0,0 l/m 1,4 km/h (1 Bft) S 183 0 min 0,000 mm 0,0 UV-I 0 W/m -1,0 C -0,2 C 3,2 km/h (1 Bft) 96,23 %
15.11.2017 19:04 -0,2 C 6,1 C 94 % 1027,1 hPa 0,0 l/m 0,6 km/h (0 Bft) S 183 0 min 0,000 mm 0,0 UV-I 0 W/m -1,0 C -0,2 C 1,6 km/h (1 Bft) 97,87 %
15.11.2017 19:06 -0,2 C 6,1 C 94 % 1027,1 hPa 0,0 l/m 1,2 km/h (1 Bft) S 183 0 min 0,000 mm 0,0 UV-I 0 W/m -1,0 C -0,2 C 3,2 km/h (1 Bft) 94,74 %
15.11.2017 19:08 -0,2 C 6,1 C 94 % 1027,1 hPa 0,0 l/m 1,1 km/h (1 Bft) S 183 0 min 0,000 mm 0,0 UV-I 0 W/m -1,0 C -0,2 C 3,2 km/h (1 Bft) 98,00 %
15.11.2017 19:10 -0,2 C 6,1 C 94 % 1027,1 hPa 0,0 l/m 0,1 km/h (0 Bft) S 183 0 min 0,000 mm 0,0 UV-I 0 W/m -1,0 C -0,2 C 1,6 km/h (1 Bft) 93,62 %
15.11.2017 19:12 -0,3 C 6,1 C 94 % 1027,1 hPa 0,0 l/m 0,0 km/h (0 Bft) S 183 0 min 0,000 mm 0,0 UV-I 0 W/m -1,1 C -0,3 C 0,0 km/h (0 Bft) 97,87 %
15.11.2017 19:14 -0,2 C 6,1 C 94 % 1027,1 hPa 0,0 l/m 0,0 km/h (0 Bft) S 183 0 min 0,000 mm 0,0 UV-I 0 W/m -1,0 C -0,2 C 0,0 km/h (0 Bft) 98,00 %
15.11.2017 19:16 -0,2 C 6,1 C 94 % 1027,1 hPa 0,0 l/m 0,7 km/h (0 Bft) S 183 0 min 0,000 mm 0,0 UV-I 0 W/m -1,0 C -0,2 C 3,2 km/h (1 Bft) 92,31 %
15.11.2017 19:18 -0,2 C 6,1 C 94 % 1027,1 hPa 0,0 l/m 2,4 km/h (1 Bft) S-SO 163 0 min 0,000 mm 0,0 UV-I 0 W/m -1,0 C -0,2 C 6,4 km/h (2 Bft) 95,74 %
15.11.2017 19:20 -0,2 C 6,1 C 94 % 1027,1 hPa 0,0 l/m 3,4 km/h (1 Bft) O-SO 123 0 min 0,000 mm 0,0 UV-I 0 W/m -1,0 C -0,2 C 6,4 km/h (2 Bft) 97,96 %
15.11.2017 19:22 -0,2 C 6,1 C 94 % 1027,1 hPa 0,0 l/m 2,3 km/h (1 Bft) O-SO 123 0 min 0,000 mm 0,0 UV-I 0 W/m -1,0 C -0,2 C 3,2 km/h (1 Bft) 98,00 %
15.11.2017 19:24 -0,3 C 6,1 C 94 % 1027,1 hPa 0,0 l/m 1,4 km/h (1 Bft) O-SO 123 0 min 0,000 mm 0,0 UV-I 0 W/m -1,1 C -0,3 C 3,2 km/h (1 Bft) 98,00 %
15.11.2017 19:26 -0,3 C 6,1 C 94 % 1027,1 hPa 0,0 l/m 1,9 km/h (1 Bft) O-SO 123 0 min 0,000 mm 0,0 UV-I 0 W/m -1,1 C -0,3 C 3,2 km/h (1 Bft) 95,74 %
15.11.2017 19:28 -0,2 C 6,1 C 94 % 1027,1 hPa 0,0 l/m 0,1 km/h (0 Bft) O-SO 123 0 min 0,000 mm 0,0 UV-I 0 W/m -1,0 C -0,2 C 1,6 km/h (1 Bft) 100,00 %
15.11.2017 19:30 -0,2 C 6,1 C 94 % 1027,0 hPa 0,0 l/m 0,0 km/h (0 Bft) O-SO 123 0 min 0,000 mm 0,0 UV-I 0 W/m -1,0 C -0,2 C 1,6 km/h (1 Bft) 94,00 %
15.11.2017 19:32 -0,2 C 6,1 C 94 % 1027,0 hPa 0,0 l/m 1,6 km/h (1 Bft) O-SO 123 0 min 0,000 mm 0,0 UV-I 0 W/m -1,0 C -0,2 C 3,2 km/h (1 Bft) 96,00 %
15.11.2017 19:34 -0,1 C 6,1 C 94 % 1027,0 hPa 0,0 l/m 0,3 km/h (0 Bft) O-SO 123 0 min 0,000 mm 0,0 UV-I 0 W/m -0,9 C -0,1 C 1,6 km/h (1 Bft) 100,00 %
15.11.2017 19:36 -0,2 C 6,1 C 94 % 1027,1 hPa 0,0 l/m 1,0 km/h (0 Bft) O-SO 123 0 min 0,000 mm 0,0 UV-I 0 W/m -1,0 C -0,2 C 3,2 km/h (1 Bft) 100,00 %
15.11.2017 19:38 -0,2 C 6,1 C 94 % 1027,0 hPa 0,0 l/m 1,1 km/h (1 Bft) O-SO 123 0 min 0,000 mm 0,0 UV-I 0 W/m -1,0 C -0,2 C 3,2 km/h (1 Bft) 98,00 %
15.11.2017 19:40 -0,2 C 6,1 C 94 % 1027,0 hPa 0,0 l/m 1,2 km/h (1 Bft) O-SO 123 0 min 0,000 mm 0,0 UV-I 0 W/m -1,0 C -0,2 C 1,6 km/h (1 Bft) 100,00 %
15.11.2017 19:42 -0,2 C 6,1 C 94 % 1027,0 hPa 0,0 l/m 0,3 km/h (0 Bft) O-SO 123 0 min 0,000 mm 0,0 UV-I 0 W/m -1,0 C -0,2 C 1,6 km/h (1 Bft) 100,00 %
15.11.2017 19:44 -0,2 C 6,1 C 94 % 1027,0 hPa 0,0 l/m 1,2 km/h (1 Bft) O-SO 123 0 min 0,000 mm 0,0 UV-I 0 W/m -1,0 C -0,2 C 4,8 km/h (1 Bft) 100,00 %
15.11.2017 19:46 -0,2 C 6,1 C 94 % 1027,0 hPa 0,0 l/m 2,5 km/h (1 Bft) O-SO 123 0 min 0,000 mm 0,0 UV-I 0 W/m -1,0 C -0,2 C 3,2 km/h (1 Bft) 98,00 %
15.11.2017 19:48 -0,2 C 6,1 C 94 % 1027,0 hPa 0,0 l/m 0,7 km/h (0 Bft) O-SO 123 0 min 0,000 mm 0,0 UV-I 0 W/m -1,0 C -0,2 C 3,2 km/h (1 Bft) 100,00 %
15.11.2017 19:50 -0,2 C 6,1 C 94 % 1027,0 hPa 0,0 l/m 1,0 km/h (0 Bft) O-SO 123 0 min 0,000 mm 0,0 UV-I 0 W/m -1,0 C -0,2 C 3,2 km/h (1 Bft) 100,00 %
15.11.2017 19:52 -0,2 C 6,1 C 94 % 1027,1 hPa 0,0 l/m 1,6 km/h (1 Bft) O-SO 123 0 min 0,000 mm 0,0 UV-I 0 W/m -1,0 C -0,2 C 3,2 km/h (1 Bft) 100,00 %
15.11.2017 19:54 -0,2 C 6,1 C 94 % 1027,1 hPa 0,0 l/m 0,0 km/h (0 Bft) O-SO 123 0 min 0,000 mm 0,0 UV-I 0 W/m -1,0 C -0,2 C 0,0 km/h (0 Bft) 97,62 %
15.11.2017 19:56 -0,2 C 6,1 C 94 % 1027,1 hPa 0,0 l/m 0,0 km/h (0 Bft) O-SO 123 0 min 0,000 mm 0,0 UV-I 0 W/m -1,0 C -0,2 C 0,0 km/h (0 Bft) 100,00 %
15.11.2017 19:58 -0,2 C 6,1 C 94 % 1027,1 hPa 0,0 l/m 0,0 km/h (0 Bft) O-SO 123 0 min 0,000 mm 0,0 UV-I 0 W/m -1,0 C -0,2 C 0,0 km/h (0 Bft) 100,00 %
15.11.2017 20:00 -0,1 C 6,1 C 95 % 1027,1 hPa 0,0 l/m 0,0 km/h (0 Bft) O-SO 123 0 min 0,000 mm 0,0 UV-I 0 W/m -0,8 C -0,1 C 0,0 km/h (0 Bft) 100,00 %
15.11.2017 20:02 -0,1 C 6,1 C 95 % 1027,1 hPa 0,0 l/m 0,0 km/h (0 Bft) O-SO 123 0 min 0,000 mm 0,0 UV-I 0 W/m -0,8 C -0,1 C 0,0 km/h (0 Bft) 100,00 %
15.11.2017 20:04 -0,1 C 6,1 C 95 % 1027,1 hPa 0,0 l/m 0,0 km/h (0 Bft) O-SO 123 0 min 0,000 mm 0,0 UV-I 0 W/m -0,8 C -0,1 C 0,0 km/h (0 Bft) 100,00 %
15.11.2017 20:06 -0,1 C 6,1 C 95 % 1027,1 hPa 0,0 l/m 0,0 km/h (0 Bft) O-SO 123 0 min 0,000 mm 0,0 UV-I 0 W/m -0,8 C -0,1 C 0,0 km/h (0 Bft) 100,00 %
15.11.2017 20:08 -0,1 C 6,1 C 95 % 1027,1 hPa 0,0 l/m 0,2 km/h (0 Bft) O-SO 123 0 min 0,000 mm 0,0 UV-I 0 W/m -0,8 C -0,1 C 1,6 km/h (1 Bft) 100,00 %
15.11.2017 20:10 -0,1 C 6,1 C 94 % 1027,2 hPa 0,0 l/m 0,8 km/h (0 Bft) O-SO 123 0 min 0,000 mm 0,0 UV-I 0 W/m -0,9 C -0,1 C 1,6 km/h (1 Bft) 100,00 %
15.11.2017 20:12 -0,1 C 6,1 C 95 % 1027,2 hPa 0,0 l/m 0,0 km/h (0 Bft) O-SO 123 0 min 0,000 mm 0,0 UV-I 0 W/m -0,8 C -0,1 C 0,0 km/h (0 Bft) 100,00 %
15.11.2017 20:14 -0,2 C 6,1 C 94 % 1027,2 hPa 0,0 l/m 0,0 km/h (0 Bft) O-SO 123 0 min 0,000 mm 0,0 UV-I 0 W/m -1,0 C -0,2 C 0,0 km/h (0 Bft) 100,00 %
15.11.2017 20:16 -0,2 C 6,1 C 95 % 1027,2 hPa 0,0 l/m 0,8 km/h (0 Bft) O-SO 123 0 min 0,000 mm 0,0 UV-I 0 W/m -0,9 C -0,2 C 3,2 km/h (1 Bft) 97,37 %
15.11.2017 20:18 -0,2 C 6,1 C 95 % 1027,3 hPa 0,0 l/m 2,3 km/h (1 Bft) O-SO 123 0 min 0,000 mm 0,0 UV-I 0 W/m -0,9 C -0,2 C 3,2 km/h (1 Bft) 98,00 %
15.11.2017 20:20 -0,2 C 6,1 C 95 % 1027,2 hPa 0,0 l/m 1,6 km/h (1 Bft) O-SO 123 0 min 0,000 mm 0,0 UV-I 0 W/m -0,9 C -0,2 C 3,2 km/h (1 Bft) 96,23 %
15.11.2017 20:22 -0,2 C 6,1 C 95 % 1027,3 hPa 0,0 l/m 0,9 km/h (0 Bft) O-SO 123 0 min 0,000 mm 0,0 UV-I 0 W/m -0,9 C -0,2 C 1,6 km/h (1 Bft) 97,56 %
15.11.2017 20:24 -0,2 C 6,1 C 95 % 1027,3 hPa 0,0 l/m 0,8 km/h (0 Bft) O-SO 123 0 min 0,000 mm 0,0 UV-I 0 W/m -0,9 C -0,2 C 3,2 km/h (1 Bft) 98,00 %
15.11.2017 20:26 -0,2 C 6,1 C 95 % 1027,3 hPa 0,0 l/m 0,9 km/h (0 Bft) O-SO 123 0 min 0,000 mm 0,0 UV-I 0 W/m -0,9 C -0,2 C 3,2 km/h (1 Bft) 97,56 %
15.11.2017 20:28 -0,2 C 6,1 C 95 % 1027,3 hPa 0,0 l/m 0,7 km/h (0 Bft) O-SO 123 0 min 0,000 mm 0,0 UV-I 0 W/m -0,9 C -0,2 C 1,6 km/h (1 Bft) 96,23 %
15.11.2017 20:30 -0,1 C 6,1 C 95 % 1027,3 hPa 0,0 l/m 0,0 km/h (0 Bft) O-SO 123 0 min 0,000 mm 0,0 UV-I 0 W/m -0,8 C -0,1 C 0,0 km/h (0 Bft) 95,74 %
15.11.2017 20:32 -0,2 C 6,1 C 95 % 1027,3 hPa 0,0 l/m 0,0 km/h (0 Bft) O-SO 123 0 min 0,000 mm 0,0 UV-I 0 W/m -0,9 C -0,2 C 0,0 km/h (0 Bft) 96,00 %
15.11.2017 20:34 -0,2 C 6,1 C 95 % 1027,3 hPa 0,0 l/m 0,0 km/h (0 Bft) O-SO 123 0 min 0,000 mm 0,0 UV-I 0 W/m -0,9 C -0,2 C 0,0 km/h (0 Bft) 95,74 %
15.11.2017 20:36 -0,2 C 6,1 C 95 % 1027,3 hPa 0,0 l/m 0,0 km/h (0 Bft) O-SO 123 0 min 0,000 mm 0,0 UV-I 0 W/m -0,9 C -0,2 C 0,0 km/h (0 Bft) 97,87 %
15.11.2017 20:38 -0,1 C 6,1 C 95 % 1027,3 hPa 0,0 l/m 0,0 km/h (0 Bft) O-SO 123 0 min 0,000 mm 0,0 UV-I 0 W/m -0,8 C -0,1 C 0,0 km/h (0 Bft) 97,44 %
15.11.2017 20:40 -0,1 C 6,1 C 95 % 1027,3 hPa 0,0 l/m 0,0 km/h (0 Bft) O-SO 123 0 min 0,000 mm 0,0 UV-I 0 W/m -0,8 C -0,1 C 0,0 km/h (0 Bft) 98,11 %
15.11.2017 20:42 -0,1 C 6,1 C 95 % 1027,4 hPa 0,0 l/m 0,0 km/h (0 Bft) O-SO 123 0 min 0,000 mm 0,0 UV-I 0 W/m -0,8 C -0,1 C 0,0 km/h (0 Bft) 97,37 %
15.11.2017 20:44 -0,1 C 6,1 C 95 % 1027,4 hPa 0,0 l/m 0,5 km/h (0 Bft) O-SO 123 0 min 0,000 mm 0,0 UV-I 0 W/m -0,8 C -0,1 C 1,6 km/h (1 Bft) 98,11 %
15.11.2017 20:46 -0,1 C 6,1 C 95 % 1027,4 hPa 0,0 l/m 0,5 km/h (0 Bft) O-SO 123 0 min 0,000 mm 0,0 UV-I 0 W/m -0,8 C -0,1 C 1,6 km/h (1 Bft) 98,00 %
15.11.2017 20:48 -0,1 C 6,1 C 95 % 1027,3 hPa 0,0 l/m 1,5 km/h (1 Bft) O-SO 123 0 min 0,000 mm 0,0 UV-I 0 W/m -0,8 C -0,1 C 3,2 km/h (1 Bft) 93,62 %
15.11.2017 20:50 0,0 C 6,1 C 95 % 1027,3 hPa 0,0 l/m 0,5 km/h (0 Bft) O-SO 123 0 min 0,000 mm 0,0 UV-I 0 W/m -0,7 C 0,0 C 1,6 km/h (1 Bft) 97,73 %
15.11.2017 20:52 0,1 C 6,1 C 95 % 1027,3 hPa 0,0 l/m 0,1 km/h (0 Bft) O-SO 123 0 min 0,000 mm 0,0 UV-I 0 W/m -0,6 C 0,1 C 1,6 km/h (1 Bft) 100,00 %
15.11.2017 20:54 0,0 C 6,1 C 95 % 1027,4 hPa 0,0 l/m 0,5 km/h (0 Bft) O-SO 123 0 min 0,000 mm 0,0 UV-I 0 W/m -0,7 C 0,0 C 3,2 km/h (1 Bft) 96,23 %
15.11.2017 20:56 0,1 C 6,1 C 95 % 1027,4 hPa 0,0 l/m 0,0 km/h (0 Bft) O-SO 123 0 min 0,000 mm 0,0 UV-I 0 W/m -0,6 C 0,1 C 0,0 km/h (0 Bft) 96,00 %
15.11.2017 20:58 0,0 C 6,1 C 95 % 1027,4 hPa 0,0 l/m 0,0 km/h (0 Bft) O-SO 123 0 min 0,000 mm 0,0 UV-I 0 W/m -0,7 C 0,0 C 1,6 km/h (1 Bft) 94,74 %
15.11.2017 21:00 0,0 C 6,1 C 95 % 1027,4 hPa 0,0 l/m 0,2 km/h (0 Bft) O-SO 123 0 min 0,000 mm 0,0 UV-I 0 W/m -0,7 C 0,0 C 1,6 km/h (1 Bft) 96,23 %
15.11.2017 21:02 0,0 C 6,1 C 95 % 1027,4 hPa 0,0 l/m 0,0 km/h (0 Bft) O-SO 123 0 min 0,000 mm 0,0 UV-I 0 W/m -0,7 C 0,0 C 1,6 km/h (1 Bft) 96,00 %
15.11.2017 21:04 0,0 C 6,1 C 95 % 1027,4 hPa 0,0 l/m 0,3 km/h (0 Bft) O-SO 123 0 min 0,000 mm 0,0 UV-I 0 W/m -0,7 C 0,0 C 1,6 km/h (1 Bft) 97,87 %
15.11.2017 21:06 0,0 C 6,1 C 95 % 1027,4 hPa 0,0 l/m 0,0 km/h (0 Bft) O-SO 123 0 min 0,000 mm 0,0 UV-I 0 W/m -0,7 C 0,0 C 0,0 km/h (0 Bft) 95,74 %
15.11.2017 21:08 0,0 C 6,1 C 95 % 1027,3 hPa 0,0 l/m 0,0 km/h (0 Bft) O-SO 123 0 min 0,000 mm 0,0 UV-I 0 W/m -0,7 C 0,0 C 0,0 km/h (0 Bft) 91,43 %
15.11.2017 21:10 0,0 C 6,1 C 95 % 1027,4 hPa 0,0 l/m 0,0 km/h (0 Bft) O-SO 123 0 min 0,000 mm 0,0 UV-I 0 W/m -0,7 C 0,0 C 1,6 km/h (1 Bft) 94,64 %
15.11.2017 21:12 -0,1 C 6,1 C 95 % 1027,4 hPa 0,0 l/m 0,0 km/h (0 Bft) O-SO 123 0 min 0,000 mm 0,0 UV-I 0 W/m -0,8 C -0,1 C 0,0 km/h (0 Bft) 94,87 %
15.11.2017 21:14 -0,1 C 6,1 C 95 % 1027,4 hPa 0,0 l/m 0,0 km/h (0 Bft) O-SO 123 0 min 0,000 mm 0,0 UV-I 0 W/m -0,8 C -0,1 C 0,0 km/h (0 Bft) 95,74 %
15.11.2017 21:16 -0,1 C 6,1 C 95 % 1027,4 hPa 0,0 l/m 0,0 km/h (0 Bft) O-SO 123 0 min 0,000 mm 0,0 UV-I 0 W/m -0,8 C -0,1 C 0,0 km/h (0 Bft) 95,74 %
15.11.2017 21:18 -0,1 C 6,1 C 95 % 1027,4 hPa 0,0 l/m 0,8 km/h (0 Bft) O-SO 123 0 min 0,000 mm 0,0 UV-I 0 W/m -0,8 C -0,1 C 3,2 km/h (1 Bft) 98,08 %
15.11.2017 21:20 -0,1 C 6,1 C 95 % 1027,4 hPa 0,0 l/m 0,0 km/h (0 Bft) O-SO 123 0 min 0,000 mm 0,0 UV-I 0 W/m -0,8 C -0,1 C 0,0 km/h (0 Bft) 96,08 %
15.11.2017 21:22 -0,1 C 6,1 C 95 % 1027,4 hPa 0,0 l/m 0,0 km/h (0 Bft) O-SO 123 0 min 0,000 mm 0,0 UV-I 0 W/m -0,8 C -0,1 C 1,6 km/h (1 Bft) 97,44 %
15.11.2017 21:24 0,0 C 6,1 C 95 % 1027,4 hPa 0,0 l/m 0,0 km/h (0 Bft) O-SO 123 0 min 0,000 mm 0,0 UV-I 0 W/m -0,7 C 0,0 C 1,6 km/h (1 Bft) 98,00 %
15.11.2017 21:26 0,0 C 6,1 C 95 % 1027,4 hPa 0,0 l/m 3,0 km/h (1 Bft) O-SO 123 0 min 0,000 mm 0,0 UV-I 0 W/m -0,7 C 0,0 C 4,8 km/h (1 Bft) 97,96 %
15.11.2017 21:28 0,0 C 6,1 C 95 % 1027,5 hPa 0,0 l/m 2,3 km/h (1 Bft) O-SO 123 0 min 0,000 mm 0,0 UV-I 0 W/m -0,7 C 0,0 C 3,2 km/h (1 Bft) 96,00 %
15.11.2017 21:30 0,0 C 6,1 C 95 % 1027,4 hPa 0,0 l/m 2,1 km/h (1 Bft) O-SO 123 0 min 0,000 mm 0,0 UV-I 0 W/m -0,7 C 0,0 C 3,2 km/h (1 Bft) 100,00 %
15.11.2017 21:32 0,0 C 6,1 C 95 % 1027,4 hPa 0,0 l/m 0,0 km/h (0 Bft) O-SO 123 0 min 0,000 mm 0,0 UV-I 0 W/m -0,7 C 0,0 C 1,6 km/h (1 Bft) 96,23 %
15.11.2017 21:34 0,1 C 6,1 C 95 % 1027,4 hPa 0,0 l/m 0,0 km/h (0 Bft) O-SO 123 0 min 0,000 mm 0,0 UV-I 0 W/m -0,6 C 0,1 C 0,0 km/h (0 Bft) 97,87 %
15.11.2017 21:36 0,1 C 6,1 C 95 % 1027,4 hPa 0,0 l/m 0,0 km/h (0 Bft) O-SO 123 0 min 0,000 mm 0,0 UV-I 0 W/m -0,6 C 0,1 C 1,6 km/h (1 Bft) 100,00 %
15.11.2017 21:38 0,1 C 6,1 C 95 % 1027,4 hPa 0,0 l/m 0,9 km/h (0 Bft) O-SO 123 0 min 0,000 mm 0,0 UV-I 0 W/m -0,6 C 0,1 C 3,2 km/h (1 Bft) 100,00 %
15.11.2017 21:40 0,1 C 6,1 C 95 % 1027,4 hPa 0,0 l/m 1,4 km/h (1 Bft) O-SO 123 0 min 0,000 mm 0,0 UV-I 0 W/m -0,6 C 0,1 C 3,2 km/h (1 Bft) 98,11 %
15.11.2017 21:42 0,1 C 6,1 C 95 % 1027,4 hPa 0,0 l/m 0,3 km/h (0 Bft) O-SO 123 0 min 0,000 mm 0,0 UV-I 0 W/m -0,6 C 0,1 C 1,6 km/h (1 Bft) 100,00 %
15.11.2017 21:44 0,1 C 6,1 C 95 % 1027,4 hPa 0,0 l/m 0,0 km/h (0 Bft) O-SO 123 0 min 0,000 mm 0,0 UV-I 0 W/m -0,6 C 0,1 C 0,0 km/h (0 Bft) 98,00 %
15.11.2017 21:46 0,1 C 6,1 C 95 % 1027,4 hPa 0,0 l/m 0,0 km/h (0 Bft) O-SO 123 0 min 0,000 mm 0,0 UV-I 0 W/m -0,6 C 0,1 C 0,0 km/h (0 Bft) 100,00 %
15.11.2017 21:48 0,2 C 6,1 C 95 % 1027,3 hPa 0,0 l/m 1,5 km/h (1 Bft) O-SO 123 0 min 0,000 mm 0,0 UV-I 0 W/m -0,5 C 0,2 C 3,2 km/h (1 Bft) 100,00 %
15.11.2017 21:50 0,2 C 6,1 C 95 % 1027,3 hPa 0,0 l/m 1,4 km/h (1 Bft) O-SO 123 0 min 0,000 mm 0,0 UV-I 0 W/m -0,5 C 0,2 C 3,2 km/h (1 Bft) 100,00 %
15.11.2017 21:52 0,2 C 6,1 C 95 % 1027,3 hPa 0,0 l/m 0,0 km/h (0 Bft) O-SO 123 0 min 0,000 mm 0,0 UV-I 0 W/m -0,5 C 0,2 C 0,0 km/h (0 Bft) 100,00 %
15.11.2017 21:54 0,2 C 6,1 C 95 % 1027,2 hPa 0,0 l/m 0,3 km/h (0 Bft) O-SO 123 0 min 0,000 mm 0,0 UV-I 0 W/m -0,5 C 0,2 C 1,6 km/h (1 Bft) 98,00 %
15.11.2017 21:56 0,2 C 6,1 C 95 % 1027,2 hPa 0,0 l/m 0,4 km/h (0 Bft) O-SO 123 0 min 0,000 mm 0,0 UV-I 0 W/m -0,5 C 0,2 C 1,6 km/h (1 Bft) 100,00 %
15.11.2017 21:58 0,2 C 6,1 C 95 % 1027,2 hPa 0,0 l/m 0,0 km/h (0 Bft) O-SO 123 0 min 0,000 mm 0,0 UV-I 0 W/m -0,5 C 0,2 C 0,0 km/h (0 Bft) 100,00 %
15.11.2017 22:00 0,2 C 6,1 C 95 % 1027,2 hPa 0,0 l/m 3,0 km/h (1 Bft) O-SO 123 0 min 0,000 mm 0,0 UV-I 0 W/m -0,5 C 0,2 C 6,4 km/h (2 Bft) 98,00 %
15.11.2017 22:02 0,2 C 6,1 C 95 % 1027,2 hPa 0,0 l/m 3,7 km/h (1 Bft) O-SO 123 0 min 0,000 mm 0,0 UV-I 0 W/m -0,5 C 0,2 C 4,8 km/h (1 Bft) 100,00 %
15.11.2017 22:04 0,2 C 6,1 C 95 % 1027,1 hPa 0,0 l/m 3,0 km/h (1 Bft) O-SO 123 0 min 0,000 mm 0,0 UV-I 0 W/m -0,5 C 0,2 C 4,8 km/h (1 Bft) 100,00 %
15.11.2017 22:06 0,2 C 6,1 C 95 % 1027,1 hPa 0,0 l/m 1,9 km/h (1 Bft) O-SO 123 0 min 0,000 mm 0,0 UV-I 0 W/m -0,5 C 0,2 C 4,8 km/h (1 Bft) 97,37 %
15.11.2017 22:08 0,2 C 6,1 C 95 % 1027,1 hPa 0,0 l/m 3,6 km/h (1 Bft) O-SO 123 0 min 0,000 mm 0,0 UV-I 0 W/m -0,5 C 0,2 C 4,8 km/h (1 Bft) 100,00 %
15.11.2017 22:10 0,2 C 6,1 C 95 % 1027,0 hPa 0,0 l/m 3,7 km/h (1 Bft) O-SO 123 0 min 0,000 mm 0,0 UV-I 0 W/m -0,5 C 0,2 C 4,8 km/h (1 Bft) 100,00 %
15.11.2017 22:12 0,2 C 6,1 C 95 % 1027,0 hPa 0,0 l/m 3,1 km/h (1 Bft) O-SO 123 0 min 0,000 mm 0,0 UV-I 0 W/m -0,5 C 0,2 C 4,8 km/h (1 Bft) 100,00 %
15.11.2017 22:14 0,1 C 6,1 C 95 % 1027,0 hPa 0,0 l/m 2,8 km/h (1 Bft) O-SO 123 0 min 0,000 mm 0,0 UV-I 0 W/m -0,6 C 0,1 C 4,8 km/h (1 Bft) 100,00 %
15.11.2017 22:16 0,1 C 6,1 C 95 % 1027,0 hPa 0,0 l/m 2,3 km/h (1 Bft) O-SO 123 0 min 0,000 mm 0,0 UV-I 0 W/m -0,6 C 0,1 C 4,8 km/h (1 Bft) 100,00 %
15.11.2017 22:18 0,1 C 6,1 C 95 % 1026,9 hPa 0,0 l/m 2,2 km/h (1 Bft) O-SO 123 0 min 0,000 mm 0,0 UV-I 0 W/m -0,6 C 0,1 C 4,8 km/h (1 Bft) 100,00 %
15.11.2017 22:20 0,1 C 6,1 C 95 % 1026,9 hPa 0,0 l/m 1,8 km/h (1 Bft) O-SO 123 0 min 0,000 mm 0,0 UV-I 0 W/m -0,6 C 0,1 C 3,2 km/h (1 Bft) 100,00 %
15.11.2017 22:22 0,1 C 6,1 C 95 % 1026,9 hPa 0,0 l/m 1,2 km/h (1 Bft) O-SO 123 0 min 0,000 mm 0,0 UV-I 0 W/m -0,6 C 0,1 C 3,2 km/h (1 Bft) 98,00 %
15.11.2017 22:24 0,1 C 6,1 C 95 % 1027,0 hPa 0,0 l/m 3,0 km/h (1 Bft) O-SO 123 0 min 0,000 mm 0,0 UV-I 0 W/m -0,6 C 0,1 C 4,8 km/h (1 Bft) 100,00 %
15.11.2017 22:26 0,2 C 6,1 C 95 % 1027,0 hPa 0,0 l/m 3,3 km/h (1 Bft) O-SO 123 0 min 0,000 mm 0,0 UV-I 0 W/m -0,5 C 0,2 C 4,8 km/h (1 Bft) 100,00 %
15.11.2017 22:28 0,1 C 6,1 C 95 % 1026,9 hPa 0,0 l/m 2,5 km/h (1 Bft) O-SO 123 0 min 0,000 mm 0,0 UV-I 0 W/m -0,6 C 0,1 C 4,8 km/h (1 Bft) 100,00 %
15.11.2017 22:30 0,1 C 6,1 C 95 % 1026,9 hPa 0,0 l/m 2,1 km/h (1 Bft) O-SO 123 0 min 0,000 mm 0,0 UV-I 0 W/m -0,6 C 0,1 C 3,2 km/h (1 Bft) 100,00 %
15.11.2017 22:32 0,2 C 6,1 C 95 % 1026,9 hPa 0,0 l/m 2,5 km/h (1 Bft) O-SO 123 0 min 0,000 mm 0,0 UV-I 0 W/m -0,5 C 0,2 C 4,8 km/h (1 Bft) 100,00 %
15.11.2017 22:34 0,2 C 6,1 C 95 % 1026,9 hPa 0,0 l/m 2,9 km/h (1 Bft) O-SO 123 0 min 0,000 mm 0,0 UV-I 0 W/m -0,5 C 0,2 C 4,8 km/h (1 Bft) 100,00 %
15.11.2017 22:36 0,2 C 6,1 C 96 % 1026,9 hPa 0,0 l/m 3,4 km/h (1 Bft) O-SO 123 0 min 0,000 mm 0,0 UV-I 0 W/m -0,4 C 0,2 C 4,8 km/h (1 Bft) 100,00 %
15.11.2017 22:38 0,2 C 6,1 C 96 % 1026,9 hPa 0,0 l/m 3,0 km/h (1 Bft) O-SO 123 0 min 0,000 mm 0,0 UV-I 0 W/m -0,4 C 0,2 C 4,8 km/h (1 Bft) 100,00 %
15.11.2017 22:40 0,2 C 6,1 C 95 % 1026,8 hPa 0,0 l/m 3,1 km/h (1 Bft) O-SO 123 0 min 0,000 mm 0,0 UV-I 0 W/m -0,5 C 0,2 C 4,8 km/h (1 Bft) 98,11 %
15.11.2017 22:42 0,1 C 6,1 C 95 % 1026,8 hPa 0,0 l/m 6,7 km/h (2 Bft) O-NO 69 0 min 0,000 mm 0,0 UV-I 0 W/m -0,6 C -0,2 C 9,7 km/h (2 Bft) 100,00 %
15.11.2017 22:44 0,1 C 6,1 C 95 % 1026,8 hPa 0,0 l/m 6,0 km/h (2 Bft) O 82 0 min 0,000 mm 0,0 UV-I 0 W/m -0,6 C 0,1 C 8,0 km/h (2 Bft) 100,00 %
15.11.2017 22:46 0,1 C 6,1 C 96 % 1026,8 hPa 0,0 l/m 3,5 km/h (1 Bft) O-NO 77 0 min 0,000 mm 0,0 UV-I 0 W/m -0,5 C 0,1 C 6,4 km/h (2 Bft) 100,00 %
15.11.2017 22:48 0,1 C 6,1 C 96 % 1026,7 hPa 0,0 l/m 4,4 km/h (1 Bft) O-NO 76 0 min 0,000 mm 0,0 UV-I 0 W/m -0,5 C 0,1 C 8,0 km/h (2 Bft) 100,00 %
15.11.2017 22:50 0,1 C 6,1 C 96 % 1026,7 hPa 0,0 l/m 6,6 km/h (2 Bft) O-NO 75 0 min 0,000 mm 0,0 UV-I 0 W/m -0,5 C -0,1 C 11,3 km/h (2 Bft) 100,00 %
15.11.2017 22:52 0,0 C 6,1 C 96 % 1026,7 hPa 0,0 l/m 6,9 km/h (2 Bft) O-NO 70 0 min 0,000 mm 0,0 UV-I 0 W/m -0,6 C -0,5 C 11,3 km/h (2 Bft) 100,00 %
15.11.2017 22:54 -0,1 C 6,1 C 96 % 1026,7 hPa 0,0 l/m 6,8 km/h (2 Bft) O-NO 70 0 min 0,000 mm 0,0 UV-I 0 W/m -0,7 C -0,5 C 9,7 km/h (2 Bft) 100,00 %
15.11.2017 22:56 -0,1 C 6,1 C 96 % 1026,7 hPa 0,0 l/m 5,0 km/h (1 Bft) O-NO 70 0 min 0,000 mm 0,0 UV-I 0 W/m -0,7 C -0,1 C 8,0 km/h (2 Bft) 98,00 %
15.11.2017 22:58 0,0 C 6,1 C 96 % 1026,7 hPa 0,0 l/m 5,1 km/h (1 Bft) O-NO 70 0 min 0,000 mm 0,0 UV-I 0 W/m -0,6 C 0,0 C 6,4 km/h (2 Bft) 100,00 %
15.11.2017 23:00 0,0 C 6,1 C 96 % 1026,6 hPa 0,0 l/m 3,1 km/h (1 Bft) O-NO 70 0 min 0,000 mm 0,0 UV-I 0 W/m -0,6 C 0,0 C 4,8 km/h (1 Bft) 97,87 %
15.11.2017 23:02 -0,1 C 6,1 C 96 % 1026,5 hPa 0,0 l/m 3,8 km/h (1 Bft) O-NO 70 0 min 0,000 mm 0,0 UV-I 0 W/m -0,7 C -0,1 C 6,4 km/h (2 Bft) 97,87 %
15.11.2017 23:04 0,0 C 6,1 C 96 % 1026,5 hPa 0,0 l/m 2,7 km/h (1 Bft) O-NO 70 0 min 0,000 mm 0,0 UV-I 0 W/m -0,6 C 0,0 C 4,8 km/h (1 Bft) 96,00 %
15.11.2017 23:06 0,0 C 6,1 C 96 % 1026,5 hPa 0,0 l/m 3,2 km/h (1 Bft) O-NO 70 0 min 0,000 mm 0,0 UV-I 0 W/m -0,6 C 0,0 C 4,8 km/h (1 Bft) 97,56 %
15.11.2017 23:08 0,0 C 6,1 C 96 % 1026,5 hPa 0,0 l/m 4,1 km/h (1 Bft) O-NO 70 0 min 0,000 mm 0,0 UV-I 0 W/m -0,6 C 0,0 C 6,4 km/h (2 Bft) 98,00 %
15.11.2017 23:10 0,0 C 6,1 C 96 % 1026,5 hPa 0,0 l/m 2,5 km/h (1 Bft) O-NO 70 0 min 0,000 mm 0,0 UV-I 0 W/m -0,6 C 0,0 C 4,8 km/h (1 Bft) 97,62 %
15.11.2017 23:12 0,0 C 6,1 C 96 % 1026,5 hPa 0,0 l/m 3,1 km/h (1 Bft) O-NO 70 0 min 0,000 mm 0,0 UV-I 0 W/m -0,6 C 0,0 C 4,8 km/h (1 Bft) 96,15 %
15.11.2017 23:14 0,1 C 6,1 C 96 % 1026,5 hPa 0,0 l/m 3,8 km/h (1 Bft) O-NO 70 0 min 0,000 mm 0,0 UV-I 0 W/m -0,5 C 0,1 C 6,4 km/h (2 Bft) 95,74 %
15.11.2017 23:16 0,0 C 6,1 C 96 % 1026,5 hPa 0,0 l/m 3,5 km/h (1 Bft) O-NO 70 0 min 0,000 mm 0,0 UV-I 0 W/m -0,6 C 0,0 C 4,8 km/h (1 Bft) 97,92 %
15.11.2017 23:18 0,1 C 6,1 C 96 % 1026,5 hPa 0,0 l/m 4,0 km/h (1 Bft) O-NO 70 0 min 0,000 mm 0,0 UV-I 0 W/m -0,5 C 0,1 C 6,4 km/h (2 Bft) 96,00 %
15.11.2017 23:20 0,1 C 6,1 C 96 % 1026,5 hPa 0,0 l/m 3,4 km/h (1 Bft) O-NO 70 0 min 0,000 mm 0,0 UV-I 0 W/m -0,5 C 0,1 C 4,8 km/h (1 Bft) 98,00 %
15.11.2017 23:22 0,1 C 6,1 C 96 % 1026,5 hPa 0,0 l/m 4,8 km/h (1 Bft) O-SO 122 0 min 0,000 mm 0,0 UV-I 0 W/m -0,5 C 0,1 C 6,4 km/h (2 Bft) 97,44 %
15.11.2017 23:24 0,1 C 6,1 C 96 % 1026,4 hPa 0,0 l/m 2,9 km/h (1 Bft) O-SO 122 0 min 0,000 mm 0,0 UV-I 0 W/m -0,5 C 0,1 C 4,8 km/h (1 Bft) 97,87 %
15.11.2017 23:26 0,1 C 6,1 C 96 % 1026,5 hPa 0,0 l/m 3,7 km/h (1 Bft) O 101 0 min 0,000 mm 0,0 UV-I 0 W/m -0,5 C 0,1 C 6,4 km/h (2 Bft) 96,23 %
15.11.2017 23:28 0,2 C 6,1 C 96 % 1026,4 hPa 0,0 l/m 3,3 km/h (1 Bft) O 101 0 min 0,000 mm 0,0 UV-I 0 W/m -0,4 C 0,2 C 4,8 km/h (1 Bft) 95,74 %
15.11.2017 23:30 0,1 C 6,1 C 96 % 1026,4 hPa 0,0 l/m 1,5 km/h (1 Bft) O 101 0 min 0,000 mm 0,0 UV-I 0 W/m -0,5 C 0,1 C 3,2 km/h (1 Bft) 97,87 %
15.11.2017 23:32 0,1 C 6,1 C 96 % 1026,5 hPa 0,0 l/m 1,0 km/h (0 Bft) O 79 0 min 0,000 mm 0,0 UV-I 0 W/m -0,5 C 0,1 C 6,4 km/h (2 Bft) 93,62 %
15.11.2017 23:34 0,1 C 6,1 C 96 % 1026,5 hPa 0,0 l/m 5,1 km/h (1 Bft) O-NO 75 0 min 0,000 mm 0,0 UV-I 0 W/m -0,5 C 0,1 C 8,0 km/h (2 Bft) 97,73 %
15.11.2017 23:36 0,1 C 6,1 C 96 % 1026,5 hPa 0,0 l/m 5,1 km/h (1 Bft) O 88 0 min 0,000 mm 0,0 UV-I 0 W/m -0,5 C 0,1 C 8,0 km/h (2 Bft) 95,74 %
15.11.2017 23:38 0,1 C 6,1 C 96 % 1026,5 hPa 0,0 l/m 3,3 km/h (1 Bft) O-NO 76 0 min 0,000 mm 0,0 UV-I 0 W/m -0,5 C 0,1 C 6,4 km/h (2 Bft) 94,29 %
15.11.2017 23:40 0,0 C 6,1 C 96 % 1026,5 hPa 0,0 l/m 4,3 km/h (1 Bft) O-NO 76 0 min 0,000 mm 0,0 UV-I 0 W/m -0,6 C 0,0 C 6,4 km/h (2 Bft) 97,73 %
15.11.2017 23:42 0,0 C 6,1 C 96 % 1026,5 hPa 0,0 l/m 4,8 km/h (1 Bft) O-NO 62 0 min 0,000 mm 0,0 UV-I 0 W/m -0,6 C 0,0 C 8,0 km/h (2 Bft) 96,77 %
15.11.2017 23:44 0,0 C 6,1 C 96 % 1026,4 hPa 0,0 l/m 4,6 km/h (1 Bft) O-NO 62 0 min 0,000 mm 0,0 UV-I 0 W/m -0,6 C 0,0 C 8,0 km/h (2 Bft) 98,00 %
15.11.2017 23:46 0,0 C 6,1 C 96 % 1026,4 hPa 0,0 l/m 4,9 km/h (1 Bft) O-NO 62 0 min 0,000 mm 0,0 UV-I 0 W/m -0,6 C 0,0 C 6,4 km/h (2 Bft) 97,87 %
15.11.2017 23:48 0,0 C 6,1 C 96 % 1026,4 hPa 0,0 l/m 5,8 km/h (2 Bft) NO 51 0 min 0,000 mm 0,0 UV-I 0 W/m -0,6 C 0,0 C 6,4 km/h (2 Bft) 97,87 %
15.11.2017 23:50 0,0 C 6,1 C 96 % 1026,3 hPa 0,0 l/m 3,9 km/h (1 Bft) NO 51 0 min 0,000 mm 0,0 UV-I 0 W/m -0,6 C 0,0 C 6,4 km/h (2 Bft) 94,29 %
15.11.2017 23:52 0,1 C 6,1 C 96 % 1026,3 hPa 0,0 l/m 3,7 km/h (1 Bft) NO 51 0 min 0,000 mm 0,0 UV-I 0 W/m -0,5 C 0,1 C 4,8 km/h (1 Bft) 96,00 %
15.11.2017 23:54 0,1 C 6,1 C 96 % 1026,3 hPa 0,0 l/m 4,0 km/h (1 Bft) NO 51 0 min 0,000 mm 0,0 UV-I 0 W/m -0,5 C 0,1 C 6,4 km/h (2 Bft) 98,11 %
15.11.2017 23:56 0,1 C 6,1 C 96 % 1026,2 hPa 0,0 l/m 5,8 km/h (2 Bft) NO 36 0 min 0,000 mm 0,0 UV-I 0 W/m -0,5 C 0,1 C 9,7 km/h (2 Bft) 97,78 %
15.11.2017 23:58 0,1 C 6,1 C 97 % 1026,3 hPa 0,0 l/m 6,1 km/h (2 Bft) NO 43 0 min 0,000 mm 0,0 UV-I 0 W/m -0,3 C 0,1 C 9,7 km/h (2 Bft) 97,87 %
_ Min-Zeit 19:12 06:40 10:34 23:56 - 04:56 - - - - - - 19:12 00:32 04:56 07:02
Minimum _ -0,3 C 6,1 C 91 % 1026,2 hPa - 0,0 km/h (0 Bft) - - - - - - -1,1 C -3,1 C 0,0 km/h (0 Bft) 89,36 %
_ Max-Zeit 11:20 00:00 23:58 09:26 00:00 00:32 - - 16:14 12:00 11:22 11:30 13:24 11:20 00:28 00:14
Maximum _ 0,8 C 6,7 C 97 % 1029,5 hPa 0,0 l/m 9,8 km/h
SW (2 Bft)
- - 2 min 0,051 mm 0,5 UV-I 140 W/m -0,2 C 0,8 C 12,9 km/h
W-SW (3 Bft)
100,00 %
Durchschnitt _ 0,2 C 6,3 C 94 % 1028,0 hPa #0,0 l/m 2,2 km/h (1 Bft) W - #2 min. #0,203 mm 0,5 UV-I 63 W/m -0,6 C 0,1 C 4,4 km/h (1 Bft) 97,97 %